GFSSGP_850_spd_000.txt.gz
Wind_Speed
7 4 4 4 2 3 5 2 7 7 7 10 17 19 17 22 9 10 7 10 6 8 8 11 12 10 8 8 11 10 14 15 12 13 14 12 11 12 13 12 12 11 12 11 10 8 8 3 4
6 5 4 3 2 4 4 7 7 5 7 5 12 19 19 14 18 11 4 13 8 9 7 11 9 9 10 9 10 10 12 15 16 15 15 15 14 13 12 13 13 12 11 12 11 12 8 4 5
7 5 3 2 2 3 5 10 7 5 4 4 6 14 9 5 12 6 8 10 9 10 9 9 8 8 9 11 12 13 16 17 18 19 19 19 18 16 15 14 13 12 11 12 12 11 9 7 5
8 2 5 2 5 4 7 8 9 8 7 3 13 12 9 5 5 7 6 7 4 7 9 9 8 9 10 11 13 15 17 18 19 19 19 19 19 18 17 18 17 16 14 13 11 10 10 8 7
7 4 3 4 8 3 8 11 7 5 6 6 11 10 11 8 9 9 7 8 6 9 9 10 10 11 11 12 14 15 17 17 17 18 18 17 19 19 18 18 18 18 16 15 14 13 9 8 9
4 4 4 5 6 5 8 8 6 6 6 8 14 14 7 9 10 9 8 9 10 12 8 11 15 13 13 14 15 15 15 16 17 18 18 20 20 21 20 20 19 18 16 16 14 12 12 11 10
3 3 8 7 7 5 5 8 7 4 10 6 13 10 12 8 11 9 9 9 12 12 13 10 14 15 10 12 13 12 14 15 16 17 17 16 17 17 19 18 18 17 16 16 14 14 12 10 11
3 3 7 4 7 7 9 6 3 3 7 8 4 6 10 10 11 10 8 9 11 10 14 12 12 12 9 10 12 10 13 15 16 18 16 13 10 12 13 14 18 15 14 14 14 13 13 11 11
2 2 4 5 3 5 14 6 6 5 11 6 5 13 15 12 12 10 9 7 9 14 9 13 11 10 9 7 8 8 10 11 15 17 18 16 13 13 11 12 9 13 15 14 15 16 16 11 11
4 3 4 10 9 7 13 13 9 5 12 7 9 7 10 11 11 12 10 10 8 10 13 7 10 9 8 5 4 6 11 13 16 19 21 20 18 18 16 12 9 11 7 8 10 12 16 17 10
5 2 4 6 8 2 12 9 10 8 5 13 15 12 12 12 13 11 10 10 10 9 10 9 6 5 3 2 4 8 12 15 18 20 22 22 21 20 19 17 15 14 14 13 8 6 10 17 17
4 3 4 2 2 3 10 10 5 9 2 11 16 14 13 12 12 12 11 10 8 9 9 8 6 4 2 2 6 9 13 16 18 19 20 21 20 20 19 18 15 14 13 11 10 8 6 8 15
8 5 2 3 2 4 9 9 6 5 8 10 14 15 14 13 13 13 12 10 8 8 9 9 7 5 4 4 7 11 13 16 17 18 19 20 20 20 20 19 18 16 16 16 17 15 11 9 9
3 6 4 4 6 6 6 7 7 15 13 12 14 16 16 15 14 13 13 12 10 10 11 11 9 7 6 8 10 12 13 15 17 18 18 19 19 18 19 19 19 19 20 21 20 17 15 14 13
4 5 4 9 11 5 9 8 11 16 20 18 17 18 17 17 17 15 14 14 12 14 13 12 10 9 10 10 11 12 14 15 16 16 16 18 19 19 20 19 19 20 22 23 23 22 20 17 15
6 8 4 11 14 7 10 7 20 21 24 22 21 21 21 21 21 18 22 19 19 16 15 16 13 12 11 11 11 11 13 14 15 15 16 16 18 18 18 18 18 19 22 22 22 22 24 23 21
7 5 13 7 17 6 11 7 4 27 23 23 24 25 26 23 22 20 23 22 20 18 16 16 14 13 12 11 10 11 12 14 15 15 15 15 15 16 17 18 18 20 23 22 23 24 20 22 23
7 12 9 10 14 14 11 16 5 18 22 25 26 27 28 28 28 24 22 21 20 20 19 17 15 13 12 11 11 11 11 13 15 16 15 16 14 15 17 19 20 22 24 25 25 23 21 21 23
2 9 10 7 12 10 14 14 15 24 27 24 29 31 31 30 26 26 25 22 20 21 18 16 16 15 13 13 12 12 12 12 15 15 15 16 15 17 18 17 19 20 20 24 26 26 27 25 22
9 9 10 9 6 5 9 14 15 19 28 36 32 30 31 29 28 27 27 24 21 19 16 18 15 15 15 14 13 12 11 13 13 11 15 14 16 17 18 18 19 20 22 23 26 25 27 27 24
9 11 9 8 3 6 8 11 20 16 26 29 36 34 32 32 32 30 31 26 24 22 19 20 15 16 15 15 13 11 12 11 9 13 13 12 17 16 17 17 20 21 21 23 24 25 25 29 28
12 6 9 4 3 4 7 6 12 12 17 19 29 34 34 32 31 32 32 27 24 25 24 19 20 16 14 13 13 13 13 11 12 10 11 14 15 17 16 20 20 21 22 24 25 26 27 29 32
7 2 2 5 6 7 10 5 5 8 7 14 20 30 34 33 31 33 31 27 25 24 24 25 20 15 14 15 14 13 12 13 12 12 13 14 15 16 20 20 20 22 24 26 26 28 31 33 35
9 3 2 3 3 7 12 12 8 10 12 7 14 28 29 32 31 31 31 28 27 26 24 24 19 18 16 18 13 11 13 13 13 14 14 16 18 21 20 22 23 24 27 28 29 33 31 33 33
4 4 3 4 4 7 5 12 15 6 4 3 7 13 26 27 29 29 30 32 31 30 28 29 26 20 20 14 11 14 13 13 14 14 16 18 21 22 23 23 25 27 27 31 31 32 35 34 36
12 10 6 6 7 10 4 6 5 7 9 6 15 12 20 24 28 31 32 33 33 31 30 29 23 20 18 14 16 13 11 12 15 18 18 21 22 24 23 25 24 30 32 30 32 34 35 36 36
8 10 12 10 15 8 7 11 10 7 8 10 17 16 22 26 29 31 32 32 31 30 29 27 24 22 20 18 14 13 13 13 16 19 21 22 23 25 25 27 31 30 30 32 32 34 35 34 33
10 2 4 5 5 8 8 10 6 6 12 11 10 19 21 26 28 30 32 32 31 29 26 24 25 23 21 18 16 16 15 16 17 18 20 22 24 24 26 30 30 33 32 32 34 33 33 33 39
6 7 8 4 8 4 10 7 6 6 4 14 10 22 25 28 30 31 31 30 29 27 26 27 25 24 22 20 16 18 18 16 17 20 22 23 23 26 28 31 32 33 33 33 32 34 37 38 40
18 14 21 8 8 9 15 17 7 3 8 11 19 23 24 26 28 28 29 28 28 29 27 27 27 25 22 19 20 19 17 17 19 21 22 23 25 27 29 32 33 33 33 33 35 36 36 38 42

GFSSGP_850_spd_003.txt.gz
Wind_Speed
5 3 2 3 4 5 3 0 5 3 6 19 21 25 14 11 4 8 12 10 7 9 7 10 8 8 8 10 9 11 15 17 17 17 16 16 15 15 13 13 12 11 12 12 10 9 7 3 4
4 2 3 3 4 3 3 2 6 4 7 27 26 21 15 7 13 10 16 9 1 6 8 9 7 8 9 10 12 14 16 17 18 19 19 18 17 16 15 14 14 13 12 11 10 9 7 4 4
4 5 3 4 3 2 4 4 6 6 3 2 9 14 6 3 10 7 13 5 2 7 7 6 8 8 9 12 14 16 19 19 18 18 19 19 18 17 17 16 14 12 11 11 11 10 7 5 4
6 3 1 4 5 5 7 7 10 8 5 2 18 11 8 5 8 9 10 2 4 5 5 8 9 11 12 14 16 17 17 17 18 18 18 18 20 19 17 16 15 13 12 10 9 9 8 6 5
4 1 3 4 3 4 4 11 12 6 7 12 10 4 7 11 13 7 10 5 0 7 9 10 10 11 12 14 15 16 17 17 17 17 17 17 18 19 16 18 16 13 11 10 9 7 6 5 6
3 1 4 2 3 6 7 9 4 5 17 16 14 10 6 12 11 8 9 11 7 8 10 12 12 12 14 15 15 16 15 14 14 14 14 13 13 13 13 14 14 13 12 9 8 7 5 5 6
2 3 3 2 3 4 6 11 4 4 11 6 20 6 12 15 14 8 8 16 13 11 10 12 12 10 13 14 12 12 11 11 11 11 9 10 10 7 9 9 9 9 9 9 8 7 6 5 5
2 3 4 2 6 5 11 11 3 7 2 13 10 7 8 21 18 11 9 13 15 15 12 11 10 9 10 12 9 7 7 8 10 10 9 7 6 5 5 6 6 7 8 8 9 9 8 7 7
1 4 2 4 7 6 16 5 4 6 9 6 6 18 16 20 21 15 14 12 14 17 16 16 16 11 9 8 6 4 4 7 10 11 11 10 8 8 4 4 3 2 3 4 7 6 10 11 11
3 3 3 2 4 6 12 13 10 6 10 6 14 18 19 21 22 18 16 16 17 17 19 18 21 16 10 7 3 1 4 8 11 14 15 15 15 15 14 10 9 7 3 3 3 3 3 6 9
4 4 2 2 4 12 17 14 14 12 5 13 19 20 21 21 20 21 19 17 17 19 17 19 15 13 9 5 2 2 7 10 12 14 16 16 15 15 14 13 11 10 11 11 9 6 7 6 5
1 4 2 2 2 4 10 14 11 12 6 16 18 21 23 24 23 23 21 21 20 19 19 15 14 11 9 7 3 5 8 10 12 14 15 14 15 15 14 13 12 11 12 12 13 11 7 8 9
4 5 4 6 3 4 10 10 9 10 8 17 23 22 22 22 24 23 21 19 19 18 19 17 14 13 10 7 7 7 8 10 12 12 13 13 13 13 13 12 12 12 12 13 13 13 11 10 10
3 9 8 6 6 6 5 7 11 15 18 22 24 24 24 25 26 25 25 23 21 20 20 19 17 15 12 11 10 9 9 10 11 12 13 13 13 12 11 11 12 12 14 16 16 17 16 15 13
3 3 2 8 10 5 3 5 10 14 23 24 24 24 26 28 28 29 27 26 25 23 22 20 18 17 15 14 12 10 10 11 11 12 14 14 13 13 13 13 14 16 18 18 18 18 18 18 17
3 3 2 5 14 7 11 9 12 24 28 28 28 27 30 31 31 28 26 26 27 26 24 21 20 19 17 16 14 12 11 11 11 12 13 13 13 12 12 12 13 14 16 17 19 21 22 22 21
2 4 7 4 17 5 6 8 8 18 34 32 31 30 33 33 33 32 29 30 30 28 25 23 22 20 19 17 15 14 12 12 12 12 13 11 12 11 12 13 13 15 18 19 22 21 21 20 22
7 5 5 6 9 8 8 14 3 21 32 33 35 35 35 38 40 36 34 33 33 30 27 24 23 21 20 18 16 14 13 12 12 13 12 11 11 9 11 12 14 15 18 20 22 24 22 23 23
3 4 6 6 6 9 14 15 14 23 24 27 35 38 41 43 39 34 34 35 33 31 28 26 24 24 21 19 16 14 13 13 11 12 10 12 9 10 11 13 13 16 19 19 20 22 23 25 27
12 9 7 7 3 9 8 18 15 14 26 36 39 39 44 42 41 37 37 37 35 31 30 27 26 25 22 19 16 14 13 11 11 11 11 11 9 11 11 12 13 17 18 20 22 22 25 24 25
12 8 4 6 2 4 5 8 9 14 23 31 38 45 45 47 45 42 42 41 35 32 29 28 27 24 22 18 16 15 13 11 10 10 10 8 8 10 10 11 15 16 17 19 20 22 25 26 27
8 4 5 7 3 5 5 11 6 10 12 12 33 36 45 44 44 44 44 43 38 31 27 26 27 26 23 20 18 16 13 11 10 10 9 7 8 8 9 13 16 15 16 18 20 22 22 24 30
7 4 3 3 3 2 3 3 5 7 8 13 19 38 40 45 44 47 47 45 38 30 26 27 28 26 25 21 19 16 13 12 10 10 9 8 8 10 13 15 15 16 18 19 23 22 23 28 29
7 4 3 4 3 5 7 7 20 8 15 8 7 29 39 41 43 43 42 42 38 30 26 27 31 29 25 23 21 17 15 12 12 11 10 9 12 14 16 16 16 17 20 21 23 27 28 27 30
3 7 2 3 1 10 11 9 23 7 9 9 8 20 34 39 41 43 41 40 37 33 29 27 30 30 28 26 22 19 14 12 12 11 11 13 15 17 18 18 17 18 20 25 27 25 26 29 32
11 11 7 8 6 10 6 8 9 15 29 18 20 20 28 35 37 42 41 39 38 34 31 30 31 31 29 27 23 19 14 13 12 12 14 17 18 19 19 19 18 22 26 28 28 30 31 31 32
7 11 12 3 3 2 6 8 9 5 4 8 17 21 30 33 35 39 39 38 38 36 34 33 31 30 28 27 23 19 16 13 14 14 17 18 18 19 22 19 21 25 28 30 31 31 32 33 32
8 7 3 3 6 7 8 7 8 11 19 11 8 22 33 33 33 35 36 37 37 35 34 33 31 29 26 23 21 19 16 17 16 16 16 17 19 21 19 20 24 28 31 31 31 33 33 33 35
5 9 5 5 6 7 9 7 10 17 11 14 18 28 34 35 34 34 35 35 35 34 35 34 31 28 25 24 22 20 19 19 18 17 16 19 19 19 21 24 28 30 32 32 32 33 36 35 36
16 12 23 8 5 7 15 17 4 9 10 14 21 32 33 33 34 32 33 34 35 36 36 35 31 28 25 23 23 22 22 21 20 17 19 19 21 20 24 28 27 30 32 34 33 34 34 34 35

GFSSGP_850_spd_009.txt.gz
Wind_Speed
3 1 2 1 4 5 1 3 1 4 1 1 7 4 6 4 3 3 7 13 9 6 2 2 4 4 5 7 10 12 12 13 12 12 12 11 10 9 8 7 7 7 7 8 7 7 4 4 4
2 1 2 2 4 3 3 2 5 4 13 22 17 10 3 2 7 10 11 13 10 3 5 2 4 5 6 9 10 12 12 13 12 11 11 11 10 10 9 7 6 5 6 6 6 6 5 4 3
2 1 2 4 3 4 4 4 5 15 23 5 6 5 5 8 11 15 13 13 8 5 5 4 6 8 11 12 13 13 12 11 11 11 11 11 10 9 7 7 7 6 5 4 4 3 5 4 4
2 1 4 4 3 3 4 7 6 13 7 4 12 6 5 8 11 14 17 12 7 3 3 5 9 12 14 14 13 12 10 10 10 9 8 8 7 7 7 6 5 5 5 3 3 2 2 4 3
1 2 4 3 2 3 3 7 20 6 6 7 8 6 7 9 12 15 15 10 7 6 6 9 12 15 16 14 13 12 10 9 7 6 6 5 4 5 3 3 3 3 4 3 3 3 3 2 2
2 3 4 2 3 3 3 6 8 5 8 10 6 12 8 12 14 16 13 11 7 6 12 13 14 16 15 15 14 12 9 7 5 3 2 2 3 3 3 3 1 1 1 4 5 3 3 4 4
4 4 4 5 3 2 4 9 6 7 6 7 11 7 8 18 16 15 14 12 8 10 14 15 16 16 17 16 14 10 7 4 2 1 2 3 3 4 5 5 6 5 5 4 3 5 6 4 6
2 5 5 3 5 6 5 10 8 12 6 6 12 7 6 24 20 18 16 14 12 13 14 16 18 20 18 16 13 9 6 3 2 2 3 4 4 5 6 7 8 7 7 6 4 4 4 2 5
2 4 3 5 6 6 8 6 7 9 11 15 14 8 6 26 24 22 21 20 18 18 16 19 20 20 19 16 13 9 5 3 2 3 2 3 4 5 7 7 8 6 7 6 6 6 4 2 2
3 3 9 6 5 5 9 10 13 8 12 11 15 15 11 29 30 28 26 25 24 23 21 20 21 21 20 17 13 9 6 4 4 3 4 4 4 5 6 6 5 5 6 6 7 7 8 6 5
3 5 4 4 5 9 9 7 11 8 5 17 28 26 22 33 33 31 29 28 26 24 24 22 22 21 20 17 14 11 9 7 5 5 7 8 8 8 8 6 5 4 3 4 5 6 7 8 8
2 7 5 3 5 4 6 8 7 19 20 13 26 26 30 36 37 35 33 31 30 29 26 25 25 24 21 19 16 13 11 9 7 7 10 11 9 8 9 7 7 6 5 4 3 4 5 6 7
3 4 6 9 8 7 6 12 12 19 29 22 15 27 32 36 37 36 32 31 31 31 29 29 27 26 26 24 20 17 14 11 10 10 12 12 10 10 9 8 7 6 6 6 6 6 5 5 6
3 10 8 9 10 8 6 8 9 16 26 25 21 30 34 37 37 37 37 35 35 33 31 31 31 31 29 28 25 20 17 14 12 12 12 12 12 11 11 9 7 7 7 7 8 9 9 9 8
3 3 4 7 6 5 8 9 12 34 18 27 27 32 37 41 39 42 40 40 38 36 32 32 32 32 32 30 26 22 19 15 13 13 12 12 13 13 11 10 8 8 8 8 8 9 10 11 11
0 2 2 4 8 7 9 14 8 30 30 29 31 35 40 41 42 43 42 42 40 38 36 34 34 33 32 30 27 23 20 17 15 14 14 13 13 13 12 10 9 8 8 8 9 10 11 12 13
4 4 7 8 15 4 8 9 9 13 31 32 35 38 42 43 43 45 44 43 41 40 38 37 35 34 33 30 27 24 22 19 17 16 15 14 13 12 11 9 8 7 7 9 10 12 14 15 16
7 6 5 6 3 4 5 15 13 9 21 35 38 39 43 46 49 47 45 44 43 42 39 38 35 34 33 30 28 26 24 21 18 17 15 15 13 12 10 8 7 6 7 9 11 13 14 16 18
4 4 6 5 6 8 10 18 22 22 19 26 32 39 44 48 50 48 46 46 45 43 41 40 38 36 36 34 32 30 27 22 20 18 16 15 13 11 10 8 7 7 8 9 11 12 14 16 19
5 6 9 8 8 8 10 20 18 14 13 32 35 37 47 49 51 51 49 49 49 47 46 44 42 40 38 35 32 29 25 23 21 19 17 16 14 12 10 9 8 8 8 9 10 12 13 15 17
12 14 8 13 7 5 4 20 9 11 25 30 38 48 44 51 51 51 53 53 54 54 52 50 48 44 40 36 33 32 28 25 23 21 19 16 15 13 11 11 9 9 10 10 11 12 13 16 15
15 8 13 12 3 9 4 15 7 6 14 13 30 37 46 50 52 50 51 53 56 57 54 52 49 46 42 38 37 36 32 27 23 20 18 17 15 14 13 12 11 11 12 12 12 12 13 15 19
7 7 9 7 6 2 5 4 2 3 7 11 14 38 45 47 47 47 48 53 56 55 57 53 50 46 43 41 40 36 32 28 24 21 19 17 15 15 14 13 12 13 13 13 12 11 13 15 17
3 3 2 3 4 7 10 8 28 11 13 11 16 32 40 40 42 45 43 44 48 53 55 55 51 47 44 42 39 37 33 29 26 22 19 16 16 15 14 13 12 13 13 12 11 12 14 17 19
4 5 4 4 2 15 9 9 22 4 6 9 15 32 36 36 31 34 38 42 43 48 54 56 52 49 45 42 39 37 33 30 25 21 19 17 16 15 13 12 13 13 12 12 13 14 17 19 21
11 13 9 6 7 15 5 10 13 10 15 21 30 39 43 44 39 28 29 37 38 42 49 51 53 49 46 42 39 36 33 30 25 21 19 17 15 13 12 12 13 14 13 14 15 17 20 21 23
5 7 15 11 21 5 12 16 13 11 9 12 22 32 37 40 38 31 27 34 36 40 44 46 49 50 47 42 39 36 34 31 26 22 20 17 15 14 13 14 15 15 15 17 18 21 22 23 26
6 4 3 2 9 21 14 6 12 6 7 11 11 21 36 34 35 34 33 34 37 39 37 40 46 49 45 42 39 36 34 29 24 22 21 17 13 14 14 15 16 16 17 19 21 21 23 26 27
10 6 4 4 7 17 19 14 7 14 16 17 12 26 31 33 34 36 32 34 35 36 37 39 43 47 47 43 39 36 33 29 25 24 21 17 14 15 15 15 16 17 18 19 20 22 25 28 26
16 9 3 4 15 6 14 24 3 4 8 8 15 33 39 40 34 25 29 33 34 37 39 38 40 47 47 42 38 35 31 28 26 25 22 18 15 15 15 15 16 17 17 18 21 24 28 27 27

GFSSGP_850_spd_012.txt.gz
Wind_Speed
2 1 2 2 3 5 0 3 2 4 1 3 8 5 5 3 3 3 11 14 10 6 2 2 2 4 4 5 7 8 9 9 9 9 8 7 8 6 6 7 6 5 5 5 6 7 5 4 4
1 2 2 3 4 3 4 2 5 5 5 13 11 10 2 1 4 7 11 15 11 7 3 1 3 4 6 7 8 9 10 9 9 8 8 8 7 7 6 5 5 4 4 4 4 5 5 5 4
1 2 1 4 3 3 4 4 5 8 18 6 5 3 5 5 6 13 13 16 10 6 4 3 4 6 9 10 11 10 9 7 7 7 7 6 6 6 6 5 4 4 3 3 3 4 4 4 4
1 1 4 4 2 3 3 5 7 14 7 4 6 3 5 10 9 11 15 13 10 6 4 5 8 11 12 13 12 9 8 7 7 6 5 4 4 4 4 4 4 4 3 3 3 4 4 4 3
1 1 3 2 2 2 2 5 21 7 3 6 9 6 4 12 12 13 16 13 10 6 4 7 11 14 14 13 11 9 8 7 4 3 3 3 4 3 2 1 1 2 5 4 4 4 6 5 4
0 2 3 2 4 2 3 9 17 7 5 7 4 9 6 11 15 17 16 14 11 7 7 11 15 16 16 14 11 10 7 5 2 1 2 3 4 4 5 5 4 4 4 4 6 6 4 6 6
3 3 4 4 3 3 4 12 8 10 7 7 5 7 5 16 17 18 17 15 12 9 12 17 18 18 17 14 13 10 6 3 1 3 4 5 6 7 7 8 8 8 7 5 6 5 5 5 7
2 4 4 3 4 5 4 11 7 14 9 6 10 6 6 20 22 21 19 16 13 12 15 18 20 19 18 16 14 10 6 3 2 4 5 6 6 7 8 9 9 10 8 6 5 5 4 4 6
3 4 3 5 6 5 6 7 8 8 7 13 15 12 9 17 24 24 23 21 19 18 19 21 22 22 20 19 15 11 7 4 3 4 4 6 6 8 8 9 9 9 9 7 7 6 4 3 3
3 3 8 5 5 4 5 10 14 7 9 12 17 20 14 20 27 29 29 28 26 23 23 22 24 23 23 20 17 13 9 6 5 4 5 6 8 8 8 8 9 8 7 7 8 8 7 6 5
4 5 4 4 9 7 4 7 11 10 5 18 25 29 22 25 30 31 31 30 27 25 26 24 25 25 24 22 18 14 11 8 7 6 6 8 9 10 9 8 7 6 5 5 6 6 6 7 7
2 8 6 4 7 4 4 4 9 22 26 16 29 24 27 30 34 34 33 31 31 29 28 26 25 26 25 23 21 16 14 12 10 8 8 10 11 10 10 9 8 6 5 5 5 5 6 6 5
3 4 6 14 11 10 8 11 13 20 31 28 19 20 26 33 36 37 34 32 31 32 29 29 28 27 26 25 23 20 17 15 13 11 10 11 11 11 11 11 10 9 7 6 5 6 6 7 7
4 7 13 9 12 9 5 8 8 9 25 29 28 27 27 33 37 39 40 37 35 33 32 30 30 29 28 28 26 23 21 19 16 14 13 12 12 12 12 11 11 9 8 8 7 7 7 7 7
7 6 7 6 6 6 3 10 15 27 29 25 28 33 32 34 37 43 41 40 38 37 33 33 31 31 30 30 29 27 25 23 19 16 14 13 12 13 12 12 11 10 9 8 8 9 9 9 8
4 2 3 4 3 5 8 15 13 16 24 35 36 33 34 37 39 40 43 42 41 40 37 35 35 33 32 32 31 29 27 25 21 18 16 14 13 13 13 13 12 11 10 9 9 9 9 10 10
6 5 5 9 11 2 8 9 9 11 17 29 33 39 38 39 42 45 44 43 43 42 41 40 38 37 35 34 33 32 30 27 24 21 17 15 14 14 14 14 13 12 11 9 9 10 10 11 12
6 5 5 6 3 2 7 15 18 25 16 20 28 32 38 42 45 43 45 46 45 45 44 43 41 39 37 35 35 34 32 30 26 22 19 17 16 15 15 14 13 12 11 10 10 10 11 13 15
2 3 6 6 4 4 8 17 18 28 17 26 35 35 38 43 41 44 44 47 48 49 49 48 46 43 41 40 38 37 35 32 28 24 21 19 17 16 16 15 13 12 11 10 11 11 12 12 16
7 7 13 8 7 7 10 21 16 16 16 28 35 40 47 48 45 46 44 46 51 51 50 49 50 48 45 43 40 37 34 31 27 24 23 21 19 18 17 15 14 13 11 11 11 11 12 13 14
8 7 12 13 10 7 7 26 12 11 22 23 33 43 47 48 50 49 49 49 48 54 54 53 52 51 49 45 41 38 34 32 31 30 27 23 20 19 18 16 15 13 12 11 11 11 12 13 13
9 11 14 10 2 9 4 18 3 6 12 7 25 36 44 47 50 51 47 47 49 52 56 57 54 54 52 48 45 43 41 38 35 30 24 22 22 20 18 17 15 14 12 12 12 11 11 11 12
10 7 7 6 5 4 5 4 17 4 5 9 11 31 36 39 41 44 45 45 47 46 53 58 57 56 54 51 48 44 40 36 31 27 25 25 23 22 19 17 15 14 13 13 12 11 10 11 12
1 2 1 4 4 6 8 8 27 5 8 7 10 23 31 33 32 32 34 34 38 40 46 54 60 58 57 54 49 46 42 37 34 31 28 26 24 22 20 18 16 15 14 13 12 12 12 11 13
4 4 4 4 2 11 10 9 27 5 2 5 10 31 35 33 35 36 28 30 35 40 44 47 55 62 61 55 51 47 42 38 36 32 29 27 25 23 20 18 17 15 13 13 13 13 14 14 17
3 8 5 6 4 7 3 9 9 2 9 12 19 26 30 35 39 40 33 31 29 31 37 42 50 60 60 55 51 47 42 40 36 32 28 26 24 20 18 18 17 14 14 13 14 15 15 17 19
3 3 6 11 22 12 14 17 14 10 11 12 22 32 34 36 40 40 37 29 26 26 32 39 44 50 55 55 52 47 43 40 36 31 28 25 22 20 19 18 16 15 14 14 15 17 18 19 20
5 3 6 3 9 20 12 7 12 13 16 19 20 29 35 42 45 45 41 28 25 28 30 35 38 42 48 54 52 47 43 40 35 31 29 26 22 21 19 18 17 16 15 15 16 18 18 20 22
12 13 7 6 8 9 11 9 3 8 11 18 19 32 28 34 41 45 39 28 24 24 30 33 36 40 45 50 51 47 44 39 34 32 29 26 22 21 19 17 16 16 16 16 17 18 19 22 24
15 18 6 4 6 5 7 10 6 18 25 34 34 35 51 46 35 43 43 35 33 26 25 33 36 38 40 44 49 48 41 38 36 33 30 26 24 21 17 17 17 17 16 16 17 18 21 24 25

GFSSGP_850_spd_015.txt.gz
Wind_Speed
2 2 4 3 1 2 2 3 1 4 5 4 9 6 5 2 3 1 13 17 13 9 4 4 5 5 5 6 7 8 7 6 7 6 6 6 7 6 7 7 5 5 4 4 4 4 4 4 4
1 4 4 2 2 1 1 2 5 5 3 11 9 6 2 2 4 3 16 17 13 10 5 3 4 6 6 8 7 8 7 6 6 5 5 5 4 4 4 3 4 5 4 4 3 3 3 2 3
2 3 2 3 2 2 2 4 6 4 13 6 5 5 3 3 6 7 11 18 15 10 6 3 4 7 9 10 9 8 8 6 5 4 4 3 3 3 3 3 3 3 3 3 4 4 2 2 2
1 2 4 2 2 2 2 3 7 12 5 5 5 2 4 8 7 10 14 17 13 9 6 4 8 11 11 12 11 8 6 5 3 3 1 4 2 2 1 1 2 3 3 3 4 5 5 3 3
0 1 2 1 2 2 3 4 13 10 5 7 11 4 4 13 11 12 16 15 11 9 7 7 11 14 14 12 11 8 7 4 2 1 2 5 5 5 4 3 2 3 4 5 5 4 4 5 6
2 2 1 3 3 2 3 8 13 11 4 6 8 6 5 11 15 13 16 14 13 10 9 9 13 15 15 14 11 9 7 4 2 1 3 4 6 7 8 7 6 5 4 6 5 5 6 7 5
4 3 3 3 3 3 3 11 10 16 6 8 5 6 5 13 16 16 18 17 15 13 11 13 16 17 17 14 12 10 7 4 1 2 4 5 6 8 10 10 10 9 7 6 6 5 6 6 7
3 4 3 3 4 5 5 12 9 16 13 9 10 5 5 13 18 20 21 20 18 16 15 15 19 20 19 15 13 11 8 4 1 2 4 5 7 8 10 11 10 10 9 7 6 5 5 6 7
4 2 3 5 6 4 7 7 9 10 10 15 13 14 10 9 20 23 24 24 23 21 19 18 21 22 20 18 16 14 9 6 3 3 3 5 7 9 10 11 10 10 10 8 7 6 6 4 4
3 3 8 5 5 4 6 11 10 7 11 10 18 21 18 14 23 26 28 28 27 26 24 22 23 24 23 21 19 16 12 8 6 4 4 5 7 9 10 10 10 10 9 9 7 6 6 6 5
2 4 3 4 12 8 4 4 8 9 6 15 24 28 25 20 26 29 29 28 25 26 25 24 25 25 25 24 22 19 15 11 9 7 6 6 7 9 10 9 9 8 8 7 7 6 6 6 6
3 6 6 5 4 4 4 4 5 20 22 17 26 23 24 26 28 30 31 30 29 28 26 25 26 27 27 26 25 22 18 15 12 10 8 8 8 10 10 9 9 8 8 8 7 7 6 5 5
3 4 8 12 14 11 10 11 12 15 23 29 19 17 23 26 29 31 32 31 32 31 29 28 29 28 29 28 28 26 22 18 16 14 11 10 9 10 11 10 9 9 9 9 8 7 7 7 6
4 10 15 11 13 10 6 12 13 7 11 23 29 31 28 29 30 31 37 38 37 33 33 30 31 30 29 30 30 28 25 21 19 17 15 13 11 11 12 11 11 10 10 10 9 8 7 7 8
6 6 7 9 8 7 5 10 15 28 30 30 28 29 32 35 32 37 36 35 35 38 36 34 33 32 31 31 31 30 28 24 22 21 19 16 14 13 13 12 12 11 11 10 10 10 8 8 8
4 1 5 3 2 4 8 15 13 14 19 29 33 37 38 37 36 37 39 38 38 42 41 37 37 35 34 34 32 33 32 29 27 25 23 20 17 14 14 13 13 12 12 11 10 10 10 9 9
4 5 4 9 4 3 7 8 6 4 8 19 24 26 30 33 37 40 40 38 40 42 43 43 41 40 37 36 35 35 34 32 30 29 27 23 19 16 15 14 14 13 12 11 11 10 11 11 11
3 4 4 6 2 3 8 17 20 29 22 27 35 37 36 34 34 35 39 41 42 43 46 46 45 43 41 39 38 38 36 35 34 32 29 25 22 19 16 15 14 14 13 13 12 11 12 13 13
2 4 10 16 12 9 18 22 20 32 18 24 33 38 40 39 39 40 38 40 43 46 49 50 49 48 46 45 44 43 40 39 37 35 31 27 24 20 18 16 15 14 14 14 13 12 11 13 14
7 9 14 12 11 7 12 26 20 19 31 31 32 35 41 47 46 43 43 39 42 46 50 52 53 52 51 49 48 46 42 40 38 35 32 29 25 22 20 18 16 16 15 14 13 12 11 12 13
4 7 8 13 12 8 11 19 10 9 21 28 28 38 39 37 38 38 41 42 41 45 47 53 54 56 56 54 52 49 44 41 39 39 36 32 27 23 21 19 17 16 15 14 13 12 11 11 11
6 12 15 11 5 6 5 16 7 11 16 5 18 27 31 31 34 35 36 37 37 41 46 50 54 58 58 58 57 55 51 48 46 42 37 31 27 25 23 21 19 17 16 15 14 13 12 11 10
7 1 4 3 5 6 6 6 18 5 9 12 14 23 29 24 28 32 32 33 34 35 39 44 53 59 59 60 60 58 54 49 44 39 35 31 28 26 24 22 20 19 17 15 14 13 13 12 11
2 2 1 2 2 8 10 10 27 6 3 6 9 16 24 22 28 32 31 29 33 33 34 38 46 56 61 62 62 61 57 52 45 40 36 33 31 28 26 23 22 19 18 16 14 14 13 13 14
2 3 4 3 3 7 3 9 21 7 18 7 10 27 31 37 41 43 42 39 33 36 39 39 42 51 58 64 64 62 59 52 46 42 38 35 33 31 28 25 23 21 18 16 14 14 14 14 15
6 4 2 7 8 14 6 12 12 3 9 16 17 22 27 34 41 46 44 43 44 31 33 39 42 45 50 59 64 63 59 53 47 43 39 34 31 27 26 24 22 21 19 16 15 14 14 15 17
3 1 4 8 18 13 13 18 14 17 9 21 25 32 36 32 35 37 49 49 46 41 29 30 34 40 44 49 58 62 59 55 50 43 38 33 28 26 26 24 23 22 19 17 16 15 15 17 19
5 5 6 3 16 22 18 22 16 16 17 22 28 39 39 35 36 39 47 51 43 42 32 24 28 34 41 43 49 58 59 55 48 42 40 34 29 29 27 25 24 22 20 18 17 16 16 18 19
11 10 10 10 10 15 20 11 2 19 18 24 36 42 37 34 34 37 38 44 42 37 33 25 24 29 36 41 45 52 58 55 49 44 40 34 31 30 29 26 24 23 21 19 18 17 17 18 20
11 4 7 5 12 16 13 19 22 19 31 45 41 41 45 42 41 36 33 33 42 35 34 29 24 25 31 34 41 47 52 53 50 46 40 35 33 31 29 26 24 23 21 19 18 17 17 19 21

GFSSGP_850_spd_021.txt.gz
Wind_Speed
1 0 1 3 4 6 5 6 4 3 1 5 2 3 10 7 10 4 8 8 10 11 8 6 7 5 6 4 5 3 3 3 1 1 1 2 1 3 3 2 2 5 7 7 4 4 5 6 7
2 3 2 6 7 3 2 5 2 2 4 1 1 3 6 6 4 3 10 10 13 11 8 7 7 7 6 6 6 5 2 1 2 2 2 3 3 3 4 5 4 2 3 4 6 4 3 4 6
3 3 4 4 7 7 4 5 2 3 3 3 2 4 7 4 1 3 5 13 13 11 9 12 6 7 8 7 5 4 3 2 3 4 4 5 5 4 5 5 4 4 4 3 2 4 3 3 3
1 3 7 7 13 8 4 7 5 3 3 5 4 6 1 2 3 3 11 13 13 11 9 10 8 10 11 7 6 5 4 2 2 3 4 5 5 6 6 6 5 5 4 5 4 4 4 3 2
2 6 8 11 11 10 6 5 6 6 6 6 6 6 3 3 5 7 11 12 13 11 10 10 10 12 12 9 8 7 4 2 2 2 3 4 5 6 7 7 6 6 5 4 5 5 5 4 2
6 5 10 11 12 10 1 7 9 10 10 4 6 12 6 5 8 9 11 12 12 12 11 10 11 13 13 11 10 8 6 4 4 2 2 4 5 6 7 8 7 6 6 5 5 6 6 4 3
5 7 13 15 15 13 12 2 10 12 12 10 8 8 3 6 11 11 11 11 12 13 12 11 10 15 15 13 12 10 8 7 6 4 2 3 5 7 9 10 8 8 7 6 5 5 5 4 5
5 4 14 14 12 12 14 4 10 15 15 3 4 7 7 7 14 13 12 12 13 14 14 13 14 16 13 16 16 13 10 9 8 6 3 2 4 6 9 10 10 9 8 7 5 5 4 4 5
3 5 11 14 15 14 13 8 15 8 13 12 11 14 6 4 13 13 13 13 14 15 16 15 16 14 15 14 18 16 14 12 10 8 5 3 3 6 8 10 10 10 9 7 6 5 4 3 3
6 8 11 9 11 11 16 16 15 17 16 17 16 16 9 8 13 15 16 16 17 17 18 17 18 17 17 16 16 17 17 15 13 11 8 5 4 4 9 10 9 10 9 7 6 5 4 3 3
3 9 9 9 8 12 15 18 17 18 17 20 21 18 17 14 17 18 18 17 17 18 18 19 19 20 20 20 18 15 14 14 15 14 11 9 8 6 8 9 10 9 9 8 7 6 4 3 3
9 15 13 11 10 12 15 18 21 17 23 22 22 15 15 15 20 21 22 20 19 19 20 21 22 22 23 23 21 18 18 17 17 18 15 14 11 8 7 7 9 8 8 7 6 7 6 4 2
13 14 12 14 15 18 19 21 21 23 24 23 20 19 17 19 23 23 23 22 21 21 22 24 23 24 24 25 23 22 20 19 18 20 19 16 14 11 9 8 8 9 8 7 7 6 5 4 4
9 14 21 22 20 19 19 22 19 21 17 17 17 20 23 23 24 24 25 26 26 25 25 25 27 27 26 27 27 24 23 21 20 23 23 19 17 14 12 10 9 9 8 8 6 6 6 5 4
12 16 17 21 18 9 9 15 15 17 13 17 20 21 21 23 23 27 28 30 29 28 26 27 27 27 28 28 28 27 27 26 24 28 26 24 21 17 15 12 11 10 9 7 7 6 6 7 6
11 11 11 1 4 2 3 19 16 12 9 16 16 18 19 20 22 25 27 28 29 28 28 28 29 30 30 30 30 27 25 28 31 31 30 28 25 21 18 16 14 13 12 11 10 9 7 7 6
11 10 13 13 3 2 6 17 14 14 21 24 28 28 28 28 25 23 24 25 27 28 29 30 31 32 32 32 31 29 27 30 31 30 32 32 29 25 22 20 18 16 14 12 11 10 8 8 8
15 17 18 18 14 11 20 25 25 32 27 28 29 28 27 26 25 24 25 24 24 26 28 29 32 33 33 33 34 33 30 30 29 28 32 33 33 29 25 24 22 19 17 14 13 11 10 9 10
14 15 19 19 18 18 18 20 25 31 29 27 27 25 21 18 16 15 18 20 21 20 25 27 30 33 34 36 38 38 39 37 35 34 32 35 36 34 30 29 25 22 19 16 14 12 12 10 9
12 16 19 18 13 19 20 25 28 26 21 9 10 9 10 14 15 21 21 20 17 12 18 24 28 31 35 38 41 41 38 39 38 37 38 38 38 36 33 32 28 25 21 19 17 16 13 10 12
14 16 18 18 20 21 19 17 9 12 12 8 24 27 27 24 22 24 24 24 22 19 17 18 23 28 33 35 37 37 32 33 33 39 43 43 40 37 35 34 30 26 23 21 19 18 16 12 12
15 6 12 17 15 10 17 10 13 7 10 20 22 25 25 26 23 23 24 24 22 22 22 22 17 23 30 35 39 40 40 41 47 49 49 46 42 39 38 34 31 28 25 23 21 19 18 17 13
12 10 15 17 17 18 16 8 3 9 10 14 18 22 23 27 28 27 27 27 25 25 26 24 24 20 24 32 40 44 44 41 36 40 45 46 44 41 39 35 33 30 28 24 22 20 19 17 15
11 13 19 20 11 8 12 11 6 5 10 13 13 17 21 29 34 30 29 31 31 31 30 29 27 26 22 28 35 43 48 46 38 36 38 44 46 44 42 37 36 33 30 27 25 23 20 19 16
7 15 7 6 6 7 6 9 12 9 17 15 17 23 29 35 35 35 37 39 35 33 35 32 30 31 27 23 32 38 47 47 45 39 37 41 47 48 45 41 39 36 33 30 27 25 23 20 18
15 8 6 8 9 16 22 11 8 7 18 15 25 28 32 33 37 42 40 38 37 34 32 30 30 29 29 26 25 32 40 46 47 44 40 41 45 50 46 44 40 37 34 31 29 26 24 21 20
6 7 9 11 19 17 11 15 17 6 22 36 40 39 37 36 37 38 36 35 34 33 32 31 32 28 27 27 23 26 32 40 43 44 42 42 39 43 46 43 42 37 33 31 29 27 24 22 19
8 6 6 6 7 11 12 20 17 17 28 30 34 42 43 41 45 43 38 36 34 31 31 31 31 30 26 25 23 23 27 34 37 40 42 43 38 39 44 44 41 38 34 31 29 27 23 21 20
13 13 8 9 9 9 16 13 13 29 22 28 33 37 38 32 35 39 39 38 35 33 31 32 31 31 27 23 24 22 22 27 31 36 42 40 38 38 43 44 41 38 35 31 29 27 24 22 19
8 9 1 4 11 15 16 25 23 21 33 32 34 36 33 33 35 39 41 40 36 32 31 32 32 30 28 24 25 23 20 23 27 32 37 39 38 37 40 43 40 38 36 33 30 27 22 22 22

GFSSGP_850_spd_024.txt.gz
Wind_Speed
1 2 6 5 2 2 2 6 4 7 2 8 6 10 8 10 7 3 9 8 8 10 6 7 7 6 6 4 4 2 1 3 4 3 3 3 3 5 5 5 3 6 9 9 6 6 8 9 10
1 3 1 5 3 2 3 8 8 6 11 4 3 5 6 10 10 5 14 12 12 11 3 7 7 7 6 5 4 2 3 4 5 4 4 4 4 5 6 6 5 5 6 7 8 7 7 8 9
2 2 4 3 4 2 3 10 7 10 6 4 2 3 2 5 5 6 5 14 14 11 9 9 4 7 7 7 4 3 2 2 3 4 5 6 6 7 7 5 5 6 5 4 4 6 7 7 6
1 3 6 3 10 4 11 4 9 2 5 2 10 4 5 6 4 5 13 15 15 13 13 13 9 8 9 7 5 4 2 0 2 3 4 6 6 7 7 7 6 5 4 4 3 3 4 6 5
4 5 3 7 13 7 2 10 3 5 5 4 6 7 4 8 9 8 10 14 14 13 14 13 11 11 9 8 7 6 4 2 1 1 2 4 5 6 7 7 6 5 4 4 4 3 3 3 4
5 4 4 6 11 11 11 6 5 6 10 2 5 8 1 7 5 11 14 14 13 14 11 13 12 12 12 10 10 8 6 4 3 1 0 1 3 5 6 7 7 6 5 4 3 3 2 0 1
3 3 6 9 8 8 9 14 10 10 16 13 4 1 4 11 12 13 13 12 14 14 14 14 14 16 14 13 12 11 9 7 5 4 3 1 1 3 6 7 7 7 6 4 3 2 1 1 2
4 3 5 7 7 8 8 7 4 10 10 14 4 2 7 12 11 13 12 13 14 15 14 15 15 11 17 17 16 15 12 10 8 7 5 3 2 2 5 6 8 7 6 5 3 3 2 1 1
3 2 5 9 8 7 17 12 15 10 6 12 15 6 5 5 12 14 14 14 16 16 17 15 21 17 14 15 19 18 15 13 11 10 8 7 5 3 4 8 8 7 5 5 3 2 2 2 1
3 3 5 7 8 7 15 15 16 16 15 19 19 16 15 14 16 17 18 18 18 18 19 17 20 18 11 14 17 19 19 16 14 13 10 9 7 6 2 5 7 7 6 4 3 2 1 0 1
4 3 6 13 13 12 14 17 17 16 8 15 17 20 11 13 17 18 19 19 18 19 20 20 19 21 15 19 22 19 21 19 18 17 14 13 11 8 5 5 5 6 6 4 3 2 1 0 1
3 12 17 13 13 14 13 19 17 21 22 20 20 20 17 10 17 21 21 22 20 21 23 25 25 25 24 24 27 23 20 18 18 19 18 18 14 12 11 8 6 7 7 6 6 4 2 2 2
10 15 19 13 16 17 19 18 15 22 26 25 23 23 19 20 20 22 22 23 24 24 24 27 25 26 28 27 29 27 21 22 23 23 21 22 18 16 13 10 7 6 6 6 6 6 4 3 3
11 15 20 23 24 22 16 15 16 23 22 20 17 17 17 21 24 20 22 25 26 24 25 27 27 26 26 30 32 33 29 29 27 26 25 25 22 19 17 14 11 9 8 7 7 6 6 6 5
10 12 13 21 22 7 6 8 11 25 18 15 13 17 21 22 18 22 23 26 26 27 27 28 29 31 28 29 32 34 33 31 30 29 29 28 26 22 20 18 15 12 9 9 8 8 8 8 7
6 8 4 5 5 6 8 9 10 13 9 11 14 19 23 23 23 19 20 25 25 26 26 26 30 32 33 29 30 33 34 33 34 33 34 31 29 26 25 21 19 16 13 11 11 11 10 9 9
7 5 9 8 7 2 6 10 8 15 24 26 25 23 23 21 20 18 20 16 20 22 23 26 27 31 34 30 31 33 36 37 37 36 38 35 33 31 29 25 22 21 18 15 13 13 12 11 11
11 12 12 12 8 11 10 15 12 24 21 23 22 19 17 12 28 27 20 23 15 9 18 22 23 23 33 31 30 32 35 37 37 38 40 38 37 35 32 30 27 25 22 19 17 15 13 13 13
8 11 13 13 13 12 9 16 20 28 23 19 15 27 33 31 32 36 34 29 21 17 13 13 7 15 22 31 33 36 35 35 37 38 37 38 38 37 36 34 31 30 26 22 19 17 17 15 14
8 13 14 12 10 13 11 18 22 23 8 32 31 33 33 35 35 36 37 35 36 32 25 16 12 10 11 20 36 40 41 40 39 39 38 39 42 40 39 38 36 33 30 26 23 20 19 17 16
11 12 10 13 15 14 10 8 2 16 31 33 32 30 33 34 33 33 34 36 36 36 33 29 23 20 19 16 20 36 36 36 38 38 43 44 43 44 40 40 38 36 33 29 26 23 22 20 19
9 9 11 12 11 4 10 6 9 10 17 18 21 24 27 30 30 30 33 36 35 33 32 33 31 30 26 25 22 21 40 44 44 45 46 45 46 47 44 41 39 38 35 31 29 25 24 22 22
6 9 13 15 13 11 10 4 6 17 14 12 16 24 26 24 27 32 34 32 31 31 31 33 32 29 33 32 28 32 24 45 46 43 42 44 47 49 48 44 41 39 36 33 31 28 26 24 23
9 11 17 17 8 5 9 10 4 4 13 10 16 22 26 25 23 26 28 30 31 30 30 31 26 28 29 31 33 30 33 29 44 44 41 44 45 47 48 46 44 42 38 36 33 30 27 25 23
9 11 4 2 2 5 14 6 4 16 15 18 16 24 29 30 27 28 31 33 33 32 33 31 28 30 29 30 31 33 30 31 34 49 46 45 45 47 49 49 47 45 41 37 34 32 29 26 24
12 5 4 5 4 8 19 4 6 17 24 21 23 23 22 24 22 25 25 29 32 35 35 35 32 32 30 33 32 32 31 30 34 38 48 47 47 47 47 49 48 48 43 39 36 33 31 28 26
8 4 4 5 9 10 6 6 19 15 17 22 28 26 26 27 23 26 27 29 29 34 33 34 32 31 33 34 35 31 33 32 30 34 43 47 43 44 47 48 47 49 46 42 39 36 33 30 28
5 3 2 3 5 5 4 7 4 23 21 24 25 25 31 33 34 36 42 38 38 39 34 28 29 34 37 35 35 36 34 36 33 31 35 45 46 40 47 47 45 47 47 43 40 37 34 31 29
5 7 7 5 6 4 5 6 7 16 18 23 30 29 28 20 24 29 31 30 34 37 34 28 32 35 34 33 32 32 33 36 34 30 28 37 41 43 44 43 45 45 47 46 41 38 34 31 29
4 7 8 1 5 4 3 17 19 13 27 27 28 27 21 24 25 27 30 34 33 28 34 38 37 36 35 29 33 41 33 32 32 30 29 28 34 38 43 44 43 44 47 47 44 39 35 33 30

GFSSGP_850_spd_027.txt.gz
Wind_Speed
3 3 4 5 4 4 2 6 3 4 3 11 10 3 5 5 4 2 8 9 6 6 10 10 8 7 7 6 5 4 4 4 5 6 4 3 4 6 5 5 6 9 10 10 9 10 10 11 13
3 2 3 2 4 3 3 4 4 5 8 4 1 2 7 1 5 8 10 12 11 7 8 9 9 8 7 7 6 5 5 5 5 5 5 5 6 7 7 6 7 7 7 9 10 9 9 10 12
3 5 3 3 2 3 4 4 7 9 9 4 3 1 1 7 6 2 3 14 12 7 7 10 8 8 8 7 6 5 5 4 4 4 5 6 7 7 7 7 7 7 6 5 7 7 9 9 12
6 2 3 2 5 5 3 3 3 7 6 6 3 5 4 4 4 4 7 12 12 13 9 8 7 8 9 9 7 6 5 4 4 3 4 6 7 7 7 7 6 4 4 4 5 5 7 8 10
6 2 3 2 6 2 5 10 6 1 2 8 10 3 8 9 7 3 12 11 18 16 12 12 11 10 10 10 8 7 6 4 3 3 4 4 6 6 7 7 6 4 3 2 3 5 5 7 9
3 2 3 3 5 6 2 13 13 11 11 7 4 2 6 11 9 7 8 10 18 17 16 14 13 13 10 10 10 9 8 6 4 3 3 4 5 5 6 6 5 4 4 3 2 3 5 6 8
1 3 3 4 6 8 7 10 5 4 9 6 7 1 6 15 11 7 7 14 17 20 17 16 14 12 14 14 13 12 11 9 7 6 4 4 4 4 4 5 5 4 3 3 2 3 5 5 6
1 3 3 3 4 7 9 12 12 12 5 8 14 2 5 12 12 11 11 16 17 20 17 18 16 14 10 16 17 16 14 12 11 9 7 6 5 4 3 4 5 4 3 2 2 2 3 5 6
1 3 2 4 4 6 11 10 14 18 10 10 8 11 17 12 16 16 17 18 19 20 20 19 17 17 15 12 19 19 18 15 13 11 10 9 8 6 3 1 4 3 2 1 2 2 3 4 6
3 3 6 5 2 4 10 8 16 12 20 19 17 17 7 14 19 20 23 22 24 23 22 22 20 19 19 17 14 22 21 19 16 14 13 13 12 9 6 2 1 2 1 1 2 2 3 3 4
5 5 4 12 15 10 8 11 10 11 7 19 17 14 7 16 18 17 21 23 23 25 23 24 22 21 23 23 18 17 21 21 19 17 16 17 16 13 9 6 3 1 1 1 2 3 4 4 5
3 10 13 10 17 8 6 13 11 18 29 24 22 17 15 13 18 20 20 22 22 25 26 26 25 23 25 26 22 21 18 19 23 21 19 21 19 15 13 10 7 5 3 2 3 4 5 6 7
3 7 11 15 24 20 16 14 12 21 30 26 22 18 16 17 15 17 21 22 21 25 28 27 28 25 24 28 26 24 23 22 22 24 24 24 21 19 17 15 12 9 6 5 3 4 6 7 7
6 12 18 20 25 18 14 17 8 17 26 26 19 16 13 17 18 24 23 22 26 23 25 30 31 29 25 28 30 29 28 27 26 25 23 24 24 22 22 20 16 12 10 7 6 6 6 7 8
11 7 8 16 14 6 4 4 6 16 11 11 9 9 15 22 20 16 13 22 24 26 26 27 30 31 31 31 33 34 33 32 30 26 26 28 28 27 25 22 19 16 13 11 10 8 8 9 9
3 1 3 7 5 0 3 9 7 12 15 17 21 21 20 21 21 23 16 12 6 20 20 22 32 34 34 33 34 34 36 36 34 33 33 33 31 30 28 27 23 20 18 15 13 11 11 11 11
4 3 4 9 12 0 3 10 9 11 15 17 16 9 27 26 29 30 30 31 25 11 1 5 5 29 36 31 37 36 35 36 36 35 34 34 34 33 33 31 27 25 23 20 17 15 14 14 13
4 5 4 6 6 9 8 9 12 25 15 17 30 29 30 33 32 32 30 31 29 26 20 14 21 11 9 30 34 35 32 34 35 36 37 36 36 36 36 36 32 31 28 25 22 19 17 16 15
4 3 7 7 7 6 7 10 18 21 26 28 29 30 29 29 29 33 32 31 31 29 27 29 27 22 18 8 13 25 33 37 38 39 39 39 39 37 39 39 38 36 34 29 25 22 21 19 18
6 6 8 7 7 7 8 14 13 22 21 24 23 26 30 30 32 34 35 34 34 34 35 32 30 29 26 22 14 14 20 34 42 42 43 41 40 38 37 38 41 40 38 33 30 28 25 22 20
4 3 4 5 7 5 3 7 5 8 20 24 26 27 29 29 31 34 36 37 37 37 35 36 34 32 29 30 27 17 14 14 25 41 39 41 43 42 40 39 39 42 42 39 35 31 28 26 24
4 3 5 7 6 2 6 4 5 6 8 13 25 29 27 28 29 31 34 36 36 35 30 29 33 34 33 32 32 29 27 28 24 22 40 45 47 46 43 41 40 40 44 43 39 34 31 28 27
7 5 7 8 4 2 4 2 3 8 8 9 18 26 26 22 25 27 29 30 29 29 31 27 27 30 30 29 27 27 29 33 29 28 27 40 49 49 46 44 43 41 43 44 42 38 36 33 30
6 6 12 4 4 2 6 7 1 3 3 7 13 22 22 26 19 22 24 27 30 27 28 29 30 28 27 26 25 25 27 32 37 34 30 32 43 50 49 47 47 45 43 44 44 42 39 35 32
11 6 4 5 2 5 5 4 4 5 9 11 13 16 18 22 13 20 22 28 27 26 35 30 31 28 26 32 32 30 32 31 34 36 35 31 38 48 51 50 49 48 45 44 44 43 41 38 34
4 2 3 4 3 4 13 4 6 9 15 15 16 18 16 20 12 16 19 22 21 27 33 30 27 25 28 29 32 34 32 34 36 39 38 35 34 42 49 52 51 48 45 43 44 45 42 40 35
4 3 4 1 4 1 4 4 2 6 5 14 17 23 18 19 14 18 21 23 25 30 35 27 20 26 28 35 34 34 32 35 37 43 42 40 33 35 44 50 52 50 46 42 46 47 45 42 38
3 3 4 3 3 5 6 4 4 6 7 11 19 25 25 10 17 19 23 29 34 34 38 26 27 35 35 32 33 33 32 36 41 38 39 39 31 34 38 45 49 49 44 40 47 48 46 43 40
4 3 2 2 4 5 4 6 6 3 12 22 37 42 38 22 21 23 25 26 29 28 18 25 31 32 29 32 27 31 35 37 38 36 36 35 33 32 29 41 47 48 46 43 44 50 48 46 42
3 2 2 4 6 3 3 9 8 14 29 34 30 29 22 15 16 21 25 27 25 18 26 31 32 32 28 31 35 37 38 34 36 37 37 40 38 35 26 29 45 43 45 43 46 50 49 47 45

GFSSGP_850_spd_030.txt.gz
Wind_Speed
3 3 3 2 4 3 2 3 2 4 1 5 4 7 5 5 2 3 2 4 6 10 13 13 11 8 7 8 7 6 5 5 5 4 3 3 4 5 7 7 8 10 10 9 9 10 11 12 12
2 3 3 2 4 3 4 3 4 4 6 5 6 15 3 3 3 3 3 5 6 6 11 12 11 9 8 8 7 7 6 6 5 4 3 4 5 6 7 8 8 9 10 10 9 9 11 12 14
3 5 3 4 2 1 3 4 4 4 6 4 5 3 10 5 7 2 0 2 7 8 9 10 11 11 10 9 9 8 6 6 4 4 4 5 6 6 7 6 7 8 10 10 10 9 10 12 13
4 3 3 4 2 4 4 4 2 2 3 3 3 3 4 6 2 1 1 3 7 10 9 10 9 10 10 10 10 9 7 6 5 4 4 5 6 6 6 5 4 5 7 9 10 10 11 12 12
6 3 4 3 4 5 6 5 2 0 1 6 2 2 4 9 5 3 2 4 9 10 9 9 9 7 10 12 11 10 9 7 6 5 5 5 5 6 5 4 4 3 3 4 7 11 12 12 12
3 2 4 2 4 5 7 15 5 4 4 9 1 2 5 7 9 5 7 6 9 6 9 8 7 9 11 13 13 12 12 10 8 7 6 5 5 4 4 4 3 3 3 4 6 8 12 13 13
4 3 3 3 4 6 3 11 7 5 9 2 1 1 3 10 11 8 8 10 9 13 13 13 12 10 12 13 15 14 14 12 10 9 8 7 6 4 3 3 3 3 3 4 5 7 9 10 12
2 4 1 3 2 6 6 12 5 12 6 10 6 2 3 10 15 12 11 13 15 15 18 17 16 14 12 10 16 16 16 14 12 11 10 9 8 7 4 3 2 2 3 4 5 6 8 9 11
2 4 2 4 2 5 7 7 5 12 8 13 6 12 15 12 18 15 16 22 20 19 21 20 18 17 14 12 10 14 18 17 15 14 12 11 10 9 7 4 3 2 2 3 4 6 7 9 12
3 3 7 5 1 4 8 3 11 9 21 16 16 13 12 7 18 20 22 24 24 23 23 23 22 20 17 15 14 12 15 19 18 16 15 13 13 12 9 6 4 2 2 4 4 5 6 7 9
5 5 4 4 8 8 6 9 3 6 7 13 18 19 17 10 17 20 22 20 22 22 25 25 24 22 19 17 17 17 14 18 21 19 18 17 16 15 13 10 7 4 3 3 4 6 7 8 9
1 10 10 7 5 10 6 8 7 11 20 23 23 21 23 13 14 20 24 23 25 28 29 28 28 27 23 21 19 19 18 15 18 21 21 21 19 18 16 13 10 8 6 5 5 6 8 9 10
4 4 8 14 20 23 18 16 8 22 19 19 16 13 15 8 10 21 22 26 26 28 30 32 33 32 29 26 22 21 22 21 18 16 21 25 23 20 18 16 14 12 10 7 7 7 8 9 10
7 10 18 20 23 17 6 7 0 11 13 16 13 17 15 17 17 5 5 13 21 27 30 29 39 36 34 32 27 25 24 23 23 21 20 21 25 23 21 19 18 17 14 11 9 8 8 10 11
9 6 9 7 6 3 3 4 5 7 6 11 15 18 25 28 24 31 33 24 10 4 12 19 23 37 38 36 33 31 28 27 27 24 22 21 21 23 23 23 22 20 18 15 14 12 11 11 11
4 4 4 5 13 5 4 7 8 16 17 16 24 29 31 34 33 31 32 32 28 18 10 2 6 19 26 36 39 38 36 31 31 30 27 25 23 21 22 26 26 23 21 20 19 16 15 13 13
6 2 2 9 9 5 2 7 9 21 7 26 29 29 29 32 33 31 30 30 31 30 23 19 11 2 10 12 18 33 38 37 36 34 31 29 27 25 24 25 26 26 26 25 23 21 18 17 16
3 3 4 4 6 8 7 6 16 25 29 27 29 28 30 31 30 29 28 28 27 27 28 26 23 20 13 4 6 7 17 30 36 36 36 34 31 31 30 27 26 28 29 29 28 25 23 21 18
2 2 5 5 3 5 3 6 10 18 26 24 26 26 27 29 27 28 29 29 29 28 28 29 26 24 21 21 16 9 7 9 20 35 36 37 38 35 34 31 29 29 31 33 31 29 27 25 22
2 3 5 5 5 3 4 6 6 12 12 20 23 24 23 24 27 28 30 31 32 32 31 30 29 26 23 23 23 21 18 10 10 14 29 36 39 40 40 36 34 33 32 34 35 34 33 30 26
3 3 2 5 6 2 1 3 5 6 18 19 17 18 19 20 23 26 29 31 31 33 32 30 27 26 27 27 24 21 18 13 14 11 11 22 33 40 43 43 40 36 35 35 37 37 36 34 31
4 1 2 5 5 3 5 4 5 5 6 10 15 14 14 15 18 22 25 28 27 29 30 28 27 24 23 25 25 23 21 22 22 22 22 18 19 29 44 47 46 43 40 37 37 38 38 36 35
6 3 5 4 5 2 3 2 3 5 5 5 9 12 16 10 13 16 20 24 23 28 32 29 29 23 21 24 27 26 24 25 26 27 28 27 23 22 26 43 51 50 46 41 38 38 40 40 38
5 4 4 4 3 0 5 5 4 1 3 2 7 10 12 12 8 12 16 20 24 28 32 34 25 21 19 23 25 29 33 33 32 31 33 34 33 31 28 28 37 54 53 47 41 39 39 41 41
10 6 4 3 3 6 3 1 1 6 4 3 8 18 16 16 7 11 14 18 23 27 30 32 32 26 24 26 28 32 31 29 29 30 33 37 39 35 35 33 31 39 55 52 46 43 41 41 43
3 3 4 4 3 5 8 4 4 7 9 7 9 18 21 20 5 8 10 14 18 23 20 24 24 23 25 31 35 35 28 26 26 29 32 36 39 34 32 33 31 34 43 55 51 46 43 42 42
3 3 2 0 2 1 3 2 6 5 3 3 15 20 16 22 6 6 11 15 20 21 19 18 18 21 25 31 35 35 30 28 31 31 32 36 35 32 36 33 33 31 37 47 56 51 47 42 42
3 1 3 3 3 5 5 4 5 7 4 5 14 17 18 17 4 9 15 20 25 27 27 25 25 26 28 32 30 34 35 38 40 39 35 32 35 36 39 35 33 29 32 43 50 56 51 44 44
5 3 4 2 4 4 4 6 6 7 3 10 18 25 28 20 10 15 21 24 25 23 19 21 27 32 35 28 28 32 36 37 36 37 34 30 34 38 36 37 32 28 28 40 50 54 54 47 41
2 2 4 4 5 2 3 8 8 5 19 25 24 22 19 15 16 21 25 25 28 28 28 25 29 30 26 24 31 37 34 30 35 35 31 31 35 36 38 34 33 31 26 34 47 53 54 49 44

GFSSGP_850_spd_033.txt.gz
Wind_Speed
5 6 7 5 4 5 3 2 2 3 2 1 3 4 4 4 3 3 3 2 4 8 11 13 11 10 10 10 9 7 6 6 5 4 3 2 3 5 6 6 8 8 8 8 9 9 8 10 11
5 7 5 3 5 4 5 3 3 4 3 5 8 12 2 2 3 1 2 3 5 5 11 12 11 10 10 9 9 8 6 6 5 4 3 3 4 5 6 6 7 8 9 8 9 9 9 9 11
5 6 3 4 3 0 3 3 5 2 2 3 3 2 4 2 4 0 2 1 6 6 9 11 11 10 10 9 10 9 8 6 4 4 3 4 4 5 6 6 6 7 9 10 10 10 10 10 10
5 3 4 4 2 3 2 5 5 2 3 4 1 1 2 4 1 0 1 3 4 5 8 7 10 10 10 9 10 9 8 7 5 4 4 4 4 4 5 5 5 4 6 9 11 11 11 11 11
4 4 4 3 4 5 5 5 5 5 4 7 3 1 3 4 6 3 2 1 2 5 7 7 6 5 7 10 11 10 9 7 6 5 5 5 4 4 3 4 4 4 5 7 9 11 11 11 11
3 3 4 1 4 5 6 12 4 6 5 5 1 1 4 5 9 7 5 0 2 1 4 5 3 4 7 8 11 11 10 9 8 6 5 5 4 3 3 3 3 3 4 6 8 12 12 12 12
4 3 3 2 3 4 3 11 3 6 7 4 7 1 3 5 8 8 5 3 4 5 4 1 3 5 6 8 10 13 12 11 10 8 7 7 6 4 3 2 2 3 3 5 7 9 11 12 13
2 4 2 3 3 5 2 9 2 8 7 13 7 3 4 13 10 8 8 7 9 9 9 10 10 9 8 8 9 12 14 14 13 11 10 9 8 7 5 3 2 2 3 4 6 8 11 12 14
2 4 2 4 4 4 6 7 3 10 7 18 5 10 12 16 9 13 13 15 15 16 16 15 15 14 11 9 9 8 10 15 16 14 13 11 10 9 7 5 3 3 3 4 5 7 9 11 13
3 3 6 4 2 3 8 5 12 7 19 7 19 16 18 13 7 16 16 18 18 18 17 18 19 17 15 13 9 8 8 9 16 17 16 13 12 11 11 8 6 5 5 5 5 6 7 9 12
2 4 3 2 4 5 6 8 3 8 8 19 20 25 18 13 9 18 20 17 20 24 22 18 20 20 20 18 14 10 8 9 9 16 17 16 15 14 14 12 9 8 6 6 6 7 7 9 11
3 6 6 5 5 10 5 10 7 8 15 23 12 9 8 5 2 10 15 15 20 21 27 30 30 28 26 24 21 17 14 11 11 7 14 19 18 17 16 15 12 10 8 7 7 8 9 10 11
2 4 7 12 22 20 13 5 5 13 20 21 21 22 24 21 18 7 5 10 17 23 25 25 33 34 34 32 28 25 21 18 14 12 12 13 15 18 19 18 17 14 12 11 9 9 9 10 11
5 10 15 12 15 2 3 2 1 19 9 20 23 29 28 29 28 21 17 17 8 5 11 18 25 29 34 37 35 32 29 28 24 20 16 14 13 13 18 19 19 18 16 14 13 12 11 11 12
6 6 7 3 10 4 1 3 7 25 15 27 31 33 32 31 28 30 28 28 24 21 15 5 10 17 23 31 37 37 35 33 30 27 24 22 18 15 14 16 19 19 18 18 17 16 15 14 14
4 4 4 3 12 7 4 5 18 23 21 27 29 30 30 30 29 27 26 26 26 24 25 22 14 5 8 20 28 31 33 34 33 33 30 26 25 22 19 17 17 17 19 21 21 20 18 17 16
6 1 1 9 5 4 6 4 19 23 33 27 26 27 28 29 29 28 26 26 26 25 24 24 24 22 11 9 5 16 24 27 28 31 33 32 30 29 27 25 21 18 19 22 23 23 22 20 19
3 3 2 4 6 7 8 5 7 18 29 24 23 24 26 26 26 25 25 26 26 25 24 24 24 23 20 17 10 8 5 11 21 25 26 33 34 34 33 31 28 24 23 23 25 26 25 24 22
2 2 4 5 1 4 7 6 4 11 21 20 19 20 22 22 21 22 24 25 26 27 28 28 26 26 24 23 18 15 15 9 7 8 17 24 31 37 38 36 33 31 30 29 25 25 28 28 26
1 3 5 4 2 3 6 5 4 6 8 13 14 15 15 16 18 20 22 24 27 28 29 29 28 27 25 24 24 21 15 11 9 7 6 10 17 28 34 38 39 38 36 33 31 29 29 30 30
3 4 2 5 4 5 8 3 3 1 8 8 8 8 8 10 13 16 19 22 24 27 29 30 31 27 24 24 25 22 20 20 18 15 12 11 12 12 21 31 36 41 43 40 38 33 33 32 33
3 2 2 4 5 2 3 4 6 4 2 3 4 3 2 3 6 9 13 16 20 24 27 29 30 31 28 23 23 24 25 26 25 24 23 22 20 17 16 16 25 35 44 46 44 39 37 35 35
6 4 5 2 3 3 1 3 3 7 3 1 4 7 5 4 4 6 9 12 16 21 25 28 29 32 31 28 23 22 26 26 26 26 25 23 23 23 22 22 21 22 35 43 47 48 44 40 39
6 3 5 4 3 1 4 4 5 5 6 2 3 13 12 11 9 5 7 10 14 19 22 25 27 28 30 28 22 23 27 29 25 22 19 21 24 24 25 23 24 24 24 28 39 45 50 47 44
10 7 4 4 3 5 2 1 3 6 6 6 2 11 9 18 13 9 9 11 14 18 20 20 22 21 22 24 25 27 31 30 22 19 23 26 27 28 27 26 25 24 25 27 29 36 44 51 50
3 3 4 4 3 5 5 5 2 6 10 5 8 9 14 19 13 10 11 13 16 19 20 20 19 23 26 28 30 32 31 28 26 27 27 30 27 27 26 25 26 26 27 26 29 32 38 44 52
0 2 2 0 1 1 4 4 2 4 5 3 10 12 18 18 11 9 11 15 21 23 23 23 19 23 28 29 28 28 31 34 34 33 30 28 29 26 22 24 29 27 25 27 27 32 36 39 45
2 3 1 3 3 5 5 5 5 11 7 5 10 19 19 19 13 11 16 21 25 29 31 30 30 35 35 36 34 27 30 32 36 35 32 30 29 22 22 26 28 29 28 25 24 29 34 37 42
4 1 4 3 3 4 4 6 5 10 7 4 10 13 12 17 17 18 23 29 34 34 35 36 35 33 34 34 32 31 35 37 35 36 35 36 31 27 29 26 28 30 27 25 25 26 30 37 40
2 2 3 4 3 1 3 8 3 10 13 3 14 21 21 19 26 30 32 36 36 37 32 32 33 32 34 36 32 35 34 32 31 34 32 31 29 30 27 32 32 30 29 28 25 26 26 33 39

GFSSGP_850_spd_036.txt.gz
Wind_Speed
7 8 9 4 4 5 2 3 2 3 4 2 1 1 3 3 3 2 4 2 2 9 10 11 9 8 9 8 8 6 4 3 2 2 2 1 1 3 4 4 6 6 6 6 5 6 7 9 10
7 8 5 3 5 4 5 4 3 4 1 3 3 5 3 1 1 2 3 2 3 5 9 10 10 8 8 8 8 6 5 4 3 3 3 2 2 4 4 4 5 6 6 6 6 5 6 8 9
6 7 4 4 3 2 3 4 6 5 1 0 1 2 1 1 0 2 3 3 3 5 8 9 9 8 8 8 8 7 6 5 3 3 3 2 2 3 4 5 4 5 5 6 6 5 5 7 8
7 3 5 5 2 2 2 5 4 7 4 3 1 2 2 1 2 1 2 5 3 4 7 7 7 7 7 7 8 7 6 6 4 3 3 3 3 3 4 5 4 6 6 7 8 7 5 6 6
4 3 4 3 3 3 3 5 6 4 5 8 2 2 3 3 3 1 2 5 6 4 5 4 5 3 3 5 7 7 7 7 5 4 4 3 3 2 3 4 4 4 5 7 8 9 6 7 7
3 3 5 1 3 5 5 10 2 6 8 9 7 5 4 7 4 4 2 2 4 6 4 5 4 1 2 4 5 7 8 8 7 6 5 5 4 3 2 3 3 4 5 5 8 9 8 7 8
5 3 3 2 2 4 3 12 4 6 12 6 8 3 5 13 10 5 3 2 1 2 3 4 3 1 1 4 5 6 9 10 9 8 7 7 6 4 3 2 3 3 4 5 8 11 4 7 10
3 4 3 2 1 3 6 9 4 8 4 16 11 4 5 21 13 7 7 5 5 3 3 4 3 4 3 5 6 5 8 11 11 11 10 8 8 7 5 4 3 3 3 4 6 8 11 11 10
3 4 0 2 3 3 6 6 3 9 6 7 12 13 15 13 5 7 10 9 10 11 10 10 10 9 8 7 6 5 4 5 10 13 13 11 10 9 8 7 5 4 4 4 5 7 11 14 11
5 3 3 3 2 3 7 5 10 5 14 11 21 17 10 8 2 9 10 12 13 15 15 16 17 18 16 13 10 7 5 4 5 9 14 13 12 11 11 10 8 7 6 6 6 7 8 9 11
2 3 3 2 4 5 7 8 9 9 6 13 10 13 12 4 5 7 7 6 12 16 18 19 22 22 21 21 18 16 11 10 8 7 9 12 14 14 13 12 12 10 8 8 7 7 7 8 9
2 1 1 4 6 10 7 10 17 23 7 13 18 19 15 15 11 8 1 6 8 13 17 20 23 26 26 25 25 23 20 18 16 14 12 15 15 16 16 14 14 13 11 10 8 8 8 9 10
1 3 7 10 14 7 4 14 14 17 14 16 19 22 26 26 26 21 18 11 5 7 11 18 22 25 25 28 30 29 26 24 22 18 17 15 15 16 18 17 16 15 14 13 11 10 10 10 11
4 7 11 6 7 11 4 11 6 11 13 19 22 26 26 26 25 23 21 23 18 13 9 10 16 18 22 24 28 32 32 30 29 25 22 20 18 16 16 18 18 18 17 15 14 13 13 12 12
4 6 5 6 8 4 2 7 9 4 17 22 25 26 26 27 25 28 26 25 24 23 19 15 13 9 11 16 19 24 30 32 32 30 26 25 23 21 18 18 19 18 17 18 18 17 17 16 15
4 5 3 3 11 7 4 2 10 9 17 22 24 26 26 26 26 25 24 23 23 23 24 23 20 16 14 12 10 16 19 23 28 32 31 30 29 27 26 21 19 17 18 19 19 20 20 19 18
7 1 2 6 8 2 7 2 7 10 19 20 20 21 22 22 23 23 23 23 23 24 23 22 21 20 18 14 13 12 10 11 19 25 28 30 30 31 31 30 25 23 21 20 20 21 22 22 21
1 1 2 4 5 9 7 4 3 9 15 15 16 17 18 19 20 19 20 21 23 24 25 26 25 23 19 15 11 9 8 9 9 9 15 24 28 31 31 33 33 30 28 27 25 23 22 24 23
2 1 3 4 1 6 3 5 2 5 9 10 11 12 14 15 14 15 17 20 22 24 26 28 28 29 29 27 23 17 13 11 9 9 9 9 15 23 29 33 33 34 34 31 30 29 25 24 24
1 2 4 3 3 5 4 3 2 2 1 4 6 7 8 8 10 13 15 19 22 23 26 27 29 30 31 32 31 27 22 17 14 13 12 11 10 12 17 23 30 35 35 37 35 34 33 30 27
2 3 2 3 4 5 6 2 5 3 3 2 1 1 2 4 7 9 12 16 17 21 24 26 29 31 33 31 29 27 24 23 22 20 18 17 16 15 15 15 18 28 34 37 38 39 39 38 34
3 2 1 2 1 3 4 5 5 5 4 3 3 4 5 6 6 7 9 11 14 17 20 22 23 23 24 25 25 24 24 26 26 23 21 20 19 18 17 18 19 18 19 28 36 39 44 42 42
6 2 2 1 4 2 2 2 5 6 4 3 3 7 6 8 10 13 11 12 14 18 20 22 23 23 25 26 26 26 24 26 28 26 20 17 19 19 19 19 18 18 21 23 24 29 38 43 43
4 2 5 4 3 1 2 4 4 6 7 4 0 7 5 8 12 15 14 14 14 16 18 21 21 22 24 23 24 25 28 30 30 26 22 20 23 24 24 24 23 21 19 20 23 24 27 34 41
8 6 4 5 4 5 1 0 7 7 8 8 3 3 9 10 16 14 12 14 16 18 21 24 24 27 25 24 28 31 30 28 30 29 26 26 27 27 26 24 23 23 23 23 22 24 27 29 34
4 4 4 4 3 5 4 6 5 7 16 10 3 5 9 10 11 12 10 14 17 21 24 27 29 29 28 29 33 33 31 31 32 31 29 30 29 25 24 23 23 22 24 23 24 27 28 30 32
1 4 3 2 1 1 3 6 3 3 6 8 3 8 8 7 12 13 13 17 21 28 32 38 37 37 36 36 36 36 35 35 32 33 35 36 31 26 26 21 20 22 24 24 23 26 29 29 32
3 4 2 3 3 5 5 6 5 10 11 7 5 8 12 11 13 16 18 25 31 36 40 36 38 35 37 38 37 38 38 38 39 39 40 34 32 28 23 22 21 23 23 24 22 24 25 29 29
3 1 4 3 4 4 3 6 5 14 14 8 8 9 16 17 17 23 29 37 41 40 40 41 42 41 39 40 42 41 46 45 42 42 36 31 32 30 28 23 21 22 23 24 25 26 26 26 30
1 2 4 4 4 1 3 8 4 7 18 11 6 19 25 15 23 31 39 40 39 40 42 44 46 46 46 49 48 48 45 46 41 37 36 31 31 30 27 24 24 26 27 25 23 25 27 27 27

GFSSGP_850_spd_039.txt.gz
Wind_Speed
6 8 8 3 3 4 2 3 2 4 2 1 1 1 3 3 3 4 3 2 1 8 11 10 9 8 8 9 9 5 3 3 2 1 1 1 3 4 3 4 5 3 5 5 4 5 7 8 9
6 7 3 3 4 3 2 3 4 3 3 3 3 3 4 3 3 4 5 4 3 8 10 10 8 7 7 7 7 5 4 3 2 2 3 1 1 3 4 4 4 5 2 4 4 4 6 7 9
6 6 3 4 3 2 1 2 4 4 3 4 2 3 2 3 3 3 5 5 4 6 8 8 7 6 6 6 7 6 4 3 3 3 3 2 1 3 3 3 3 4 4 3 4 2 6 5 6
6 3 6 4 3 1 1 6 6 6 5 13 5 2 3 5 3 4 6 7 6 5 6 6 4 4 3 3 3 4 3 3 3 3 3 2 2 1 3 4 4 5 5 5 6 6 4 4 4
4 3 4 3 1 1 2 5 5 6 6 9 7 5 4 11 7 4 6 8 10 7 5 3 3 2 1 2 3 3 3 4 4 4 4 3 2 2 3 4 4 3 5 7 6 8 5 6 4
3 3 3 1 2 2 2 10 3 8 9 11 5 5 5 14 9 3 4 6 8 10 9 7 6 4 4 5 4 3 5 6 6 6 5 4 4 3 3 3 3 4 5 6 7 8 6 5 5
4 3 2 2 2 3 4 9 5 6 8 9 7 4 1 14 12 0 6 6 5 6 7 6 6 6 6 6 5 2 5 7 8 8 7 6 6 5 4 3 4 4 5 4 7 11 6 5 9
3 4 2 0 2 2 7 6 7 9 7 10 9 6 5 18 11 3 8 8 6 5 4 4 3 2 2 3 5 4 4 5 8 9 9 8 8 7 6 5 5 4 5 5 5 12 12 10 10
3 3 1 1 2 1 5 8 6 6 9 13 11 10 10 9 4 4 8 9 7 7 7 7 8 8 7 7 7 6 6 6 7 10 11 10 9 9 8 8 7 7 6 6 6 7 11 12 13
5 3 2 2 2 1 4 7 7 4 12 9 12 13 8 3 2 4 5 5 7 8 10 11 12 14 12 13 13 11 8 6 7 8 9 11 11 10 10 9 9 8 8 8 8 8 8 10 11
2 2 2 1 1 3 3 7 8 2 7 9 12 17 15 8 6 5 1 2 6 9 11 14 15 16 17 17 17 17 15 13 10 10 11 11 12 13 12 11 11 11 10 10 9 8 8 8 9
2 2 0 4 6 7 3 8 10 15 5 8 13 17 17 18 16 14 10 5 3 8 12 15 18 20 20 21 22 22 22 19 18 15 13 13 13 14 14 13 13 13 12 12 11 10 10 9 10
2 2 5 8 7 16 20 17 11 11 11 12 14 15 21 21 21 19 18 15 11 7 8 11 14 18 20 21 22 24 26 25 23 22 19 17 14 13 13 13 14 15 15 14 13 13 12 12 12
0 4 8 3 6 10 13 5 6 8 10 12 13 18 19 20 21 20 19 19 19 18 17 15 13 11 10 16 18 19 21 26 27 26 25 23 22 19 16 14 11 13 15 16 15 15 15 14 14
1 3 2 10 6 6 11 7 6 6 10 15 17 18 19 21 21 23 22 22 21 21 20 20 19 17 15 13 9 13 17 20 21 24 25 27 28 27 25 22 21 16 13 15 17 17 18 17 17
3 4 1 4 9 2 11 1 3 3 9 15 16 17 18 20 20 21 21 21 21 21 21 20 21 21 19 16 13 10 7 14 20 24 26 27 26 29 31 30 28 25 21 20 18 18 18 19 19
6 0 1 2 8 3 8 3 3 6 8 12 12 13 15 16 17 19 20 20 21 22 22 22 22 21 20 19 17 14 11 10 9 12 17 22 26 30 32 34 33 30 28 26 25 22 20 19 19
1 0 2 2 4 7 5 5 5 7 9 9 9 10 11 12 13 15 16 17 19 20 21 22 23 23 23 19 16 14 14 14 14 12 12 13 16 21 26 30 33 33 32 31 30 28 25 23 22
4 2 2 2 2 3 2 6 8 8 6 6 7 7 7 8 8 9 11 13 14 17 20 23 24 27 28 29 29 26 21 17 15 16 17 16 16 16 17 20 25 29 34 33 33 33 32 29 27
2 1 3 1 3 1 3 5 7 10 6 7 6 4 2 2 3 5 7 10 13 16 18 21 23 25 27 28 29 27 25 23 21 19 19 20 20 19 18 19 19 20 26 33 34 36 37 35 33
1 2 2 1 2 3 4 4 8 7 6 8 7 5 4 3 4 5 6 8 10 12 15 17 17 17 19 21 22 23 23 23 24 24 22 21 22 22 20 20 20 20 20 23 30 34 38 40 38
1 2 1 2 1 2 1 5 5 8 8 8 9 7 7 6 7 10 11 10 10 11 14 17 19 19 19 20 24 24 23 26 26 26 25 24 21 22 23 22 21 19 20 21 21 22 33 35 40
2 2 1 1 2 1 2 3 1 8 10 10 9 4 3 3 6 12 13 14 13 14 17 20 22 22 21 24 24 24 24 26 28 28 28 26 23 24 24 25 25 24 22 21 21 21 22 24 31
1 3 4 3 2 1 2 5 4 7 10 10 7 4 2 5 9 11 12 13 14 16 19 24 26 27 30 31 27 30 29 32 34 33 32 30 30 28 27 28 27 26 25 23 22 21 22 24 25
6 3 2 1 0 2 3 4 8 6 6 13 12 4 1 3 7 9 10 11 14 18 22 27 31 34 34 33 32 30 33 35 36 35 35 36 35 33 32 29 30 28 26 26 25 23 22 23 26
2 1 3 4 3 3 3 5 2 3 13 15 11 4 1 2 4 7 10 12 14 19 25 32 34 35 34 35 34 33 34 37 37 35 34 34 36 37 38 33 28 29 28 29 27 26 25 24 25
2 2 1 4 1 1 2 5 4 5 8 10 9 3 3 5 9 9 10 12 21 28 34 36 37 38 38 38 39 38 37 37 38 36 37 39 40 41 37 33 30 29 29 30 29 29 27 26 26
1 4 1 1 1 3 3 6 6 10 16 13 13 10 7 11 11 11 17 23 30 34 39 40 39 41 42 42 41 40 42 43 45 43 47 47 45 42 36 31 30 29 29 30 31 30 29 28 28
2 1 4 3 1 3 3 6 5 11 16 18 20 13 10 17 13 17 23 30 34 39 41 40 41 40 40 40 40 40 45 40 33 40 43 40 40 37 32 31 28 26 29 28 28 30 31 30 29
0 2 3 3 4 1 1 8 2 6 10 15 19 14 15 18 18 23 31 33 38 41 40 39 36 37 38 39 38 39 41 33 40 44 35 40 37 30 29 27 30 28 25 27 30 32 33 30 29

GFSSGP_850_spd_042.txt.gz
Wind_Speed
8 9 5 2 2 4 7 5 2 7 7 7 5 8 10 13 12 5 3 2 1 9 10 8 8 7 8 6 7 4 3 2 1 2 3 3 4 2 4 4 3 3 3 4 5 4 7 7 7
7 8 4 1 1 4 7 4 9 7 6 4 2 3 8 11 9 6 5 3 4 8 10 9 7 5 6 8 7 3 2 1 2 3 4 2 1 3 5 3 3 2 2 2 4 5 6 5 6
6 5 2 2 3 7 6 7 6 6 7 6 3 6 6 9 10 5 4 6 6 8 9 7 5 4 4 3 3 3 2 2 3 4 4 3 2 2 4 2 3 3 3 4 3 4 3 4 2
6 1 1 2 9 8 7 8 8 4 6 10 5 6 9 13 6 5 6 7 7 8 7 4 3 1 1 0 1 1 2 3 4 5 5 4 3 2 2 2 4 3 4 5 7 4 4 3 2
3 1 2 4 8 6 9 9 11 9 4 10 8 6 7 12 9 5 6 7 6 7 7 4 5 3 3 2 2 3 3 3 4 6 6 6 5 4 4 4 5 5 4 6 6 7 5 4 3
0 1 2 3 6 5 10 9 8 10 7 10 5 2 7 12 8 4 6 6 7 6 7 5 7 6 3 1 3 3 4 5 6 7 7 7 7 6 6 5 5 5 5 6 6 9 7 8 7
2 2 3 3 4 7 7 4 10 6 8 10 7 1 4 12 13 4 5 6 6 6 6 5 2 2 2 2 4 3 4 6 6 7 7 6 7 6 6 6 6 6 5 5 6 10 11 8 10
2 1 3 2 2 6 5 4 5 9 9 2 9 5 3 18 11 4 5 5 5 4 4 3 3 2 2 4 5 4 4 5 6 7 8 8 7 7 7 6 6 6 5 5 6 10 12 11 11
3 1 2 3 2 6 3 4 6 5 7 12 11 9 10 11 7 4 5 4 3 1 1 3 5 5 6 6 7 8 6 6 7 6 7 9 7 9 8 8 8 7 6 5 5 9 11 13 14
2 1 3 3 5 3 2 3 5 1 5 9 11 11 10 8 7 6 5 3 2 2 5 5 7 9 9 11 8 8 8 6 6 6 6 6 9 10 11 11 10 10 10 8 7 7 9 10 10
2 2 3 6 5 2 2 4 4 3 8 9 9 11 11 10 10 10 9 7 4 4 6 10 13 15 14 15 15 12 11 9 9 9 9 8 9 11 12 13 13 12 12 12 11 10 9 10 11
2 4 4 5 4 3 3 6 7 12 6 5 7 9 11 13 14 14 13 12 11 9 8 10 12 13 15 19 20 19 17 15 12 12 12 11 11 11 11 12 13 13 14 14 14 13 13 12 11
1 3 5 6 11 11 13 11 8 10 6 6 7 9 12 13 14 14 14 15 15 15 14 14 12 10 8 8 14 15 19 18 18 18 15 17 18 15 14 14 14 14 14 14 16 16 16 15 14
3 2 4 7 8 11 7 5 1 5 5 6 7 10 11 12 13 13 14 15 16 16 17 17 17 17 14 11 8 14 17 18 17 17 19 19 20 21 23 18 17 18 16 15 16 17 18 18 18
2 3 7 6 5 4 9 5 5 6 5 6 7 9 11 11 12 14 14 15 15 16 16 17 18 18 17 16 13 10 9 13 17 20 22 22 22 23 27 29 25 18 17 20 17 18 20 20 20
2 3 5 4 2 2 10 2 8 6 7 6 7 8 9 10 11 12 12 13 14 14 16 17 18 18 18 17 15 13 13 12 11 12 14 19 24 27 31 31 34 31 30 27 26 23 22 21 20
3 6 4 5 3 1 3 1 9 8 9 8 8 7 8 8 9 10 10 11 12 12 13 14 16 17 17 16 15 14 13 13 12 12 13 15 16 17 21 27 31 31 30 30 29 27 27 22 20
3 5 3 5 2 3 3 4 9 10 11 10 9 8 7 6 6 6 7 8 9 10 11 13 14 17 17 15 15 14 14 14 14 15 15 16 16 18 18 18 20 24 28 33 29 27 23 27 20
2 3 5 2 1 4 2 5 10 13 12 12 10 9 8 5 3 2 3 4 6 8 10 12 14 16 16 16 18 18 18 17 16 16 19 20 20 20 21 18 19 19 22 23 29 31 28 27 22
3 5 6 1 0 4 4 10 10 15 14 14 13 11 8 5 3 2 2 3 4 6 8 10 13 15 16 16 18 18 18 18 19 17 18 18 19 20 20 17 17 16 17 19 22 28 31 30 30
4 7 4 3 1 2 7 9 12 15 13 14 13 11 9 8 6 5 6 6 6 7 9 10 12 15 16 15 17 20 20 20 20 19 20 19 21 20 19 18 18 18 17 17 17 19 25 33 28
6 2 1 3 4 5 2 5 8 13 15 17 17 14 11 9 8 7 9 10 11 10 11 11 13 17 17 18 21 24 25 26 24 24 23 23 21 20 19 20 21 21 20 20 18 17 17 21 31
3 1 3 4 6 6 6 5 4 9 14 16 19 15 12 10 8 7 8 10 10 11 13 16 15 20 21 24 25 25 26 27 28 27 28 26 25 23 22 22 22 23 23 22 22 20 18 19 21
3 3 1 1 3 5 5 4 4 6 8 13 18 15 12 10 8 6 6 7 8 9 13 15 21 23 26 27 27 27 29 30 32 31 32 32 29 27 26 25 23 24 25 24 24 23 22 20 21
4 5 3 4 4 3 4 5 9 3 6 11 19 16 13 9 5 4 6 8 10 11 15 19 24 28 28 29 29 29 30 30 32 32 33 34 33 31 29 28 27 26 25 26 25 25 25 23 22
0 3 4 5 4 4 3 6 0 1 5 11 16 14 10 7 5 6 8 10 12 15 19 25 27 30 30 29 29 29 30 31 32 31 32 33 32 32 31 31 31 31 29 27 27 26 27 25 24
4 4 3 3 1 4 3 5 7 4 9 14 16 14 10 6 5 9 10 12 15 19 24 27 29 31 30 30 31 31 31 31 32 32 33 35 35 35 34 34 34 32 30 28 28 28 28 28 26
4 3 3 3 4 5 4 6 8 9 13 13 16 18 13 7 6 10 12 15 19 23 27 27 29 31 31 31 31 32 32 32 32 33 34 32 32 33 34 35 35 34 31 29 28 28 29 29 29
3 3 2 3 4 4 7 4 3 1 5 12 17 18 16 12 10 11 14 19 23 25 27 29 30 31 32 32 32 32 33 33 33 34 34 32 35 36 34 34 32 31 31 29 27 28 30 29 28
3 3 5 4 4 3 4 9 3 2 3 6 11 14 17 15 12 14 18 22 25 27 29 30 31 31 30 32 33 34 34 34 35 35 35 35 35 34 33 33 31 30 30 29 27 27 28 29 29

GFSSGP_850_spd_045.txt.gz
Wind_Speed
9 8 4 3 5 3 11 4 12 12 10 11 11 9 18 22 16 5 3 4 5 10 7 5 6 5 5 6 2 2 1 1 3 4 5 2 1 1 1 1 3 2 3 5 7 9 10 8 8
8 6 3 6 4 3 7 11 9 9 8 3 8 8 17 18 15 11 5 6 7 8 6 6 3 3 4 6 6 2 2 3 5 6 6 4 3 1 1 1 3 1 1 1 4 6 5 6 6
7 4 6 3 5 10 9 8 7 6 9 11 4 12 11 11 13 11 8 8 8 7 6 5 1 2 1 2 0 2 2 4 6 8 9 7 5 3 4 5 1 3 3 3 1 3 4 3 2
4 3 6 1 11 10 10 7 6 3 7 9 8 13 12 14 7 6 7 8 7 6 5 2 2 2 3 2 1 2 2 2 4 6 7 7 6 6 5 5 6 7 4 4 4 2 3 1 2
4 5 3 5 9 10 8 6 7 6 3 9 11 13 14 14 9 6 7 7 6 6 4 3 3 2 2 0 2 3 2 3 3 4 5 5 5 4 5 6 6 6 5 5 4 6 5 5 3
5 4 3 5 9 7 8 6 6 6 5 11 5 5 10 12 10 5 5 6 6 6 6 2 4 2 2 2 3 3 4 5 5 5 5 5 5 4 4 5 5 5 5 4 6 9 8 8 7
5 5 4 3 7 7 4 4 8 5 11 11 8 2 13 18 13 4 3 4 5 5 5 4 2 7 5 5 5 4 4 6 7 7 7 6 6 6 5 5 5 5 4 4 5 9 10 10 10
3 4 4 2 3 4 2 3 4 9 9 4 12 6 5 16 11 3 4 4 3 3 3 1 1 1 5 5 6 7 8 5 4 6 8 9 9 8 8 8 6 5 5 4 5 8 10 11 11
3 4 2 4 2 5 1 3 5 5 10 14 9 9 8 10 7 4 3 2 1 1 1 2 4 5 8 7 8 15 8 9 7 5 4 8 6 9 10 10 10 9 9 7 7 8 9 11 13
3 4 6 3 3 3 1 5 4 4 4 8 10 11 10 9 8 7 4 2 2 3 4 5 7 7 8 8 8 9 7 9 9 7 9 8 6 9 11 14 12 12 12 11 10 9 9 10 10
3 4 6 4 3 2 2 2 3 4 6 6 7 10 10 10 10 9 8 6 6 7 8 9 9 9 10 12 15 13 13 10 10 9 9 8 8 8 10 9 14 13 12 12 13 12 11 9 11
3 6 2 2 2 2 2 4 7 9 6 5 5 7 8 10 11 10 10 10 9 11 12 13 13 10 7 7 12 18 17 17 15 14 11 10 10 9 10 10 10 11 11 11 11 12 13 14 14
1 5 4 5 6 6 6 5 8 8 6 5 5 6 7 8 9 9 10 10 11 12 13 15 15 14 13 9 9 12 16 15 18 19 16 16 16 14 13 12 12 12 12 12 12 14 13 15 14
4 3 6 7 7 9 7 7 3 5 6 5 5 5 6 7 7 8 9 10 10 12 13 14 16 15 14 14 13 12 10 11 14 17 19 19 20 21 22 20 15 14 14 14 14 14 14 14 14
3 6 6 8 8 3 7 7 6 9 8 7 6 5 6 6 7 8 9 9 10 11 12 14 15 15 15 13 13 12 12 11 10 11 12 14 19 23 25 27 29 24 18 16 17 17 16 17 16
7 6 10 8 8 6 5 4 9 10 10 9 7 6 6 6 6 7 7 8 8 8 10 12 13 14 14 14 13 12 12 11 11 10 11 12 14 13 15 20 26 31 32 30 29 22 20 20 18
8 10 8 8 7 3 12 4 12 11 11 11 10 8 8 7 6 5 6 6 7 7 8 10 11 13 13 13 12 12 12 12 13 13 13 14 15 15 15 14 13 20 24 26 28 23 25 22 21
10 6 6 8 8 9 12 14 9 13 13 13 12 10 10 9 6 5 4 3 4 5 7 9 11 13 14 12 13 13 13 14 14 14 14 16 16 17 17 16 15 15 15 22 20 27 29 23 25
8 9 11 6 4 6 15 12 10 14 15 15 14 13 12 10 8 6 3 1 1 3 5 8 11 13 15 15 16 16 17 16 17 16 16 18 17 17 18 18 17 16 16 16 17 20 22 31 23
7 10 10 1 2 6 11 14 13 17 17 16 16 15 14 11 10 8 5 4 3 4 6 8 11 13 14 14 15 16 18 20 21 21 20 20 19 20 19 19 19 18 19 18 17 18 20 22 29
8 9 9 8 3 13 12 17 15 14 15 16 16 15 14 13 11 9 8 7 7 7 9 10 11 12 15 15 17 19 21 23 23 22 24 24 22 23 22 22 21 21 21 21 19 19 19 23 23
10 4 3 5 7 6 1 6 11 14 14 16 18 18 17 15 13 10 9 8 9 11 11 11 12 14 16 18 21 23 25 27 25 28 28 27 26 25 24 24 24 25 24 23 22 20 21 21 23
3 1 5 8 11 11 13 5 7 12 12 16 20 21 18 15 13 11 9 8 9 10 10 11 13 15 19 22 23 26 27 29 32 31 30 31 30 29 29 27 27 27 26 26 25 24 23 24 24
2 6 8 6 7 6 9 7 6 7 10 11 19 20 18 15 13 11 10 9 8 7 9 11 14 17 22 24 25 27 30 30 32 32 33 34 33 31 31 29 30 30 30 28 27 27 26 25 26
6 7 4 6 5 2 4 5 9 5 4 3 13 18 16 15 14 12 10 8 8 9 10 14 17 22 25 26 27 27 29 31 32 33 34 33 33 32 32 30 30 31 31 31 30 31 30 28 27
4 6 6 6 6 6 4 6 3 5 4 3 9 14 15 16 14 12 10 10 10 11 14 18 21 26 26 27 28 28 29 32 33 34 34 35 36 36 35 35 35 34 34 34 34 34 33 31 30
6 5 4 6 8 5 5 6 8 3 5 8 11 14 15 15 13 12 12 12 13 15 19 21 25 26 28 29 29 30 30 31 33 35 35 36 37 37 37 35 34 35 35 36 37 37 34 32 32
6 4 4 4 5 8 5 7 8 7 7 8 12 16 16 15 13 11 12 13 15 18 21 23 25 28 29 29 29 30 30 31 33 35 36 37 38 38 38 37 36 37 37 37 38 40 38 34 34
4 4 5 4 5 7 10 4 7 4 2 9 12 14 16 17 15 12 13 15 18 20 23 25 27 28 29 29 29 30 31 31 32 33 35 36 38 38 39 39 40 39 37 35 36 39 36 34 33
4 6 6 5 5 6 4 12 4 4 3 1 6 6 9 13 15 15 15 18 21 22 25 27 27 28 28 29 30 30 30 31 31 32 32 33 35 37 39 39 38 38 38 36 36 38 36 35 33

GFSSGP_850_spd_048.txt.gz
Wind_Speed
10 7 7 2 2 1 6 7 10 10 8 10 8 23 20 21 10 5 8 6 6 3 4 4 3 3 5 5 1 2 3 4 6 7 7 5 5 5 3 2 4 4 5 7 8 10 10 11 9
9 7 6 2 5 5 5 11 8 7 5 8 14 28 25 18 20 14 7 8 9 3 5 7 4 3 5 4 3 1 2 4 7 8 8 6 5 3 2 5 2 3 2 4 4 6 6 7 6
9 7 4 4 4 5 8 9 4 11 13 12 10 18 9 12 16 8 9 9 9 6 8 3 2 3 4 2 0 2 2 4 5 7 7 7 5 3 2 4 3 2 4 1 1 1 2 3 2
8 3 7 1 9 8 9 6 12 8 12 12 14 13 11 12 7 10 9 8 7 6 3 1 1 2 2 1 1 2 2 2 3 4 5 5 5 4 3 3 3 3 4 2 3 1 2 2 2
9 6 4 7 9 8 7 7 6 6 5 14 13 10 10 12 8 8 8 7 8 5 3 5 3 2 1 1 2 3 3 2 3 4 5 5 4 3 3 4 4 4 3 3 3 5 5 6 4
5 5 4 7 9 7 7 10 8 11 17 17 14 10 9 7 10 5 6 7 5 7 1 10 10 8 7 5 4 6 5 5 5 6 6 6 5 5 4 5 4 4 4 3 5 7 7 7 7
4 4 3 8 7 7 5 8 12 12 17 14 11 7 11 11 9 6 5 6 6 6 2 3 5 9 10 9 8 10 10 8 6 7 6 7 7 7 6 6 5 5 5 5 6 6 8 9 8
4 2 2 6 6 5 2 4 6 13 12 5 11 7 5 11 8 5 6 5 4 4 4 4 7 7 7 11 9 11 12 11 9 8 7 9 9 8 8 8 7 6 7 7 7 7 8 9 9
4 3 4 4 3 5 3 3 8 9 15 20 10 11 7 8 6 4 6 4 2 1 3 4 5 5 4 2 7 8 8 9 10 10 10 14 11 9 15 12 11 11 10 10 10 10 9 9 11
2 3 4 5 6 5 6 6 6 1 13 13 12 11 9 10 9 7 7 7 4 5 5 5 5 8 4 9 5 5 8 7 10 11 13 8 12 7 11 19 18 15 13 12 11 11 12 11 12
4 3 5 5 7 5 2 7 3 4 5 6 7 8 9 10 11 11 9 8 7 6 7 8 8 5 5 7 11 13 14 10 12 10 7 8 7 6 12 15 16 17 16 13 13 11 11 12 11
4 6 3 3 0 2 3 9 5 9 8 9 7 7 8 10 11 10 10 9 8 9 11 11 11 8 3 3 11 11 14 16 14 16 16 13 14 12 10 6 10 17 19 18 13 15 16 17 14
4 8 4 3 2 4 5 5 7 8 9 8 7 7 8 9 9 10 9 9 8 10 10 13 12 13 10 9 10 10 7 9 13 15 17 20 19 19 19 17 13 9 12 17 16 16 16 17 20
4 6 9 7 7 6 7 5 6 9 10 9 8 8 7 8 8 9 9 8 9 10 11 13 15 14 12 12 13 13 10 11 12 10 10 13 19 22 23 23 24 23 18 14 15 17 18 18 18
4 6 5 8 9 5 4 6 8 17 13 11 10 8 7 7 8 8 9 10 8 9 8 12 12 11 11 13 14 14 15 11 10 9 9 13 13 13 14 17 22 26 29 29 22 21 20 21 21
4 8 6 11 13 8 5 5 9 14 14 13 12 11 8 7 7 7 8 8 8 7 9 10 11 11 10 11 9 8 10 9 11 11 14 15 16 16 17 15 15 17 19 22 28 32 29 27 26
7 6 10 5 12 7 7 3 10 14 14 13 12 13 11 10 8 7 6 6 6 5 6 7 8 10 12 9 9 9 8 10 13 14 15 16 16 16 20 21 19 15 18 23 22 21 25 30 34
6 4 8 1 8 5 7 10 11 18 16 14 14 14 14 12 11 8 6 5 4 4 4 6 8 9 11 12 12 14 14 12 13 18 20 17 20 20 18 21 22 19 20 19 20 23 23 25 28
7 8 8 8 6 2 7 11 8 20 16 14 15 15 15 15 14 8 6 4 2 1 2 4 8 12 14 18 19 19 21 20 23 24 21 20 21 24 23 23 20 21 20 20 19 22 22 26 22
7 9 9 2 7 2 7 12 9 19 17 19 18 16 16 15 12 11 9 6 4 5 5 7 9 13 16 18 17 19 19 22 27 25 22 20 24 26 25 26 24 21 22 21 22 21 21 24 22
7 7 7 7 2 8 7 11 14 10 18 17 17 17 16 16 12 14 11 9 7 6 8 13 16 12 13 15 19 22 26 28 30 28 28 30 27 25 27 29 25 24 25 26 25 23 22 24 24
7 8 6 6 5 3 3 5 4 11 9 11 17 18 18 15 14 10 8 6 8 9 10 14 12 14 14 17 21 26 27 30 30 32 32 32 28 29 28 28 29 29 28 28 27 25 23 23 22
4 4 4 5 7 8 8 3 4 11 7 10 17 20 18 15 14 14 12 10 9 11 13 15 16 13 17 21 25 27 28 30 34 33 33 35 33 31 29 30 29 32 32 31 32 30 27 27 30
3 5 8 4 4 4 10 7 4 6 11 9 18 22 21 18 16 14 10 9 10 9 12 13 15 17 19 23 26 27 30 31 33 33 33 34 32 31 30 29 30 31 30 32 33 32 34 33 28
4 4 2 3 3 3 6 4 4 7 6 3 16 23 21 18 16 13 11 10 11 12 14 15 16 20 22 28 28 28 29 31 32 33 33 33 34 33 32 33 31 33 35 33 31 30 30 32 34
6 2 3 4 2 2 4 5 4 7 9 3 6 19 19 16 14 14 13 13 14 15 14 17 19 23 27 26 29 28 29 30 32 33 34 37 37 36 35 37 36 36 35 36 39 39 39 33 33
3 3 3 4 8 4 5 3 4 4 5 5 7 14 15 14 14 13 13 13 14 16 17 19 22 25 26 28 28 31 32 33 35 34 34 34 34 34 34 34 37 38 38 37 38 36 36 36 37
3 5 2 2 3 4 4 6 3 4 5 4 6 8 11 12 12 12 12 13 15 16 19 23 22 26 29 31 32 33 34 34 35 35 36 37 38 38 38 39 37 36 35 36 36 37 41 40 41
3 3 4 1 2 3 3 2 2 7 3 9 10 13 16 16 18 18 16 15 15 19 21 22 25 29 31 32 32 34 35 36 36 33 33 35 37 38 39 39 40 38 37 35 35 37 39 35 38
3 4 3 2 4 3 2 6 8 8 9 9 11 9 7 1 6 16 16 14 17 19 22 24 28 30 30 32 35 35 35 33 32 35 35 32 32 32 34 38 39 43 45 39 37 37 37 33 38

GFSSGP_850_spd_051.txt.gz
Wind_Speed
11 7 8 5 5 5 4 3 3 7 7 30 26 22 14 12 7 6 5 2 4 6 4 5 5 5 5 2 2 3 5 6 7 7 7 6 5 6 5 5 5 5 7 8 8 9 12 10 11
9 8 6 3 5 4 3 2 7 3 13 34 29 24 24 10 18 12 12 1 5 7 8 6 4 5 5 3 1 2 2 5 6 7 7 6 4 3 4 5 2 4 4 5 6 5 7 7 8
9 6 2 4 2 2 2 3 4 8 21 11 9 14 7 6 12 7 11 6 5 3 5 5 2 2 3 0 1 1 2 3 4 6 7 6 5 4 2 3 3 3 2 2 3 3 3 4 5
10 2 1 5 5 2 5 3 4 5 13 17 12 9 8 14 9 10 10 10 2 1 5 6 3 3 2 2 2 2 2 2 4 5 6 6 5 5 4 4 3 3 2 1 2 2 2 1 2
7 1 4 4 5 5 5 10 17 11 8 21 8 4 4 17 14 11 11 4 7 4 8 10 11 9 7 5 4 5 6 4 4 5 6 6 6 6 5 6 5 5 4 2 2 4 3 3 1
4 1 4 2 4 4 6 16 20 10 15 12 10 7 3 7 14 10 8 8 3 4 5 7 12 11 13 14 8 9 10 8 5 6 6 6 6 6 6 6 6 6 5 5 4 5 6 5 4
2 3 1 6 6 4 3 8 10 9 13 9 7 4 5 9 13 9 9 5 1 6 4 6 2 5 5 8 9 10 10 11 11 9 7 8 8 7 7 6 6 6 6 6 6 6 5 6 6
2 4 4 3 3 2 2 5 12 8 5 3 4 3 2 11 8 10 7 12 16 12 15 11 6 5 7 4 3 6 7 8 10 9 10 13 12 7 8 8 7 8 8 8 7 7 7 7 7
3 5 3 3 2 4 7 3 8 8 17 13 9 10 6 3 3 13 11 13 11 10 2 8 9 6 9 5 3 4 5 5 6 7 8 6 6 6 9 15 14 12 11 10 9 9 8 7 8
4 4 1 2 2 3 5 8 6 5 11 10 13 9 7 7 7 12 9 7 5 4 6 5 6 6 5 2 1 5 7 8 9 10 10 5 6 3 7 13 15 15 14 12 11 10 10 9 10
2 4 4 3 5 6 5 4 4 12 2 5 11 9 8 8 7 8 7 2 3 4 2 1 2 3 3 4 3 6 10 10 9 11 11 9 8 6 7 8 10 10 15 19 16 12 10 10 10
5 5 5 4 1 1 1 9 5 2 5 14 14 10 9 9 9 7 7 5 2 4 6 5 2 2 4 6 7 8 7 7 8 11 13 14 13 10 12 10 9 8 10 10 15 16 15 14 14
4 5 5 4 3 5 7 3 7 9 10 12 13 10 11 11 12 10 8 7 6 7 8 8 5 5 7 6 9 9 9 7 5 8 12 15 17 18 20 19 17 16 13 11 12 15 14 16 18
4 9 9 6 6 3 5 4 2 9 12 12 12 12 12 10 11 12 8 8 6 7 10 9 7 7 8 10 10 11 9 10 9 10 10 10 10 11 15 18 23 25 24 22 20 18 20 20 18
7 4 3 9 10 5 7 1 8 13 17 15 14 13 11 10 10 12 11 9 5 5 6 5 5 5 6 6 6 7 8 9 9 10 12 14 15 16 15 15 15 15 16 21 25 27 26 23 22
3 4 3 6 14 5 8 7 5 21 21 18 18 15 12 11 10 11 11 11 10 7 4 4 4 6 6 7 8 9 10 10 11 13 15 17 19 19 20 21 20 18 19 22 22 21 20 25 31
2 4 6 2 13 5 5 5 8 21 22 20 21 20 17 14 12 11 10 9 6 3 1 3 5 8 10 11 12 12 12 13 14 15 19 19 18 20 20 22 23 22 19 20 22 23 23 23 21
3 3 2 5 7 6 7 10 7 26 25 24 22 24 20 20 16 12 10 9 7 4 1 3 7 9 13 14 16 13 15 18 20 21 21 19 18 19 24 25 25 23 22 22 22 23 22 24 25
2 1 4 2 3 5 8 8 10 25 24 20 22 25 25 23 18 16 12 8 5 4 6 9 9 12 14 18 19 19 23 27 27 26 25 21 21 22 25 25 25 24 25 23 23 22 24 25 22
3 3 6 3 2 1 6 13 11 20 24 31 26 22 26 22 25 18 11 10 10 10 8 10 13 15 14 18 18 21 25 29 29 28 27 26 27 26 23 23 24 26 28 24 24 24 27 26 23
3 1 3 2 2 4 3 8 5 3 12 25 21 20 21 24 26 16 12 11 10 8 7 12 15 17 16 16 17 22 26 30 30 31 32 31 29 28 27 28 28 26 25 26 26 26 28 28 22
2 1 2 4 5 3 3 5 6 4 6 11 20 18 19 22 21 13 15 16 12 8 9 13 17 18 17 18 20 24 28 31 32 33 33 34 32 31 29 28 28 27 25 28 30 29 29 29 29
3 1 1 1 1 4 3 1 7 7 4 8 16 20 18 17 22 16 15 13 14 14 16 18 18 19 21 19 22 25 30 31 31 32 33 33 34 32 30 28 29 30 28 30 28 27 28 31 33
3 2 3 2 2 2 6 7 5 4 7 5 15 24 23 19 19 17 18 18 16 16 18 18 19 20 18 20 24 29 30 31 33 34 35 37 38 37 36 35 33 31 31 29 31 33 31 27 30
3 5 3 2 2 5 3 5 7 2 3 5 17 29 27 23 19 18 19 16 14 16 17 18 21 20 19 23 29 29 30 31 32 36 38 40 40 39 36 32 30 30 30 30 32 34 36 37 35
4 6 4 4 3 4 5 5 3 2 10 11 15 26 24 23 21 20 17 16 15 16 19 22 18 19 23 28 27 29 31 35 38 40 40 40 40 39 37 36 36 36 35 36 35 37 38 37 37
1 2 4 1 2 1 4 1 3 4 4 8 10 17 18 20 19 17 17 16 17 18 18 17 18 23 26 25 29 34 37 38 39 39 40 40 39 36 37 36 35 35 34 34 35 33 33 34 37
2 2 2 2 2 4 5 1 2 4 4 4 8 12 12 13 15 16 18 19 18 17 15 17 21 22 25 29 34 37 37 37 39 40 41 36 36 38 33 32 31 30 32 32 33 36 36 34 37
1 2 2 2 5 4 1 5 5 1 1 4 3 8 14 19 20 20 20 20 18 14 17 18 20 25 30 35 38 38 39 41 41 35 34 35 35 36 35 39 44 47 49 45 43 41 44 41 37
1 3 4 4 4 1 4 5 2 8 10 10 5 4 1 12 13 16 21 17 14 14 15 21 26 30 35 38 38 40 41 39 38 38 40 40 39 42 47 47 42 39 39 38 38 41 41 38 36

GFSSGP_850_spd_054.txt.gz
Wind_Speed
8 4 1 4 5 5 2 2 2 7 5 9 20 19 9 8 3 4 5 6 6 6 5 5 5 5 4 3 1 2 4 5 6 6 5 5 6 6 7 5 5 4 7 8 9 9 10 10 9
5 3 4 4 5 4 3 4 8 7 18 24 22 15 10 5 12 9 8 6 7 9 8 4 2 4 5 3 1 1 2 4 6 7 6 5 4 4 4 4 4 4 5 6 5 6 6 8 8
5 4 3 4 3 3 2 3 7 10 15 2 6 9 5 3 6 8 7 7 5 7 7 6 3 1 1 2 1 1 2 3 5 7 7 6 5 4 4 4 3 2 3 4 4 4 4 5 7
3 3 4 4 5 1 3 2 1 1 11 11 14 7 6 6 5 7 9 7 5 8 9 11 10 7 5 4 3 4 3 3 4 6 7 7 7 6 6 5 4 3 1 2 3 3 4 4 5
3 3 5 3 2 3 4 13 16 6 6 14 4 3 5 13 12 11 9 7 3 7 10 9 9 8 6 5 5 5 4 2 3 4 5 6 6 6 6 6 6 6 4 2 2 4 4 4 4
2 2 5 3 2 1 3 12 15 8 9 4 10 6 4 15 12 9 10 7 3 6 3 3 6 7 8 10 11 10 11 9 5 4 4 4 4 5 6 6 5 5 6 5 3 4 5 5 5
5 4 3 6 4 2 1 3 8 7 4 6 7 3 5 12 9 11 17 13 9 5 2 0 1 3 2 3 5 8 8 9 9 11 10 7 2 2 5 7 6 7 7 6 6 5 4 4 6
3 4 3 1 3 3 2 4 10 5 3 7 6 5 3 8 8 18 16 16 10 8 7 6 5 4 4 3 3 4 3 4 5 5 5 5 6 4 5 8 9 8 9 9 8 7 6 5 5
1 5 2 3 5 3 4 3 5 7 8 6 6 10 6 7 7 15 17 15 10 11 9 5 3 7 5 3 5 2 1 2 4 6 7 6 5 5 4 6 8 8 10 12 11 10 9 8 7
4 4 7 2 3 4 3 5 9 5 9 6 11 12 9 9 10 15 16 14 10 7 4 4 4 5 4 4 4 4 4 6 7 8 8 8 7 6 7 5 6 7 7 9 10 11 11 10 9
2 5 6 4 6 6 7 5 5 12 2 8 12 12 10 9 10 11 9 7 4 9 8 5 6 8 6 4 2 3 6 7 8 7 7 11 11 11 10 9 11 10 9 8 10 9 8 10 11
4 2 4 6 4 3 5 9 4 6 3 12 13 12 11 9 8 6 6 5 4 3 6 8 5 2 3 2 2 3 3 4 4 7 10 9 12 10 10 11 11 11 9 12 14 14 14 14 13
3 5 6 5 3 5 10 3 5 7 14 15 12 13 11 10 10 7 4 3 1 2 4 3 2 4 5 5 6 6 6 6 7 6 7 8 8 10 16 16 14 15 18 17 18 18 18 20 18
4 5 4 3 4 3 4 2 0 9 14 16 13 14 13 12 11 10 6 4 2 4 4 3 3 5 4 6 7 8 8 8 8 10 12 13 12 12 12 12 13 14 15 17 19 20 22 21 22
9 4 4 3 5 3 4 3 7 10 17 18 16 15 14 13 12 11 8 7 4 5 5 3 2 3 4 7 8 8 9 10 11 12 13 15 16 16 17 17 16 16 16 17 18 18 19 26 27
4 4 0 4 9 3 5 9 3 16 23 21 20 19 16 15 14 12 12 10 8 5 4 2 2 3 6 7 9 10 10 11 12 13 16 17 16 17 17 18 19 20 18 18 19 21 22 21 21
4 3 5 7 14 5 6 7 3 19 26 24 24 23 20 18 16 14 12 10 7 3 3 2 2 4 7 8 10 9 9 12 15 17 18 18 17 17 18 21 23 22 21 21 22 22 22 24 24
5 3 4 4 6 6 5 12 2 22 25 27 26 26 24 23 21 17 15 12 9 7 6 5 5 7 9 10 11 11 12 16 21 23 22 20 19 20 21 22 21 21 22 22 22 23 22 22 25
3 2 4 4 1 5 6 7 8 22 23 21 26 30 27 26 22 19 15 14 12 10 9 9 10 10 12 13 14 17 19 21 24 25 24 25 24 24 23 22 23 22 24 26 24 25 27 28 26
2 3 4 3 2 4 5 11 10 13 24 35 33 33 31 27 26 21 17 14 14 12 12 11 12 13 15 15 17 19 22 25 27 28 27 27 27 27 26 26 26 25 25 24 25 23 26 28 26
0 3 2 4 4 4 4 8 5 1 7 22 24 30 32 32 29 26 21 15 12 12 12 13 12 14 17 17 19 21 22 26 29 30 31 30 30 30 30 30 29 28 26 26 24 25 26 28 27
2 3 1 1 3 3 3 5 6 4 3 8 22 24 29 33 30 26 21 18 16 14 15 15 15 16 18 19 22 22 25 29 31 32 34 34 34 34 33 33 32 32 31 31 27 27 30 30 30
4 2 0 1 2 3 3 3 7 2 3 7 17 23 23 28 29 27 21 17 17 18 18 16 15 19 18 22 23 23 24 29 31 33 35 36 37 37 37 36 35 33 30 27 29 31 29 27 31
3 3 7 4 3 2 4 5 5 3 5 3 10 22 20 20 25 25 20 19 19 20 18 17 19 18 21 22 21 22 28 30 31 33 36 39 40 40 38 37 36 33 31 31 31 30 32 33 34
5 5 3 3 2 6 1 4 7 5 3 3 14 24 22 20 23 24 23 22 21 19 19 20 19 20 22 20 21 26 27 29 32 36 39 40 41 42 41 39 36 34 33 33 33 35 36 35 34
3 6 5 5 3 4 4 4 4 3 7 8 3 20 23 22 22 24 23 21 21 20 20 18 19 21 18 20 24 26 29 32 35 38 38 40 41 42 38 36 37 35 33 33 33 32 33 33 36
1 2 2 2 2 2 3 4 6 2 6 10 6 9 20 22 23 23 22 21 20 19 18 17 17 16 19 22 25 29 32 35 37 39 41 42 39 38 39 39 37 35 32 32 34 36 39 39 39
2 2 2 3 2 4 4 4 3 5 1 2 4 6 12 17 20 21 20 19 18 17 16 16 16 18 21 24 28 31 34 37 40 42 40 38 40 41 42 41 41 42 44 45 43 43 40 36 37
2 2 2 3 4 4 2 5 3 2 3 3 3 7 11 16 18 18 17 16 15 16 15 15 16 20 24 28 32 36 39 42 41 39 39 41 41 39 42 45 44 38 35 33 34 33 31 32 35
3 4 4 4 3 1 4 6 2 2 11 8 6 3 4 5 5 9 12 15 17 16 15 17 19 23 28 34 39 39 40 38 38 40 42 40 44 43 40 37 37 35 35 36 36 37 33 35 36

GFSSGP_850_spd_057.txt.gz
Wind_Speed
7 6 1 1 5 5 3 3 4 2 5 7 11 11 9 6 3 4 7 9 6 6 6 5 3 5 5 5 3 3 3 6 8 6 5 5 5 7 7 3 3 5 7 6 7 7 8 6 5
6 4 1 3 5 4 3 5 3 1 18 16 13 10 9 3 6 9 8 10 11 9 6 3 2 2 0 3 2 3 5 6 8 8 8 6 5 5 3 2 2 4 5 5 5 5 5 5 4
7 4 2 4 4 4 3 2 3 7 11 2 5 8 4 2 3 5 8 10 10 9 9 7 4 2 1 3 4 4 3 5 7 8 8 8 7 6 6 5 3 3 2 3 3 3 3 3 4
3 2 5 4 4 3 0 3 9 8 4 7 11 6 6 4 6 8 8 10 13 13 9 6 4 3 2 3 4 4 4 5 5 6 7 8 8 7 7 7 6 5 3 1 2 3 3 3 3
3 3 5 4 2 2 2 5 10 5 6 5 2 3 5 9 8 11 8 9 9 9 8 7 7 6 6 6 6 6 5 4 4 5 5 5 6 6 6 7 7 7 6 4 2 3 4 5 5
3 3 4 3 2 3 2 7 6 6 5 5 7 7 5 7 6 15 14 12 8 7 5 5 5 6 8 9 9 9 10 9 7 5 5 4 3 4 5 6 6 8 8 7 5 5 4 5 6
5 4 3 4 3 1 4 2 4 5 3 5 9 3 7 3 4 15 15 13 11 8 3 4 3 3 2 3 4 6 7 8 9 8 7 8 3 3 6 7 6 6 8 8 7 6 5 4 6
4 5 4 2 4 3 3 4 6 3 3 6 6 4 3 3 6 22 15 9 10 8 5 5 6 4 4 2 1 1 3 3 3 5 6 5 5 4 4 4 5 5 6 8 7 7 7 6 6
3 5 3 6 6 4 7 4 3 4 9 4 4 7 8 13 16 19 18 11 7 9 6 5 6 5 3 3 3 1 2 2 4 5 6 7 6 6 4 4 4 4 5 6 7 7 6 6 8
4 4 9 6 5 4 5 4 9 4 8 6 13 12 14 21 19 18 15 13 11 10 8 6 5 6 5 4 5 4 6 7 8 8 7 7 8 10 9 8 9 8 8 8 8 8 8 8 8
3 5 5 4 5 7 7 6 5 10 3 8 18 17 17 18 17 16 13 10 8 8 8 7 6 6 5 4 3 4 4 6 6 8 10 9 10 12 12 12 12 12 11 12 12 12 11 12 12
3 3 6 6 4 4 5 9 3 7 1 6 17 17 16 14 14 12 12 10 7 6 4 5 4 3 4 3 2 0 1 2 2 3 5 8 8 10 10 11 12 12 12 13 14 16 18 18 16
3 3 4 4 4 4 8 2 2 5 9 14 17 16 16 14 13 11 9 9 7 4 6 4 3 3 5 5 6 6 6 6 8 7 8 8 8 8 8 9 11 14 15 15 16 17 19 20 21
3 5 4 2 3 3 3 1 0 7 15 14 17 17 15 14 14 13 11 8 5 5 5 5 4 6 6 6 6 7 7 8 9 10 12 13 12 12 11 11 11 11 12 14 16 18 19 20 20
7 3 4 2 4 2 4 2 7 10 19 17 17 18 17 16 14 11 10 8 5 5 3 3 3 4 3 5 6 6 7 8 9 12 13 15 15 15 15 15 14 15 15 15 16 17 18 20 20
4 5 2 2 5 1 4 8 2 14 23 21 20 19 18 17 16 14 12 9 7 5 5 5 3 2 3 4 6 6 6 9 12 15 16 16 16 16 17 18 19 20 18 18 18 19 20 20 21
6 3 4 7 9 3 4 7 1 13 23 23 23 22 20 20 19 17 14 12 9 7 6 4 3 0 3 5 7 7 8 11 16 19 19 19 18 18 19 19 19 20 20 20 21 21 21 22 22
6 4 4 5 2 2 3 13 2 10 23 26 26 25 24 23 22 19 17 13 10 9 7 5 3 3 5 7 7 8 11 14 17 21 22 22 22 21 21 21 22 22 23 23 23 23 22 22 23
4 3 4 3 2 5 7 10 11 15 24 23 26 28 28 27 22 20 18 15 14 13 11 8 6 6 8 9 10 12 15 18 20 22 23 25 25 24 25 25 25 25 26 26 26 27 27 28 25
3 2 4 4 1 5 3 11 10 8 13 30 33 32 33 28 26 23 21 19 17 15 13 11 8 9 10 12 13 15 18 20 23 25 25 27 28 28 29 30 30 30 30 29 28 26 28 28 23
2 4 3 4 4 2 5 8 5 1 4 12 28 33 33 31 30 27 25 22 18 16 15 12 11 12 12 14 15 17 19 21 24 28 29 30 33 34 33 32 32 32 32 32 31 29 28 31 29
2 2 2 1 3 3 3 5 6 4 8 3 14 24 30 32 31 29 26 23 20 17 15 14 14 14 13 15 16 20 22 25 28 30 31 33 35 37 36 36 36 35 34 32 30 28 28 30 32
3 3 3 2 3 3 2 2 8 5 6 5 7 17 25 31 32 31 28 23 20 18 17 16 17 15 14 15 20 22 23 24 27 29 31 34 37 38 38 39 39 38 35 32 30 30 30 29 32
3 4 7 4 3 1 4 4 5 3 4 7 2 15 20 24 29 30 27 23 22 20 20 19 18 15 14 18 22 22 22 25 28 30 34 38 41 41 41 41 40 37 35 34 34 33 32 32 34
5 5 3 3 2 5 1 3 7 5 3 4 9 16 19 18 20 25 27 26 24 22 21 20 17 15 16 20 20 21 24 26 29 33 38 41 41 42 41 39 38 38 38 37 35 34 33 32 32
2 5 5 4 2 4 1 5 3 2 6 9 6 6 15 15 16 18 22 23 22 21 19 17 16 16 19 20 21 23 25 29 33 36 39 40 40 40 39 39 41 41 39 38 37 37 36 36 38
2 2 3 4 2 1 3 6 4 5 7 13 13 5 8 11 13 16 20 20 19 17 16 15 17 19 19 20 21 24 27 32 36 39 39 40 39 40 42 42 41 40 41 42 43 43 43 41 40
2 4 2 3 2 4 4 4 3 6 5 8 10 8 2 7 12 14 15 13 14 14 15 17 18 17 18 19 23 27 33 37 38 39 39 39 42 43 43 43 43 43 40 38 37 36 35 34 34
2 1 5 3 4 3 2 5 4 2 3 1 4 7 8 8 9 9 8 9 11 14 17 19 17 16 18 23 28 33 35 36 36 37 39 41 42 42 44 43 41 39 39 34 33 33 34 34 34
2 4 5 4 3 1 4 6 2 3 6 6 4 6 8 11 12 10 9 10 12 16 18 16 15 18 24 29 34 36 36 37 38 40 39 40 42 43 42 40 37 36 37 34 33 35 37 38 38

GFSSGP_850_spd_060.txt.gz
Wind_Speed
6 4 1 1 4 5 2 2 2 3 3 3 7 9 8 5 2 4 6 8 7 7 5 5 4 3 1 4 5 6 7 8 10 8 6 6 4 4 4 3 3 5 7 7 6 7 6 6 6
6 3 3 3 5 4 4 4 2 1 13 14 11 6 6 3 7 10 9 13 12 9 7 6 4 4 2 4 4 4 6 8 9 9 8 7 7 5 4 4 4 2 4 4 4 5 4 5 4
4 3 2 4 4 4 4 0 2 6 7 1 5 7 3 3 7 7 13 15 15 11 9 6 5 4 3 5 5 5 6 7 8 9 9 8 8 8 7 6 5 5 2 2 1 2 2 2 2
3 2 5 4 3 1 2 4 6 5 2 6 10 6 5 3 7 11 13 15 14 12 11 9 7 5 4 3 4 5 4 5 6 7 7 7 8 8 7 8 8 7 5 1 1 0 1 1 0
2 4 4 4 2 1 1 3 7 2 2 3 2 4 4 5 11 12 12 12 11 11 10 8 7 6 6 6 6 7 6 5 4 5 6 6 6 7 7 7 8 8 7 5 3 2 3 3 3
2 3 4 3 2 0 1 7 5 3 3 4 7 7 4 5 12 13 12 10 9 8 8 6 6 6 6 6 7 8 8 8 8 7 8 7 5 6 7 6 6 7 7 6 6 5 4 4 6
5 4 5 6 6 2 5 8 5 7 5 2 8 3 6 6 11 17 15 12 10 9 7 6 5 5 4 3 3 4 6 6 7 7 7 7 7 4 4 4 5 5 6 6 5 4 4 3 4
4 5 5 3 6 4 5 5 6 2 3 8 6 4 4 9 13 17 16 11 10 8 7 7 5 3 3 3 1 1 2 1 2 5 6 5 4 3 3 4 5 5 5 5 6 6 5 4 4
4 5 3 7 7 4 9 4 3 5 8 4 4 5 9 15 16 18 16 13 10 8 8 8 7 4 2 3 2 3 2 3 4 5 7 6 7 5 4 5 7 8 7 7 7 8 8 7 7
4 4 9 6 6 4 8 4 9 5 5 4 8 10 17 20 20 17 11 9 11 11 9 8 7 6 5 6 4 2 4 7 7 6 8 9 7 8 7 7 9 10 11 10 10 10 10 10 10
3 4 5 4 4 5 7 5 4 10 3 8 14 19 24 22 21 16 14 11 11 8 7 6 5 5 5 3 4 4 5 6 6 5 5 4 8 9 10 10 10 11 13 13 14 16 14 14 14
3 2 5 5 4 4 6 9 3 7 2 4 16 20 23 21 19 15 14 12 10 8 7 6 5 4 4 3 1 1 2 3 3 4 5 5 5 6 8 8 9 10 12 13 16 17 17 18 19
3 2 5 5 5 5 9 3 3 6 5 13 19 19 21 20 18 15 12 11 8 5 7 6 5 5 5 4 5 5 4 5 7 7 8 9 9 9 9 9 10 11 12 14 15 17 18 18 18
3 4 6 4 5 4 3 2 1 6 13 17 19 19 19 18 18 17 14 11 8 6 6 6 6 6 6 5 5 4 5 6 8 10 12 13 13 13 12 13 13 12 13 14 16 17 18 18 19
8 1 2 1 4 3 5 2 7 8 17 18 20 20 19 18 18 14 13 10 7 7 6 7 6 7 4 4 4 5 7 8 10 13 14 15 15 15 16 16 17 17 16 17 17 17 17 19 20
5 5 2 0 4 1 3 7 2 12 20 19 21 21 21 21 17 16 13 11 9 7 8 8 6 5 4 4 5 5 6 8 12 15 16 17 18 18 18 18 18 18 18 19 20 21 21 21 21
5 3 3 8 4 2 3 6 1 12 21 21 23 24 23 22 22 19 16 12 9 7 7 7 6 4 3 3 4 5 7 11 14 17 19 19 20 20 20 21 21 21 21 21 22 22 23 24 24
6 3 3 5 1 1 2 11 5 8 21 25 25 25 26 25 24 20 17 14 12 10 8 7 6 3 0 2 4 6 9 12 15 18 20 21 22 23 23 23 24 25 25 25 26 26 25 25 27
5 3 3 2 2 3 6 9 12 14 20 23 25 29 28 27 22 21 19 16 15 13 11 9 6 4 3 4 7 8 10 13 15 19 22 23 24 26 27 28 27 28 28 28 29 30 30 30 29
3 3 3 3 1 3 4 11 11 5 10 25 31 32 33 27 26 25 22 20 17 12 11 10 9 7 6 7 9 11 13 16 18 20 24 25 27 29 32 33 32 31 32 31 30 30 31 30 27
2 3 2 4 4 1 6 7 5 2 2 5 17 27 31 32 30 27 24 21 18 16 14 11 10 10 9 10 12 12 15 17 18 21 24 25 28 31 34 35 34 34 34 33 32 30 29 30 28
1 1 2 2 3 3 4 5 6 4 8 4 7 15 24 29 29 27 25 23 20 17 14 13 13 13 12 13 14 14 17 19 21 23 25 27 30 34 37 37 36 37 36 34 31 29 28 29 31
2 4 3 3 3 3 3 2 7 5 6 8 10 7 15 24 28 28 27 23 21 19 17 15 16 16 14 15 15 17 19 20 23 24 26 29 32 37 40 39 39 38 37 35 35 33 32 31 32
6 4 6 4 3 1 2 3 5 4 5 7 9 7 8 16 23 26 25 25 24 21 20 19 19 17 15 17 18 19 20 22 24 26 29 32 38 39 40 39 38 38 38 37 37 37 35 33 33
5 5 3 4 3 5 1 2 6 5 4 5 12 11 6 8 12 19 23 25 24 23 21 20 20 16 17 19 20 21 21 23 25 28 33 38 40 40 40 39 40 41 41 40 38 38 37 36 35
2 5 5 4 2 4 1 5 2 3 8 9 8 5 4 4 5 9 14 20 21 21 21 19 17 18 20 22 22 21 21 24 28 33 37 38 40 40 40 41 41 40 39 39 39 40 40 39 39
2 2 2 5 3 1 3 5 4 7 7 13 18 15 8 3 3 6 8 10 11 13 13 14 17 20 22 22 20 20 23 29 34 36 37 39 40 41 42 41 41 41 41 40 38 38 38 36 34
2 5 3 3 2 3 4 4 3 5 5 7 13 17 14 10 8 8 7 6 8 9 11 15 18 21 19 18 19 24 30 34 35 37 39 39 40 40 41 42 43 44 42 39 36 36 35 34 32
2 0 5 4 3 4 2 5 5 2 4 6 11 15 18 19 16 14 11 8 6 8 11 15 16 16 16 19 24 30 32 34 36 38 39 39 41 42 44 43 44 42 38 35 35 33 34 33 33
2 4 5 4 4 1 4 5 1 3 5 6 9 12 13 14 14 14 14 14 13 11 12 13 14 16 19 24 29 32 35 36 38 39 39 41 43 43 43 43 40 36 34 34 34 35 36 35 33

GFSSGP_850_spd_066.txt.gz
Wind_Speed
2 1 4 1 2 1 4 3 0 5 3 1 2 1 5 5 4 4 3 7 7 9 8 6 6 5 3 5 6 7 7 8 7 6 5 3 1 4 3 2 2 4 5 6 6 5 5 5 6
2 5 4 2 2 1 5 3 6 2 7 10 9 6 4 6 8 9 7 9 10 10 8 6 7 6 4 5 6 5 6 8 8 8 7 6 6 5 5 4 2 0 2 3 5 5 4 4 4
1 5 2 2 2 1 4 4 8 12 8 4 3 3 4 7 6 6 10 11 12 10 8 7 7 3 4 5 5 5 5 6 7 8 8 8 7 7 6 6 4 2 1 1 1 2 3 3 3
2 2 2 4 3 3 4 9 13 10 2 4 3 5 5 5 7 9 13 13 12 10 8 8 7 5 5 5 4 4 4 5 5 6 6 7 7 6 6 6 6 5 3 1 2 3 3 3 3
4 3 3 3 5 5 5 11 13 6 3 5 4 6 7 7 11 12 13 12 11 10 8 6 7 7 8 8 7 8 6 6 6 6 5 5 5 6 5 6 6 6 5 4 3 3 4 5 5
4 3 5 6 6 6 7 12 10 6 4 5 4 8 7 10 13 14 13 12 10 9 9 6 8 7 6 6 6 5 7 8 7 7 7 6 5 5 5 4 4 5 5 5 4 4 4 5 7
4 4 4 4 8 7 8 13 10 8 6 6 3 7 5 11 13 14 12 11 10 9 8 7 5 5 4 3 3 3 3 3 3 5 5 5 4 2 3 4 4 4 5 6 6 5 5 5 6
3 3 6 5 10 7 9 13 4 7 5 5 6 4 6 13 16 15 13 11 10 8 8 6 6 5 4 2 1 1 1 1 2 3 5 5 4 4 3 5 6 5 6 7 8 7 8 8 8
5 4 7 8 9 7 12 10 5 3 5 7 7 4 6 15 18 16 15 14 11 9 8 7 6 6 6 5 4 3 3 1 3 7 6 4 5 5 5 7 7 10 8 10 12 11 10 10 11
6 6 7 4 8 7 15 12 11 7 8 9 8 8 10 18 18 18 16 13 12 10 9 6 6 6 6 8 5 5 5 6 7 6 4 3 3 4 5 7 9 8 10 11 13 13 13 13 12
5 6 5 6 8 10 15 10 9 7 8 10 12 13 15 17 17 17 16 13 13 11 10 8 8 8 8 8 6 5 4 2 2 1 2 2 3 4 5 7 8 10 11 12 13 13 15 14 15
7 2 4 8 8 9 12 12 7 12 2 4 7 13 17 18 17 17 16 14 12 11 9 10 11 11 9 6 5 3 3 3 3 3 4 4 5 6 7 8 9 10 11 12 13 14 15 15 15
8 7 5 7 8 7 11 7 3 9 7 7 9 15 17 17 16 15 14 12 12 12 12 11 10 8 7 5 5 5 4 3 4 6 7 8 9 9 10 11 12 13 14 15 15 16 16 16 17
2 7 9 6 7 6 5 4 2 5 7 9 14 16 17 17 17 16 14 14 12 11 11 11 10 9 8 7 6 5 5 6 8 9 10 11 12 12 13 13 14 14 15 15 15 15 16 15 15
9 3 4 6 6 4 4 5 7 5 10 12 15 15 16 17 17 16 15 14 13 12 11 12 11 10 9 7 5 5 6 7 8 10 11 12 13 15 16 16 17 18 18 18 18 17 18 16 16
4 3 5 3 6 2 3 11 4 7 11 13 15 16 17 18 17 15 15 14 13 12 12 12 11 10 8 7 7 6 6 6 7 8 10 12 14 16 17 18 19 20 21 21 20 20 21 19 17
3 11 15 6 5 3 7 9 4 6 10 12 16 17 18 18 18 17 16 15 14 13 13 12 12 10 9 8 7 5 3 3 4 6 8 11 13 15 16 18 21 24 24 22 23 22 22 22 20
5 7 7 7 4 6 6 13 6 6 11 14 16 18 19 21 21 19 18 16 15 14 13 13 13 12 10 8 6 3 1 1 3 4 6 9 12 14 16 19 22 24 25 23 25 23 23 21 20
4 5 6 1 2 3 7 12 11 7 11 14 17 19 21 22 19 20 19 18 17 16 15 15 14 13 10 8 6 5 4 4 4 5 7 10 12 14 17 19 22 24 26 28 27 25 25 23 19
4 5 8 2 1 3 6 14 12 4 4 7 13 18 20 19 20 22 22 21 20 18 17 16 15 14 11 10 8 6 6 6 7 9 11 12 14 16 18 21 23 24 27 28 27 26 24 21 17
6 7 7 5 2 2 7 11 2 2 3 5 5 9 16 21 22 23 24 23 21 19 19 16 15 15 14 12 12 10 10 11 12 12 13 15 16 18 20 23 26 27 29 30 29 24 22 20 20
9 2 3 3 1 6 3 6 3 2 1 5 9 5 8 16 22 22 23 23 22 20 17 17 16 16 16 16 14 15 12 11 11 15 17 17 18 20 24 27 28 30 30 27 23 20 20 20 22
4 4 4 2 3 4 4 5 3 0 0 9 12 9 2 8 18 21 21 18 17 17 19 18 19 19 18 18 18 19 19 16 18 19 19 18 18 22 27 29 30 30 28 25 24 23 22 21 23
13 6 4 2 2 5 3 4 4 2 7 10 12 10 7 4 10 15 13 13 15 18 19 20 20 20 20 21 22 22 22 19 17 14 16 17 22 27 30 30 31 30 28 26 26 26 25 24 25
3 4 3 5 4 2 2 4 4 4 8 8 7 9 10 9 7 9 11 14 16 18 19 21 21 21 21 22 22 22 22 21 20 20 21 24 27 28 30 32 32 29 28 29 29 28 27 26 26
5 4 5 5 4 2 3 5 4 5 7 8 8 9 11 11 9 7 5 8 11 14 17 19 19 19 20 20 21 20 20 20 20 22 25 27 27 28 31 32 31 30 28 28 27 27 27 26 26
5 6 3 0 0 4 2 3 5 7 7 9 10 11 12 11 9 8 6 4 1 3 7 11 14 16 17 16 17 17 17 18 21 24 27 29 29 29 28 30 30 31 31 30 29 28 27 26 26
2 5 3 3 3 4 4 4 2 10 7 6 9 11 11 11 11 11 10 9 6 4 2 4 7 11 13 13 14 14 16 19 23 26 28 29 29 28 31 32 31 31 29 27 26 26 25 25 25
4 4 1 2 3 4 4 3 4 8 5 6 7 8 9 9 10 9 8 8 8 8 9 10 11 11 12 13 14 16 19 22 24 25 25 25 27 29 30 31 30 29 28 26 25 25 26 26 27
1 1 5 4 4 1 3 2 3 6 5 5 7 6 6 7 7 7 8 9 9 11 14 14 14 13 14 16 18 19 22 24 24 23 24 26 27 28 29 30 30 29 27 25 25 25 25 26 27

GFSSGP_850_spd_072.txt.gz
Wind_Speed
6 7 7 5 2 3 4 3 7 5 7 7 11 14 14 20 7 5 13 9 12 7 1 8 7 6 6 6 7 9 9 9 8 7 7 6 7 7 6 6 4 6 7 9 9 8 8 8 10
4 1 3 6 3 2 3 7 9 9 12 9 8 7 18 12 15 16 14 12 12 5 8 4 7 7 7 6 6 8 8 9 9 8 8 8 9 8 7 6 5 4 4 5 6 8 8 8 8
2 1 4 4 4 4 5 7 9 12 9 4 6 9 7 5 11 11 12 14 13 11 8 3 5 5 6 6 6 6 7 7 8 8 8 8 8 8 8 8 8 6 5 5 5 6 6 8 8
3 3 7 4 2 11 8 10 14 8 5 0 7 10 8 10 8 14 17 14 13 9 3 7 6 6 6 7 6 5 6 6 7 7 7 8 8 8 9 10 10 10 9 8 8 7 7 8 8
3 6 5 7 2 6 10 19 15 7 9 8 2 8 10 11 14 18 16 14 12 10 1 7 8 8 9 10 9 9 9 10 10 9 8 8 8 8 8 8 9 9 10 10 11 11 11 11 10
6 6 6 9 6 3 9 17 13 12 10 8 5 12 10 14 15 16 15 13 13 5 3 2 8 8 8 9 7 9 9 6 7 7 8 8 7 7 8 8 9 9 11 12 12 12 13 13 13
6 6 11 11 4 8 4 16 8 5 6 9 2 8 14 17 16 15 14 13 10 9 7 2 3 5 5 6 5 4 5 5 6 7 8 8 6 5 4 7 7 8 10 9 9 11 10 12 13
6 4 12 11 13 13 9 8 8 1 6 9 1 1 12 20 19 16 15 12 12 10 10 6 8 3 1 6 4 4 4 5 5 7 8 8 4 5 4 6 7 8 10 8 9 9 9 10 11
6 3 6 14 7 6 16 7 4 5 8 4 4 9 13 23 20 17 15 13 13 10 14 12 9 4 5 4 4 4 5 4 3 4 8 6 6 7 5 6 6 8 9 10 10 10 8 4 7
7 4 9 7 8 2 14 15 12 5 7 7 7 5 14 20 20 20 17 15 13 13 8 15 6 7 3 3 3 2 1 4 3 6 6 3 5 6 6 6 6 6 7 8 10 9 10 10 9
9 5 11 4 9 7 13 10 14 7 7 10 20 16 15 17 19 18 17 14 18 18 12 6 7 6 6 4 5 7 3 2 6 8 2 4 3 3 3 6 7 7 7 8 10 10 11 11 10
5 18 17 4 2 3 9 12 9 10 5 6 4 16 20 18 19 19 17 16 18 19 15 9 9 5 6 6 9 8 7 5 3 5 3 3 4 5 6 8 9 10 11 11 12 12 12 11 10
9 13 15 5 1 3 10 7 2 12 6 4 5 12 17 17 18 17 17 12 17 13 14 13 10 12 9 11 11 10 7 5 4 5 6 6 7 7 8 9 10 12 13 13 13 14 15 14 13
6 3 7 4 1 3 2 5 4 9 10 5 6 11 14 15 17 16 14 12 9 12 11 15 12 12 11 9 10 10 9 4 6 7 7 7 7 7 7 7 10 12 14 15 16 18 18 19 18
4 2 4 3 2 6 11 5 9 6 10 8 8 11 13 15 15 15 14 13 12 13 14 13 15 12 12 11 9 7 7 7 7 6 6 6 6 5 5 7 9 12 15 16 18 20 21 22 22
4 2 3 2 4 2 5 4 9 7 6 10 10 13 14 15 16 14 15 14 15 17 16 17 14 14 13 9 7 8 8 6 5 4 3 3 3 4 5 8 11 13 15 18 20 22 24 25 27
6 6 8 7 5 2 5 5 5 2 7 9 9 11 17 15 14 14 16 16 15 16 18 16 16 14 10 7 8 7 6 5 4 3 3 2 2 3 6 8 10 13 16 18 20 22 24 28 30
11 13 9 11 7 4 4 5 17 27 14 9 9 11 12 18 17 15 18 16 16 15 16 11 15 14 13 12 10 10 8 7 5 6 6 6 7 6 7 9 11 14 17 19 21 23 25 27 29
14 5 5 5 5 5 8 3 10 16 18 11 10 12 12 18 18 18 18 17 15 15 14 12 15 15 13 12 12 8 7 6 8 9 9 9 10 11 12 13 13 15 18 21 22 24 27 30 28
13 8 10 10 6 4 4 6 12 16 0 5 6 7 10 12 18 21 18 17 17 16 15 14 13 14 14 11 8 3 6 6 9 11 14 13 14 14 14 13 16 17 19 22 23 25 28 29 27
10 6 4 8 6 3 3 5 9 3 9 3 1 3 8 12 17 24 21 20 17 17 16 14 14 15 14 11 10 14 14 12 16 15 17 16 15 15 17 18 19 20 21 24 25 26 26 25 26
8 10 2 7 5 5 7 4 4 11 8 6 12 9 8 5 5 23 23 21 19 16 15 14 13 12 14 13 15 16 14 13 10 10 9 8 13 19 19 20 20 24 24 26 26 27 27 26 28
2 5 5 6 7 6 8 2 2 9 8 8 11 7 5 3 5 16 20 19 16 16 14 15 13 13 12 14 16 16 16 16 16 17 19 20 21 16 16 18 23 24 25 27 29 29 28 27 27
9 5 4 1 2 4 12 8 0 3 5 7 12 7 5 2 4 10 15 14 14 14 15 14 16 15 15 16 18 19 19 19 20 17 17 16 15 16 19 21 21 24 28 31 31 30 29 29 30
6 7 3 3 3 3 5 5 5 7 7 7 10 10 9 8 9 14 14 14 13 12 15 18 18 18 17 17 17 18 19 20 23 21 20 20 21 23 24 24 26 30 31 30 29 29 30 30 31
7 3 2 3 3 4 2 4 4 8 11 12 13 12 12 12 9 9 6 5 7 10 10 8 8 11 11 12 14 15 18 22 24 18 19 21 23 23 24 26 29 30 31 30 29 30 31 31 31
5 3 2 3 5 2 5 5 4 8 8 14 15 13 14 14 12 12 11 9 8 9 10 9 9 10 13 14 17 16 13 12 14 14 20 22 22 24 28 29 31 30 30 29 30 31 32 31 31
4 3 1 2 2 4 6 6 6 9 8 9 11 13 14 14 13 12 11 9 6 4 3 1 1 4 7 9 11 13 16 17 17 17 17 19 24 25 26 28 29 29 30 31 31 32 32 31 31
3 2 3 1 2 1 4 3 5 9 9 9 14 15 13 12 12 11 9 7 6 5 6 6 6 9 8 10 13 14 13 14 17 20 20 20 22 25 28 29 31 31 32 32 32 31 30 30 30
4 3 7 2 2 2 2 1 5 9 10 17 16 12 11 10 9 7 6 5 4 4 5 8 10 11 12 14 17 15 13 16 17 18 20 24 27 27 29 30 31 32 31 30 30 31 32 31 30

GFSSGP_850_spd_075.txt.gz
Wind_Speed
8 1 5 3 4 4 2 1 5 4 4 12 17 17 10 7 3 5 14 9 7 6 5 9 7 6 7 8 8 10 10 9 9 9 8 9 9 8 7 6 6 7 9 11 11 11 10 11 13
6 4 2 2 4 1 3 4 6 5 11 12 21 17 8 4 13 20 17 9 7 5 10 9 7 7 8 8 8 9 10 10 9 9 10 10 10 10 10 9 8 7 6 7 7 8 9 9 11
5 3 2 3 1 2 2 4 8 9 11 6 6 13 7 10 19 20 18 13 13 8 6 4 6 7 7 7 8 8 8 8 9 9 9 9 10 10 11 12 11 10 9 8 8 8 8 9 9
4 0 3 2 1 4 4 6 15 8 0 5 15 8 8 9 16 18 21 15 12 8 2 5 5 7 7 8 8 8 8 8 8 8 9 9 9 9 10 11 11 12 12 12 12 12 12 12 10
4 2 1 1 4 7 2 17 17 7 9 3 11 4 7 12 13 24 20 16 12 8 3 7 9 10 11 11 11 11 12 11 10 10 9 9 9 10 11 11 11 12 13 14 14 14 14 14 14
3 2 1 2 5 6 1 21 16 11 13 11 13 10 8 17 17 21 21 13 14 6 7 7 10 11 11 10 12 10 9 8 7 8 8 9 8 8 8 9 8 9 9 10 11 11 12 13 13
3 2 4 5 4 4 8 21 12 12 12 6 18 4 17 21 18 22 17 17 9 3 6 4 7 8 8 9 8 7 7 6 5 5 5 5 4 4 4 5 6 7 8 8 8 8 7 8 10
3 3 3 4 6 7 5 12 14 14 4 11 13 6 10 26 21 22 20 14 9 8 10 10 9 6 5 7 7 6 5 5 5 5 5 4 5 5 3 4 5 6 7 7 6 6 6 6 6
4 1 3 4 6 6 14 7 4 10 12 6 7 8 11 30 22 22 22 16 13 17 14 9 8 6 6 5 5 4 3 2 4 3 4 7 4 3 4 5 5 5 5 5 6 5 4 4 3
5 3 7 3 5 3 1 11 12 7 12 8 15 11 25 30 25 23 25 20 22 20 16 12 8 9 7 6 4 1 1 2 3 2 1 1 3 3 5 6 5 5 5 6 6 6 6 4 3
6 5 2 6 4 6 17 10 10 13 3 15 20 31 31 28 25 24 22 20 20 21 19 15 10 8 2 4 4 3 2 2 5 8 6 2 0 3 4 6 7 7 7 8 8 9 9 9 7
2 4 5 16 7 6 3 13 7 10 6 10 17 25 28 26 24 23 20 19 20 24 16 15 12 11 7 7 7 5 7 4 7 5 4 3 3 4 6 7 8 8 10 11 12 13 13 12 12
5 4 7 7 7 5 13 7 6 9 10 11 16 22 24 24 24 22 19 17 22 21 20 17 15 10 10 8 10 12 10 6 6 6 7 7 6 5 6 7 9 10 12 13 14 15 15 15 14
6 9 5 4 9 10 8 3 4 2 11 11 16 21 21 19 22 20 18 20 29 23 18 16 14 12 10 11 14 13 10 6 8 8 7 7 6 5 5 7 8 9 11 13 15 17 18 19 18
6 5 4 2 4 4 9 5 6 3 10 10 11 16 17 17 19 21 20 23 22 20 18 17 12 12 12 12 10 9 9 8 9 9 8 6 5 4 4 5 6 9 11 14 16 18 20 21 22
5 5 4 1 7 3 3 3 7 10 5 3 7 11 14 16 15 17 17 17 16 16 16 13 14 14 13 10 8 10 10 9 9 8 7 6 4 2 1 4 7 10 12 15 17 21 23 25 26
1 5 4 2 4 5 3 4 2 5 15 11 8 11 17 18 16 16 16 13 13 15 16 15 17 15 14 10 10 9 9 8 7 6 6 5 3 2 4 6 9 10 12 15 18 20 24 27 28
5 4 3 6 6 3 3 5 6 8 11 11 10 8 19 23 23 20 18 18 18 18 16 16 18 16 15 10 9 9 8 7 7 7 6 6 6 5 7 9 11 12 14 15 18 22 24 26 28
7 8 10 3 6 5 5 6 8 11 10 13 12 10 6 22 23 23 24 23 20 18 16 16 20 16 15 12 13 12 12 10 10 10 10 10 10 11 12 12 13 14 16 17 19 21 24 27 28
13 6 4 4 6 5 7 10 9 8 4 12 13 8 7 2 23 26 27 25 21 18 15 14 15 18 17 13 14 10 8 8 8 10 12 11 15 16 17 16 17 17 17 18 20 22 25 27 26
15 8 6 7 3 3 5 6 6 3 9 11 9 8 1 3 23 30 30 27 22 18 15 13 12 16 15 14 13 13 12 14 16 16 15 17 16 17 17 18 20 19 19 21 22 23 25 27 26
11 5 8 13 8 5 6 4 5 7 6 6 10 5 2 2 10 31 29 26 23 19 15 14 14 18 18 17 16 18 19 19 17 15 15 17 19 19 19 22 21 21 22 24 24 26 27 28 28
4 5 9 7 6 5 3 3 6 7 5 4 7 6 4 1 4 32 29 24 20 19 19 18 15 15 15 15 16 16 18 18 18 17 17 17 17 17 21 18 20 19 24 27 27 29 30 28 28
7 7 8 5 4 1 8 7 3 4 6 4 6 5 4 4 4 26 23 20 19 17 17 16 18 14 13 14 17 18 19 19 20 20 21 18 17 18 18 18 20 23 27 28 31 32 30 29 29
6 6 3 2 1 5 4 5 5 5 6 8 11 9 9 13 20 22 23 20 18 18 17 17 16 18 16 11 12 15 19 21 22 23 22 23 24 21 21 23 26 29 29 30 31 31 30 29 31
4 6 5 6 5 4 3 4 4 5 14 17 15 13 12 15 17 18 17 15 13 12 11 11 12 13 13 13 16 18 17 18 19 21 23 23 23 24 26 27 27 29 29 31 31 30 30 30 30
4 2 4 3 1 4 3 3 4 5 7 15 17 16 13 14 14 13 11 10 9 8 7 8 7 8 10 12 15 17 20 20 19 18 17 18 23 25 25 27 29 30 32 32 31 32 32 32 32
2 3 3 2 2 3 2 4 4 8 7 7 10 16 16 14 12 11 10 8 7 7 7 7 7 8 10 11 14 16 17 16 17 18 19 19 20 22 24 25 27 31 32 33 33 33 33 33 33
1 1 1 3 4 4 1 4 6 10 11 11 14 18 18 16 12 10 7 5 4 3 3 6 9 11 13 14 16 17 17 18 18 19 21 22 22 24 27 31 32 33 33 32 32 32 32 32 33
1 3 5 4 4 1 4 5 5 11 14 21 22 21 19 18 16 11 7 8 8 5 2 6 9 12 13 15 15 17 17 17 17 19 21 23 26 30 30 31 32 32 32 31 32 33 32 30 29

GFSSGP_850_spd_078.txt.gz
Wind_Speed
5 4 2 1 3 4 2 4 4 3 3 5 10 11 9 5 1 3 13 14 9 10 12 10 8 7 8 8 9 9 9 10 10 10 10 9 8 7 7 7 7 7 9 10 11 11 12 13 14
2 1 1 1 4 0 4 1 5 5 13 22 15 9 7 3 6 14 18 14 7 7 12 10 8 8 8 9 9 10 10 10 10 10 10 11 11 10 10 9 8 7 7 6 6 7 9 11 11
2 1 1 3 1 4 3 3 6 9 21 7 6 9 5 7 10 17 14 15 12 11 9 8 7 8 8 8 9 9 9 9 9 9 9 10 10 11 12 12 11 11 10 9 9 9 9 9 10
2 2 2 2 4 3 4 6 7 8 5 6 16 6 7 4 14 15 18 14 13 9 6 7 6 8 8 8 8 9 9 9 10 10 10 10 10 11 11 11 12 12 13 13 12 13 13 12 11
0 2 3 1 4 3 3 10 15 6 7 10 9 4 6 21 12 14 16 14 12 9 7 7 8 10 10 10 11 12 12 11 10 10 10 10 11 11 11 11 11 12 13 13 13 13 13 14 13
3 2 3 2 4 5 4 18 13 8 8 13 9 9 7 18 18 21 16 15 9 6 9 10 11 12 12 13 13 10 8 8 8 8 9 8 9 8 8 7 7 8 9 8 8 8 9 11 10
4 3 5 5 4 5 5 13 10 10 10 7 21 5 12 26 20 20 18 16 12 10 10 11 10 10 10 10 9 9 7 6 4 4 3 3 2 2 3 3 4 6 6 6 6 6 6 7 8
5 4 5 5 5 7 7 12 14 20 5 19 17 7 10 29 28 23 22 18 14 9 9 9 9 7 7 9 8 6 5 2 2 3 3 3 4 3 3 3 4 4 5 4 4 4 4 4 5
5 2 3 5 6 7 7 6 7 11 15 7 12 12 7 30 30 28 25 23 17 14 14 11 11 8 9 7 5 3 2 1 2 2 1 2 2 2 2 3 2 3 3 3 3 3 2 1 1
5 4 8 6 3 5 13 11 14 8 13 5 8 10 19 32 34 32 32 26 23 20 19 15 14 10 12 8 4 1 1 2 3 2 2 2 1 3 3 4 4 4 5 6 7 7 6 5 3
8 6 6 5 13 5 7 10 6 16 2 14 19 21 33 34 32 32 31 25 20 19 21 19 16 12 9 8 5 3 3 2 3 3 3 2 1 2 5 6 7 7 8 9 10 10 9 9 7
4 7 3 5 6 4 2 4 6 13 7 15 16 19 33 36 31 32 31 30 27 26 22 20 16 14 12 9 5 6 4 3 5 6 6 4 2 4 6 7 9 9 11 11 12 12 12 11 11
6 5 7 3 2 9 2 2 5 8 8 11 22 29 32 35 30 27 28 26 30 28 24 22 16 18 13 11 7 6 5 5 7 8 8 6 5 5 7 8 9 9 10 10 12 12 13 13 13
10 10 8 4 5 7 5 3 2 6 11 13 27 33 34 30 28 26 25 25 30 29 27 20 18 17 14 10 8 6 7 7 8 9 8 8 6 6 6 6 6 6 7 9 11 13 15 17 18
7 5 3 5 4 3 3 6 4 4 12 18 28 27 26 23 25 24 22 19 25 28 26 22 18 17 12 8 7 8 10 9 9 9 8 7 6 5 4 3 3 4 6 8 10 13 15 18 20
6 5 5 3 6 2 6 3 4 11 11 12 18 20 22 19 21 23 22 21 31 27 24 21 18 15 13 9 7 9 10 10 11 10 9 8 6 4 3 1 2 5 6 9 12 14 17 20 23
1 5 4 3 2 4 3 4 5 3 6 9 8 13 18 20 20 20 24 28 27 22 22 20 18 15 11 9 7 9 11 11 11 10 9 8 7 5 4 5 6 8 9 11 13 16 19 23 25
4 6 3 6 7 2 4 6 4 7 6 8 7 11 19 24 23 25 30 29 25 22 21 18 16 13 12 11 9 11 12 11 11 9 10 9 8 8 8 10 11 11 12 14 15 17 19 23 27
5 6 6 2 5 4 8 4 7 12 11 11 13 15 13 25 23 27 28 29 27 23 20 19 15 14 15 15 12 13 12 11 11 10 10 9 9 10 12 14 15 15 16 17 17 18 20 23 27
4 5 4 1 4 3 6 8 10 6 7 13 15 16 11 13 21 26 30 32 28 23 21 18 15 13 15 14 10 10 10 12 11 10 11 11 12 15 17 17 17 18 20 19 18 20 22 24 26
6 5 5 5 3 1 6 6 6 4 6 7 8 10 9 9 20 31 36 33 28 24 22 18 13 12 14 12 12 13 14 14 15 16 17 16 16 19 20 19 20 21 22 21 20 22 24 25 26
11 8 8 7 7 5 3 4 4 3 5 4 7 7 5 5 15 34 37 33 28 23 18 14 12 11 12 13 13 14 16 15 14 14 16 17 18 20 21 22 21 22 23 24 24 26 26 27 29
8 7 12 8 5 5 1 3 6 3 3 4 3 3 3 9 12 34 34 29 24 19 15 13 12 11 12 14 14 15 15 17 19 20 20 20 20 19 20 20 21 20 21 22 23 25 26 29 31
5 7 7 4 2 0 6 6 5 5 7 4 3 2 1 6 11 30 30 25 20 17 15 15 14 14 16 17 18 19 18 19 20 20 22 21 22 20 21 22 22 21 22 23 25 27 29 30 30
3 5 3 1 1 5 4 4 7 2 5 7 8 6 4 6 14 29 30 25 21 19 17 16 15 15 16 17 19 18 17 18 19 20 21 22 21 21 21 20 21 23 25 25 28 30 31 30 30
6 6 5 6 5 4 6 6 4 2 7 13 11 12 13 14 18 25 24 22 20 19 19 18 15 14 13 13 14 16 18 19 18 18 19 20 21 20 20 23 25 25 27 29 30 32 31 31 31
5 3 4 5 2 3 2 3 4 4 5 10 13 14 14 16 19 21 19 18 17 15 14 13 13 13 12 11 12 14 16 17 18 19 19 17 18 20 23 24 27 28 29 31 33 33 34 33 32
2 3 2 3 3 3 3 3 4 8 8 6 8 14 15 17 17 16 14 12 10 8 7 6 6 7 7 8 10 13 16 17 17 18 18 18 19 21 24 25 26 29 32 32 33 33 33 33 33
1 0 4 4 4 4 2 6 5 12 12 11 14 18 19 17 15 12 10 9 8 7 5 4 3 5 7 10 12 14 15 17 18 19 20 21 22 23 24 27 29 29 31 30 30 31 32 32 33
3 4 4 4 3 1 4 5 4 8 13 19 20 20 18 16 13 11 10 10 8 6 3 4 7 9 11 13 14 15 16 18 19 19 19 19 20 24 26 27 29 30 30 30 30 31 30 30 31

GFSSGP_850_spd_081.txt.gz
Wind_Speed
2 4 3 2 2 4 2 4 2 3 1 2 7 7 8 5 2 3 17 10 10 14 14 11 8 7 7 8 8 9 9 9 9 9 8 8 6 6 6 6 6 8 10 10 11 11 10 10 10
1 2 3 1 3 2 5 2 6 5 11 16 12 7 5 2 5 12 19 13 9 10 13 10 8 9 8 8 9 9 10 10 10 10 10 10 10 9 8 8 6 6 6 5 5 7 8 8 7
2 3 2 3 2 3 4 3 6 10 19 4 5 6 5 8 8 17 14 17 12 13 11 9 8 9 9 9 9 9 9 10 9 9 9 9 10 11 11 11 10 9 9 9 9 9 8 8 7
4 2 2 3 4 4 4 4 6 10 4 6 13 6 5 4 12 11 18 17 14 11 11 9 7 9 9 9 9 9 9 10 10 10 9 10 11 11 10 11 10 11 11 11 11 11 11 8 6
5 2 2 1 4 3 4 9 15 6 7 10 8 5 4 6 7 15 16 16 12 11 10 9 9 9 9 10 11 12 12 11 10 9 10 11 10 10 11 11 11 11 11 11 11 11 10 10 8
3 2 2 3 4 4 4 17 11 6 10 11 7 10 6 13 12 18 15 16 11 7 11 12 12 11 12 14 13 10 9 9 9 8 8 9 8 7 6 6 7 7 7 7 7 7 7 7 7
5 3 4 4 3 3 4 15 7 9 8 8 15 5 5 15 16 17 15 16 12 12 13 15 14 13 13 12 10 9 7 6 6 3 1 0 1 1 2 4 4 4 5 4 4 4 4 4 4
5 4 4 4 4 5 5 15 14 15 8 9 16 8 6 24 23 19 19 18 15 15 15 14 13 12 11 11 9 7 5 3 2 1 1 2 2 3 3 4 4 3 4 3 3 3 3 2 2
6 3 4 5 6 6 6 6 6 11 13 9 14 7 5 26 27 25 26 23 19 18 15 15 13 13 12 11 8 4 2 1 1 1 1 2 2 3 3 3 3 2 3 3 3 2 2 0 1
5 5 9 5 5 4 6 9 15 9 11 6 13 10 18 30 32 31 32 30 24 20 19 16 15 13 14 11 7 3 1 1 1 1 1 2 3 3 3 3 4 5 7 7 7 7 6 4 2
6 6 5 6 5 8 3 7 11 16 4 13 22 18 36 36 35 33 33 30 24 22 22 20 17 14 14 11 8 4 2 1 2 1 1 0 1 2 5 6 7 8 10 10 10 9 9 8 6
4 7 10 5 4 1 4 5 5 21 9 22 19 20 39 41 39 36 34 32 30 26 25 21 19 16 14 12 9 5 4 2 2 3 3 2 1 4 7 8 10 10 11 10 10 10 11 10 10
5 4 10 4 0 3 2 2 4 7 6 14 19 27 37 40 39 35 31 29 30 28 26 23 21 18 15 13 10 7 5 3 4 5 5 4 3 6 7 8 9 9 9 8 8 9 10 12 13
8 9 5 8 5 1 3 1 7 3 3 14 23 29 35 37 37 35 33 33 31 28 26 20 19 19 16 13 10 8 5 4 6 7 7 6 6 6 7 7 6 5 4 5 7 8 11 13 15
8 6 1 5 7 4 6 4 4 3 4 19 24 28 30 32 32 32 32 32 30 29 26 23 19 21 16 13 10 9 7 7 8 8 8 7 7 6 6 4 2 1 3 5 7 9 11 13 15
7 5 6 5 7 1 3 4 2 4 8 15 19 24 26 28 31 29 28 26 25 27 26 23 20 16 15 13 10 9 9 8 9 9 9 8 7 6 5 3 2 3 5 6 8 10 13 16 18
2 5 4 3 5 4 3 4 4 4 9 10 15 21 24 26 24 29 29 27 23 25 27 21 22 17 16 13 11 10 10 9 10 10 9 8 7 6 6 5 6 7 8 10 12 14 16 18 20
4 5 2 5 6 1 3 4 4 11 9 15 18 24 26 27 26 27 28 26 24 29 27 20 20 18 16 15 14 11 12 11 12 11 9 8 8 8 8 9 10 11 12 13 16 17 18 21 23
3 6 5 2 5 4 9 7 11 12 10 13 16 14 22 21 26 25 26 27 29 29 25 23 21 21 20 19 14 11 11 12 12 10 9 8 7 8 9 12 14 15 15 16 19 20 20 20 24
6 6 4 1 2 1 4 9 6 8 8 18 22 18 18 17 22 24 28 33 32 29 26 25 23 20 16 13 9 7 10 10 9 9 10 10 10 10 13 14 15 16 17 19 21 21 20 21 23
5 6 4 3 2 3 4 6 6 4 11 10 11 12 14 14 22 28 33 36 34 30 27 25 20 14 13 13 11 9 11 10 12 13 13 12 14 15 17 18 18 19 21 22 22 21 22 22 22
6 5 5 6 4 4 2 4 5 3 5 3 7 11 11 12 16 28 34 38 35 30 26 20 14 11 11 11 10 8 9 11 13 13 13 16 18 19 21 21 22 22 22 23 22 22 22 22 22
6 5 7 5 4 2 2 1 5 1 5 6 5 6 7 8 11 21 32 39 35 28 22 16 12 10 10 10 11 10 9 10 12 14 15 17 19 21 23 24 25 24 24 23 22 21 21 23 25
7 7 8 5 3 2 6 6 5 5 6 4 3 4 4 6 9 15 25 33 31 26 20 15 12 11 13 15 16 16 16 15 15 17 18 19 20 20 21 21 23 24 22 18 19 22 24 25 26
5 6 2 1 2 4 3 3 8 4 4 5 8 4 3 6 11 17 26 31 27 23 19 16 15 16 17 19 20 20 19 19 18 19 20 20 19 19 18 19 18 19 20 23 24 26 26 27 28
4 6 5 5 5 4 2 6 5 3 4 11 11 7 4 5 9 22 25 26 24 21 18 17 17 17 16 16 15 15 15 17 19 20 19 19 19 18 18 19 20 22 23 24 25 26 28 30 30
4 4 3 4 3 3 3 4 4 3 4 7 11 11 11 12 14 23 24 22 19 17 16 14 13 12 11 10 10 9 11 12 15 16 18 18 18 19 19 20 21 23 24 26 29 31 33 33 33
4 6 4 1 3 4 3 3 5 5 6 5 6 12 15 17 18 19 18 18 16 14 12 10 8 6 4 4 6 8 11 13 14 15 17 18 18 19 20 21 23 25 28 30 31 33 34 34 35
2 2 2 4 3 4 0 5 5 9 9 10 11 17 18 18 18 18 16 15 13 12 10 9 6 4 5 7 10 13 15 16 16 18 18 19 18 19 20 23 26 26 28 30 31 32 33 33 34
2 1 4 4 3 2 4 5 2 7 9 18 18 20 19 17 17 15 14 13 13 11 9 6 4 6 9 11 13 15 16 16 17 18 17 16 17 20 23 24 27 29 31 31 31 32 31 31 31

GFSSGP_850_spd_084.txt.gz
Wind_Speed
3 3 2 1 3 4 3 5 1 3 1 2 7 5 6 4 3 3 17 10 13 14 12 10 8 6 6 6 7 7 7 7 8 7 6 5 4 4 5 5 7 9 10 8 8 8 8 7 8
1 3 3 2 4 1 5 2 5 5 9 17 11 9 3 2 5 11 16 14 12 13 13 10 10 8 8 8 9 9 10 10 9 9 9 8 8 7 7 6 5 5 5 5 5 5 5 5 6
3 3 2 3 3 4 5 5 6 4 17 3 5 5 5 7 7 20 12 15 15 14 12 10 10 10 9 9 9 10 9 9 8 8 9 9 10 10 9 9 9 9 9 9 8 6 5 4 3
5 4 1 3 5 5 5 3 7 9 6 4 9 6 5 2 14 11 18 16 16 14 13 10 11 11 10 10 10 10 9 9 9 9 9 10 11 10 10 9 9 10 11 10 10 8 6 3 3
7 2 1 2 4 4 4 3 19 7 6 8 7 6 5 11 7 16 18 16 13 13 13 11 10 10 11 10 11 12 11 11 9 9 9 9 9 11 10 10 10 10 10 9 9 8 7 6 5
4 2 2 4 4 4 4 9 12 7 7 10 6 10 6 14 10 17 17 16 12 11 12 12 11 11 12 14 14 12 11 10 9 8 9 8 7 6 6 6 6 6 6 5 5 5 5 6 6
4 4 5 4 4 4 5 16 10 10 9 8 10 6 7 18 14 17 18 16 13 12 13 14 13 14 15 14 11 10 8 8 6 6 4 3 2 3 3 4 4 3 2 3 3 3 3 4 4
5 3 4 4 4 5 4 14 12 14 7 7 13 6 6 23 22 21 20 18 15 14 15 16 15 15 14 12 10 10 8 7 3 1 2 2 2 3 4 4 2 2 2 3 2 2 2 3 2
7 2 4 6 6 5 5 5 6 9 12 10 13 4 3 26 27 25 24 22 18 17 17 16 16 14 13 13 10 8 7 4 1 1 2 2 2 3 3 2 2 2 3 3 3 2 1 1 1
6 5 9 5 5 3 2 7 14 8 9 7 13 10 10 28 31 31 30 27 23 21 20 18 15 14 15 13 10 6 4 2 0 0 2 3 2 2 3 3 4 6 7 7 7 7 6 5 4
5 6 5 6 7 4 3 3 13 10 4 17 26 21 22 31 33 31 30 25 20 21 21 20 16 15 14 13 9 6 5 2 1 1 2 2 2 2 5 7 8 9 10 10 10 9 8 8 7
3 9 6 6 5 1 3 3 6 15 10 24 20 24 28 34 34 32 31 28 26 25 23 21 19 18 17 13 10 6 5 3 2 2 2 1 2 5 7 8 10 11 11 9 9 9 10 10 10
5 3 12 6 8 4 3 7 7 17 6 8 19 26 31 34 33 31 28 29 28 26 24 22 19 17 15 15 13 10 6 4 3 3 3 2 3 6 9 10 11 10 9 7 7 8 9 10 12
3 10 6 8 5 6 3 3 4 4 5 8 21 29 33 34 32 31 31 31 31 27 24 21 20 17 17 15 12 10 7 5 4 5 4 4 6 7 10 10 9 7 5 4 4 6 8 10 12
12 4 1 6 7 5 7 3 4 5 2 9 19 30 32 35 32 29 25 30 30 29 25 23 21 21 19 16 13 10 9 7 6 7 6 6 8 9 9 8 6 3 1 1 4 6 8 9 11
6 6 5 4 8 3 7 6 3 2 5 11 15 24 30 34 31 29 28 28 28 28 27 25 22 21 16 16 14 12 11 9 8 8 8 8 9 9 8 7 5 3 3 4 6 8 10 12 14
3 6 5 2 5 4 4 4 3 5 9 13 15 18 25 31 31 31 30 29 28 26 27 26 22 18 13 14 14 13 12 10 9 9 9 9 9 8 8 7 6 6 7 8 9 11 13 15 16
3 5 3 6 6 2 2 3 4 5 7 12 17 19 24 30 31 32 31 28 27 27 26 23 20 18 15 16 16 15 14 12 11 11 10 9 9 9 8 8 8 9 10 11 12 14 16 17 19
2 5 5 3 5 5 7 5 8 9 8 11 16 19 23 25 26 26 26 30 27 25 25 27 21 18 19 19 17 15 13 13 13 12 10 9 10 9 9 9 10 12 12 13 15 16 18 19 21
9 5 4 2 3 4 5 9 8 7 8 17 19 15 14 17 22 24 27 27 27 25 24 24 21 18 19 16 12 11 10 12 11 11 10 10 10 10 10 11 12 14 15 16 18 19 20 20 20
8 4 5 4 3 3 4 5 4 6 13 14 15 17 21 20 20 24 27 26 26 26 25 23 17 19 16 16 14 10 12 12 13 13 12 10 11 12 14 16 17 18 19 19 20 21 22 20 20
8 6 5 6 4 3 1 4 4 3 7 4 8 9 12 13 16 19 23 25 27 27 24 19 19 17 16 15 13 10 7 7 7 9 10 12 14 16 19 20 21 22 23 22 22 23 22 21 20
6 1 5 4 4 2 1 1 6 1 6 7 7 9 9 10 10 14 21 24 27 28 22 21 18 17 16 14 11 11 9 7 9 10 12 13 15 17 19 21 23 24 24 23 22 21 21 20 21
8 6 7 5 3 1 5 5 5 5 5 0 5 10 9 7 9 9 16 22 28 27 23 21 20 18 17 14 14 15 15 15 15 14 15 16 18 19 20 20 20 20 21 21 20 19 20 22 23
4 5 3 2 1 4 1 5 10 2 2 3 9 11 7 7 9 9 13 20 27 26 23 22 20 20 20 19 19 19 18 18 18 19 18 18 19 19 18 18 17 17 17 18 19 21 23 23 25
2 6 4 5 4 4 2 5 5 2 3 1 11 7 5 6 8 10 13 18 26 25 22 21 19 19 18 17 18 18 18 17 16 16 16 15 15 15 16 16 17 18 19 21 23 24 24 26 29
3 2 3 4 2 2 2 5 3 2 3 5 7 7 6 7 10 14 17 22 25 23 21 19 17 15 13 11 10 10 10 10 12 13 14 14 15 16 17 17 17 19 20 22 25 27 28 29 29
4 6 3 3 2 2 3 4 5 4 6 4 4 9 10 12 16 19 20 22 21 18 16 15 13 11 9 8 8 8 9 10 12 13 14 15 16 17 18 18 19 21 23 25 26 28 30 31 31
2 1 6 4 3 2 2 5 5 4 8 9 10 13 14 16 19 20 20 19 17 15 14 12 9 6 4 5 7 9 11 13 14 15 15 16 18 17 17 20 22 24 25 27 29 30 29 30 31
1 2 5 4 5 2 2 5 0 5 7 17 18 17 16 17 19 19 19 17 16 13 11 8 5 4 4 6 8 11 13 14 13 14 16 16 16 18 20 21 22 26 28 28 28 29 29 29 29

GFSSGP_850_spd_087.txt.gz
Wind_Speed
2 3 3 1 2 1 2 4 1 4 4 3 9 4 5 3 3 1 16 13 17 16 13 12 10 9 8 8 7 6 7 7 6 6 5 5 4 5 5 6 8 9 6 5 4 6 8 10 11
1 4 3 1 1 2 4 2 6 5 6 14 10 8 2 2 4 10 16 15 16 15 13 11 10 9 8 9 10 10 10 9 9 8 7 6 6 6 5 5 5 4 3 3 4 4 5 6 8
4 5 2 2 2 4 4 5 5 6 18 6 5 4 3 4 5 18 12 16 18 15 13 10 10 10 9 10 11 11 10 9 8 8 8 8 8 8 7 8 8 8 7 7 6 4 4 4 6
6 4 2 2 7 4 4 2 7 12 6 4 7 6 5 3 13 10 17 16 17 15 13 11 12 11 10 10 10 10 9 9 9 9 9 9 9 8 9 9 8 9 8 8 8 7 6 5 5
9 2 2 2 5 3 4 2 12 11 7 7 9 6 4 13 9 16 18 17 17 17 14 12 12 11 11 11 10 11 11 10 8 9 10 9 10 9 9 9 9 9 8 7 7 7 8 8 6
5 2 3 6 5 3 4 5 11 6 7 9 6 10 6 13 14 20 19 17 15 15 14 13 12 12 12 13 14 13 11 10 9 9 8 10 9 5 4 6 6 5 5 4 4 5 6 7 7
5 3 4 4 3 4 4 11 12 12 9 8 11 7 7 17 19 20 19 16 15 15 14 15 13 14 15 15 13 11 10 8 7 7 5 3 1 3 4 4 3 3 3 3 3 3 5 6 5
6 3 4 4 5 6 2 11 11 13 7 9 11 6 6 24 25 23 21 17 16 16 16 16 16 17 17 13 10 9 8 6 5 2 3 2 3 4 3 2 2 2 3 3 3 3 3 3 4
8 3 7 8 7 4 4 7 6 7 8 9 13 4 5 28 29 27 25 21 19 18 18 17 17 17 15 13 11 9 6 4 2 1 2 2 3 4 4 2 1 2 3 3 3 3 2 2 2
6 5 9 5 5 4 5 4 8 6 7 7 14 11 10 30 32 32 30 27 23 21 21 19 17 17 15 14 12 9 6 4 2 1 2 3 3 3 3 3 4 5 7 7 7 7 7 6 6
5 9 5 6 9 5 3 4 8 9 5 14 26 23 21 31 33 32 29 25 24 23 22 20 18 16 16 13 11 7 6 3 2 2 3 2 2 4 5 7 8 9 10 10 9 9 8 8 8
5 9 11 9 11 7 6 5 6 16 16 11 22 25 25 34 35 34 30 27 26 25 23 21 18 15 13 11 11 9 7 4 2 3 3 2 2 5 8 9 11 11 11 9 9 9 10 10 11
6 5 11 15 13 11 9 9 6 15 22 8 13 28 29 33 33 32 29 27 26 26 25 24 20 18 15 17 15 11 9 5 3 4 4 3 4 6 9 10 11 9 9 7 6 7 7 8 10
4 15 17 12 12 10 8 5 8 7 23 10 15 29 31 33 34 33 32 30 28 26 26 24 20 18 18 18 16 10 9 6 4 4 5 4 6 7 9 10 9 7 6 4 3 4 6 8 10
11 8 4 10 8 6 8 4 7 5 10 14 19 28 30 34 33 32 29 29 27 25 25 24 22 20 18 18 15 12 10 6 5 5 6 6 7 8 9 9 7 5 2 0 2 4 7 8 10
5 6 11 6 9 3 9 14 5 7 10 12 17 23 26 30 32 29 28 27 27 26 26 24 24 22 19 15 15 14 11 8 7 7 7 8 9 9 9 8 6 4 2 3 5 6 8 10 12
4 13 12 4 8 5 6 4 4 7 12 14 15 17 19 23 29 28 26 26 26 20 28 28 25 21 17 16 15 15 12 10 9 9 9 10 10 10 9 8 6 5 5 7 8 9 11 14 16
8 8 5 16 6 2 6 3 2 5 8 12 14 15 20 27 31 30 27 31 26 25 27 25 20 21 18 15 16 16 14 12 11 11 11 11 10 10 9 8 8 7 8 10 11 13 15 16 17
4 5 11 5 7 6 9 6 8 6 5 9 13 20 22 28 27 30 28 29 27 27 26 24 22 22 21 18 19 18 15 13 12 12 12 11 11 11 10 10 9 9 11 11 12 14 16 18 19
19 14 12 2 3 4 6 10 5 8 7 15 18 20 20 19 21 24 26 30 30 28 25 23 22 22 19 17 16 12 10 12 11 13 13 12 12 12 12 11 11 12 14 15 16 17 18 19 19
16 14 10 8 4 2 5 4 6 7 14 14 15 17 16 16 17 19 25 29 29 29 27 22 22 18 16 17 15 13 13 12 13 14 14 12 12 12 13 14 15 16 18 19 19 19 20 20 20
12 11 9 7 6 5 1 3 4 6 9 8 16 18 17 19 21 22 23 28 28 25 22 22 21 17 18 17 16 13 9 7 8 10 11 12 13 14 16 17 19 20 21 22 22 22 22 22 22
8 3 6 2 2 2 1 2 4 1 5 10 10 13 16 17 18 20 20 21 22 20 22 23 18 19 17 16 16 13 11 8 9 9 11 13 15 16 17 19 21 22 23 24 24 24 23 22 20
9 6 7 1 2 3 4 4 4 5 5 0 3 14 15 13 12 13 15 16 17 18 21 21 21 20 19 18 16 15 14 13 12 12 12 14 16 17 18 20 21 22 22 22 22 21 19 19 21
3 5 0 2 3 3 0 4 9 3 2 2 5 13 13 12 11 11 13 16 19 21 22 23 22 22 20 19 18 18 17 16 16 16 16 16 18 18 19 19 19 19 19 18 18 19 20 23 25
1 7 3 3 4 3 2 5 4 0 2 5 5 11 9 8 10 10 11 14 19 22 24 25 24 22 19 19 18 17 16 16 15 14 13 13 14 14 16 16 18 18 18 18 20 23 24 26 27
2 6 5 4 2 1 1 5 4 1 2 2 5 6 6 7 9 11 12 15 21 24 24 23 20 18 16 14 13 11 9 8 9 10 11 11 12 14 16 17 18 18 20 21 23 24 25 26 27
4 5 2 3 1 1 2 4 4 2 6 5 4 6 6 8 11 13 16 19 22 22 20 17 14 11 10 9 8 7 7 7 8 9 11 13 14 15 17 17 18 19 20 22 23 25 26 28 28
2 1 5 4 2 1 3 3 4 3 5 9 8 7 8 11 15 17 19 20 19 18 16 14 12 10 9 7 6 6 6 8 10 12 13 14 15 16 16 17 18 20 21 23 25 27 27 28 28
3 1 3 3 3 2 1 4 1 2 3 11 11 11 12 14 17 18 19 20 19 17 15 13 11 9 8 6 5 5 8 10 11 12 14 15 15 15 16 18 19 21 23 24 25 26 27 28 29

GFSSGP_850_spd_090.txt.gz
Wind_Speed
3 5 5 2 5 5 9 4 3 6 5 4 8 5 3 5 4 3 10 11 16 17 15 14 12 11 11 10 8 5 7 8 7 6 6 5 5 6 5 4 4 3 4 3 5 8 9 11 12
4 7 4 3 6 8 7 5 8 6 3 9 7 5 5 3 4 9 13 14 18 16 14 13 12 10 9 8 8 8 8 8 7 7 6 5 4 3 4 3 2 2 2 3 5 7 8 9 10
6 7 4 3 8 10 8 2 4 7 11 9 6 0 1 4 5 15 9 19 19 16 16 14 11 10 9 9 10 10 9 8 8 8 8 7 7 6 6 5 5 5 6 6 6 6 7 7 8
5 3 4 6 13 10 11 3 4 12 8 5 4 5 4 2 11 8 17 19 18 16 14 12 12 11 11 11 10 9 8 8 8 8 8 8 8 8 8 7 6 7 7 7 9 8 8 7 7
8 5 7 11 15 13 9 4 7 11 9 10 10 7 6 9 8 15 18 18 17 16 13 13 13 12 12 11 11 10 10 8 8 9 9 10 10 9 9 8 7 7 6 7 8 8 9 8 7
8 5 9 13 15 11 9 8 9 12 9 9 8 13 8 10 15 19 18 17 16 16 14 13 13 13 12 12 13 12 10 10 9 7 7 9 7 3 4 4 4 4 3 3 5 6 7 7 7
12 9 15 16 14 13 12 9 12 16 12 12 8 11 8 14 18 19 18 17 17 15 15 14 13 14 15 14 13 11 10 8 6 7 6 3 2 2 2 1 1 1 1 1 3 4 5 6 5
9 7 16 14 14 16 5 11 6 15 14 6 11 7 9 20 23 21 19 18 17 16 15 14 14 13 13 13 11 10 8 7 6 2 2 1 2 2 1 1 1 1 1 2 2 3 4 4 4
7 8 14 19 16 13 5 11 5 10 8 10 11 2 7 26 26 23 21 19 18 17 17 15 15 15 13 11 10 9 7 5 1 1 2 3 5 5 5 2 1 1 2 2 2 3 3 4 4
13 13 21 15 16 10 7 10 11 10 16 10 12 5 17 28 28 27 25 24 22 21 20 17 17 16 14 12 10 9 7 6 4 2 4 5 6 6 4 2 2 4 5 6 7 7 7 7 7
13 20 15 13 18 12 11 10 10 12 12 21 19 16 24 29 27 26 25 23 24 22 21 19 18 17 16 14 11 11 8 6 3 3 4 5 4 4 4 4 6 8 8 9 9 9 10 10 11
14 20 21 16 13 11 13 8 10 17 12 11 14 18 24 30 30 28 26 24 24 24 22 21 19 18 16 15 13 9 9 6 4 4 4 3 3 5 6 7 8 9 9 9 8 9 10 11 12
18 18 18 19 24 18 13 16 15 17 16 7 7 20 26 28 27 25 24 23 23 23 22 21 22 19 17 16 14 11 9 7 4 4 4 4 5 7 8 9 10 9 8 7 7 8 8 9 10
9 12 24 23 18 19 15 17 8 13 13 10 13 19 24 26 28 26 26 26 25 23 23 22 23 21 16 17 16 13 11 9 5 5 6 5 6 8 9 10 10 8 6 4 4 4 5 8 10
13 18 18 19 28 14 17 21 14 14 10 17 14 16 19 22 24 27 25 25 24 23 23 24 23 20 18 20 19 15 12 9 7 6 7 6 8 9 10 11 9 6 4 1 1 3 6 9 11
11 15 18 19 18 22 15 25 21 14 12 17 18 16 16 19 23 22 22 21 22 22 26 25 25 23 22 19 17 16 12 10 8 7 8 8 9 10 11 10 8 6 3 2 4 5 7 8 9
12 15 18 19 14 16 18 21 19 14 14 14 18 19 21 21 21 23 22 22 21 19 19 22 27 27 23 18 12 13 15 13 10 8 9 10 11 11 11 10 9 7 5 5 7 8 7 7 9
15 17 19 19 18 15 17 18 7 13 16 16 16 20 21 21 23 23 20 21 17 19 26 26 26 28 22 17 16 16 18 15 12 10 10 12 12 12 13 12 10 8 7 8 9 9 11 13 15
16 17 21 18 17 17 22 18 12 14 14 16 17 17 19 21 21 20 19 24 32 27 32 29 29 22 23 21 21 20 19 16 13 12 12 13 13 13 13 12 11 10 10 9 10 12 14 12 17
17 18 19 18 17 17 19 20 17 12 14 17 19 19 20 17 19 21 27 25 34 30 27 27 27 23 23 20 20 18 17 16 14 13 14 14 13 13 14 13 12 12 12 13 14 15 14 14 18
18 18 19 18 12 16 15 19 21 13 14 15 17 17 18 19 19 21 22 26 26 27 27 25 26 22 21 21 19 18 17 14 14 14 14 15 14 13 13 13 14 15 16 17 18 19 19 14 13
18 18 21 16 11 13 15 12 20 18 16 15 19 18 17 16 17 16 20 24 26 26 27 25 24 22 22 20 21 17 13 11 12 12 14 14 13 13 15 16 17 19 21 21 22 22 21 20 14
18 15 16 19 13 17 11 10 10 8 16 17 18 22 20 18 22 21 20 19 21 22 25 26 23 25 21 23 20 17 13 10 9 10 10 13 14 15 17 18 20 21 22 22 21 20 20 17 14
11 10 12 3 3 7 14 12 11 10 11 11 9 16 18 16 14 15 16 17 19 20 22 23 25 24 24 22 20 18 15 12 11 10 10 12 14 16 18 19 20 21 21 21 21 20 19 14 13
8 10 4 5 3 4 3 7 8 4 3 1 1 9 12 10 9 10 13 16 18 18 20 23 26 28 26 23 21 18 16 14 13 12 12 14 16 18 19 18 19 20 20 20 19 19 19 19 18
7 10 2 3 5 6 4 6 3 4 1 0 1 7 8 7 6 7 10 12 15 18 20 25 28 27 24 21 19 17 15 15 15 15 16 16 15 15 15 16 17 18 19 20 20 20 20 19 17
2 2 6 6 3 3 5 5 6 1 2 2 6 8 6 5 6 7 10 11 15 19 22 26 25 22 20 17 15 14 14 15 14 12 11 11 13 14 15 15 16 17 19 20 21 22 18 17 18
3 11 4 6 2 3 4 1 3 3 3 5 7 8 7 7 8 10 11 14 16 18 21 21 19 17 15 14 13 12 11 10 9 8 10 12 13 13 14 15 16 17 18 18 17 18 17 19 20
1 4 6 1 3 4 3 6 6 7 6 6 8 8 9 10 11 13 14 15 18 19 19 18 17 15 14 13 11 9 7 7 9 10 11 11 12 14 15 16 16 16 17 15 16 18 19 20 20
7 6 5 3 2 2 3 3 5 6 4 6 10 10 11 12 13 15 17 19 19 19 18 18 17 15 12 10 8 7 7 8 9 9 10 13 14 15 15 16 17 15 16 17 18 19 19 21 22

GFSSGP_850_spd_093.txt.gz
Wind_Speed
3 4 3 6 6 6 11 7 6 3 2 2 1 4 3 7 10 4 13 9 16 16 14 15 14 13 11 8 5 3 5 6 4 4 5 3 2 2 2 2 3 5 4 5 8 9 10 12 12
5 7 5 10 7 11 9 11 6 6 4 4 2 4 6 7 8 12 13 14 17 16 13 13 13 11 9 7 5 5 6 6 5 4 4 3 2 3 3 2 2 3 4 6 8 9 10 11 11
6 8 9 5 12 12 11 4 4 4 6 8 5 3 3 5 7 14 10 18 17 15 14 14 12 10 9 8 8 8 8 7 7 6 6 6 6 6 5 6 6 7 7 8 9 9 9 10 8
7 6 10 10 17 13 13 10 3 6 7 6 4 5 5 4 11 9 18 19 17 16 14 14 12 11 11 11 10 9 8 7 8 7 6 7 9 9 9 7 9 8 10 10 11 10 9 8 6
11 11 11 15 20 18 13 9 1 9 10 9 8 8 6 11 10 17 19 18 17 16 14 14 13 13 12 11 11 9 9 8 8 9 9 11 11 9 7 8 8 7 8 9 9 9 8 7 6
12 11 13 15 19 17 15 10 8 9 12 8 8 11 8 12 16 18 19 18 16 17 15 15 15 14 13 12 12 11 11 11 8 6 7 10 6 4 4 5 5 5 5 6 7 7 7 8 7
17 11 16 19 18 15 13 10 10 12 12 10 7 12 10 15 18 19 19 18 17 16 16 15 15 15 15 15 14 12 11 9 7 9 8 3 1 2 3 3 3 3 4 5 6 7 7 7 7
17 12 21 19 18 19 12 7 8 11 12 7 11 7 10 20 21 20 19 18 18 17 15 15 15 15 15 15 13 11 8 7 6 3 1 2 1 3 3 1 2 2 3 4 5 5 6 6 7
11 11 17 22 20 15 16 4 10 11 6 11 12 5 12 25 24 22 20 19 18 18 17 17 16 15 14 12 11 11 8 6 2 3 4 8 7 8 5 1 2 2 3 4 5 6 7 9 9
15 14 23 18 16 16 18 14 12 6 13 15 13 4 18 27 26 25 23 22 20 20 19 18 17 17 14 13 9 10 8 6 5 5 8 7 7 8 3 3 4 5 8 9 9 9 11 11 10
20 20 19 19 22 23 19 17 16 15 14 18 21 13 23 27 27 24 23 22 21 21 20 19 19 18 15 13 11 10 9 8 7 8 7 7 5 5 3 4 6 9 11 8 9 10 11 13 12
21 24 23 27 26 17 19 23 18 18 17 11 18 17 23 27 27 26 24 22 22 22 21 20 19 19 18 15 14 10 8 8 7 8 8 6 6 6 6 6 8 8 7 8 8 9 11 11 11
19 18 24 24 24 25 20 23 23 20 18 9 7 10 23 26 24 23 22 21 21 22 22 21 20 18 18 14 11 10 9 7 7 7 6 6 6 6 7 8 8 8 7 7 7 7 7 8 9
13 13 18 24 26 22 25 23 23 25 16 11 14 18 20 24 25 23 23 22 22 22 22 22 21 18 18 15 12 10 8 8 7 6 6 6 7 7 9 9 8 7 6 6 5 4 5 6 6
16 17 17 21 21 24 22 23 28 28 16 19 15 19 22 23 24 24 23 23 22 22 22 23 22 20 16 16 17 18 13 8 5 5 6 7 8 8 9 8 7 6 6 4 3 2 3 4 5
16 19 18 16 22 24 24 29 23 30 23 17 19 18 21 24 25 22 21 20 20 21 22 20 20 20 16 21 21 18 12 7 6 7 8 8 9 11 11 10 9 7 5 3 1 1 2 3 4
12 16 20 20 19 19 22 31 21 29 32 21 21 21 20 22 23 24 22 17 22 20 20 20 22 23 23 21 13 11 11 7 11 12 10 10 11 12 10 8 8 7 5 2 2 3 2 3 5
16 17 18 17 18 19 23 23 19 29 16 22 23 21 22 25 30 30 22 30 24 21 19 19 24 21 26 17 14 14 17 17 15 13 11 11 12 12 11 9 8 6 6 3 4 3 5 8 8
19 20 23 20 19 22 21 22 21 26 14 19 21 24 22 23 25 26 28 29 27 26 15 17 29 28 27 21 19 19 19 19 16 14 11 12 12 13 12 9 7 10 7 5 8 8 9 7 9
18 20 21 20 20 22 21 23 22 23 17 20 23 23 24 23 23 27 30 33 36 31 23 29 31 29 25 21 22 20 17 16 14 14 12 13 12 11 11 10 10 10 10 11 11 11 11 10 11
16 17 19 19 20 22 20 23 20 23 20 19 21 20 19 22 24 26 28 28 27 22 23 25 26 25 23 21 21 16 15 15 15 14 13 13 13 12 12 11 10 9 11 11 11 13 15 14 12
16 14 16 18 17 15 17 15 20 21 21 18 21 21 22 19 15 20 25 25 24 21 23 24 27 26 22 21 21 22 20 16 13 12 12 13 13 12 12 12 12 12 11 12 11 12 14 14 14
15 15 14 17 17 19 17 14 18 22 22 21 19 23 21 19 19 17 17 21 20 20 21 24 23 22 19 23 22 22 14 11 10 10 11 10 11 13 12 13 12 13 12 13 14 13 13 13 13
16 12 11 13 14 11 19 11 19 16 24 22 25 26 24 20 19 18 15 14 17 18 19 19 19 17 20 22 19 20 16 13 12 12 11 11 11 11 13 15 15 16 16 16 16 16 15 13 12
8 7 2 4 4 6 16 8 8 7 8 2 17 22 18 17 15 15 16 16 15 19 17 18 21 23 23 21 20 20 16 13 11 10 9 8 8 9 11 13 14 13 18 16 16 14 12 10 12
14 1 3 4 2 4 4 6 11 6 11 15 10 11 15 13 12 12 13 14 14 15 16 18 20 21 21 22 20 19 17 14 10 9 8 8 8 8 13 12 12 13 12 13 13 13 13 13 13
7 6 3 4 10 3 6 7 6 9 9 8 12 13 13 11 11 12 13 13 14 16 17 18 21 21 22 22 17 16 13 13 11 11 9 9 8 11 11 11 11 10 13 14 15 14 13 14 16
4 11 2 3 3 2 9 20 7 9 8 8 9 13 11 11 12 13 14 15 15 16 18 19 20 21 20 16 13 12 10 10 8 8 8 8 9 9 10 12 13 13 12 10 11 13 14 15 17
1 3 1 7 1 4 4 8 10 11 6 8 10 12 12 13 13 14 15 15 16 16 18 18 18 18 16 16 13 12 9 7 6 5 6 6 8 9 10 11 13 11 11 12 13 15 17 18 19
6 7 7 3 8 6 4 6 9 10 7 11 13 13 13 13 15 15 16 17 17 17 18 17 16 16 14 13 11 9 8 7 5 4 3 5 5 10 10 9 10 11 12 13 15 17 18 19 21

GFSSGP_850_spd_096.txt.gz
Wind_Speed
3 5 6 3 2 5 10 13 3 5 0 10 5 1 6 20 6 4 18 10 15 12 20 18 17 15 10 9 7 6 6 5 3 6 5 4 3 3 3 5 6 6 7 9 10 12 13 13 17
4 4 4 5 4 7 11 16 8 5 13 8 6 0 5 9 9 16 17 17 19 13 18 18 16 13 10 8 6 6 6 6 5 5 4 2 3 4 4 5 6 7 9 9 10 12 12 13 16
6 6 5 4 7 10 13 7 5 14 12 8 5 3 5 7 15 17 21 21 18 14 15 17 15 12 10 7 8 8 8 8 7 7 6 6 6 7 7 9 9 11 12 12 11 12 11 10 13
4 6 8 6 15 15 20 15 5 9 12 9 6 10 9 7 14 17 23 24 20 18 18 12 14 12 11 11 11 10 9 9 9 9 9 9 10 11 12 11 12 12 13 12 12 11 10 10 12
10 7 6 9 16 19 19 13 4 8 12 12 7 10 13 14 15 18 25 22 22 18 16 15 14 13 13 13 11 10 10 10 11 12 14 14 11 9 10 9 10 10 10 10 10 10 8 9 11
6 7 6 12 17 19 20 23 18 25 16 14 11 15 11 15 18 24 23 21 21 17 13 18 16 15 15 14 13 13 12 12 10 11 12 11 6 6 6 6 7 7 8 8 9 9 9 10 11
9 7 10 15 17 18 15 19 7 7 10 13 11 12 18 20 21 23 22 20 20 14 15 18 17 17 16 16 15 15 13 11 10 12 9 3 3 5 4 4 5 6 7 8 8 9 9 10 10
10 4 13 15 14 19 21 21 16 38 2 7 16 7 13 27 24 23 22 20 18 16 12 16 18 18 18 18 15 13 11 11 10 7 4 3 4 4 3 4 5 6 7 7 7 8 8 9 9
12 5 11 17 17 18 27 10 16 14 17 11 9 6 25 33 28 25 24 22 20 17 16 15 17 18 17 17 15 13 11 9 6 7 7 8 5 5 5 6 6 7 7 8 9 10 11 12 11
10 8 14 12 14 15 23 19 9 7 32 11 13 14 34 33 31 29 27 25 23 22 21 17 16 16 13 10 12 11 10 7 7 12 14 11 6 2 7 6 8 10 12 12 12 13 13 13 14
14 17 13 19 24 25 23 23 9 8 6 9 17 24 32 32 30 28 26 26 24 23 24 20 20 23 19 15 10 13 12 9 6 12 10 10 9 5 5 8 11 12 12 11 12 13 16 15 14
17 21 22 22 26 26 19 25 20 26 18 5 7 25 31 30 30 28 26 26 25 24 24 22 24 19 14 19 11 14 14 9 10 12 12 9 5 4 4 6 11 11 10 9 10 12 11 11 11
14 12 22 24 24 24 22 21 18 19 19 9 7 13 29 28 26 25 24 25 25 26 24 24 24 22 21 21 16 13 13 12 11 14 10 8 7 6 7 8 10 11 9 8 9 8 8 10 9
14 20 19 17 20 23 19 17 24 24 22 8 13 18 25 26 25 25 26 27 27 27 26 25 23 24 21 14 16 16 12 11 10 8 9 6 10 10 8 9 9 10 9 8 5 6 6 7 8
13 14 13 15 16 15 20 18 23 27 26 15 18 25 18 26 31 29 27 26 27 28 26 26 23 22 24 20 17 18 16 16 8 5 6 10 9 9 11 9 10 8 7 6 7 4 4 4 6
14 15 13 7 17 23 17 26 18 21 25 27 23 21 27 28 30 29 29 27 27 28 27 28 30 19 24 24 20 23 20 11 7 4 3 6 9 11 12 12 11 11 10 6 4 3 3 3 4
10 11 14 13 13 10 19 23 13 26 25 29 22 23 23 25 29 30 29 30 27 27 27 28 28 26 23 25 23 23 19 12 11 8 8 10 11 14 14 13 11 9 7 6 4 2 2 3 5
13 15 16 15 13 11 13 20 15 20 25 23 23 30 28 26 30 30 33 26 25 23 25 31 28 27 27 24 20 18 19 15 14 10 10 10 12 13 12 10 10 9 8 7 4 3 5 6 8
15 14 17 18 18 18 17 15 15 21 21 19 25 24 29 27 27 27 36 35 34 38 33 36 32 27 25 25 19 16 20 17 16 13 11 11 12 14 15 14 11 11 8 6 7 7 8 7 5
16 18 16 15 16 15 17 19 16 12 16 20 12 13 25 24 31 33 34 41 35 36 37 36 32 30 21 24 18 17 24 19 16 15 13 12 12 14 15 14 12 11 10 11 11 10 10 8 8
15 16 15 16 14 17 14 18 17 13 20 22 22 22 20 27 25 33 33 36 37 38 34 31 26 24 18 19 19 23 20 18 19 17 16 15 14 13 13 13 12 12 11 11 9 12 13 13 11
12 17 14 11 15 8 13 12 16 16 16 16 21 24 13 22 24 31 31 32 34 38 34 24 23 24 19 21 22 25 25 23 20 15 15 15 15 15 13 13 12 9 9 13 12 12 15 16 16
15 4 9 16 14 11 15 9 12 13 17 17 13 23 24 21 18 28 34 32 30 24 23 25 24 22 19 14 25 24 24 17 15 14 14 13 14 14 12 11 11 13 15 17 15 15 14 15 15
12 6 8 10 5 9 12 3 6 9 16 15 12 21 25 29 24 20 23 30 27 28 28 23 24 22 20 25 25 26 21 18 15 13 12 13 9 11 14 15 16 16 17 18 18 19 18 17 17
6 1 4 3 1 5 8 5 11 18 19 3 18 27 28 25 21 21 20 21 22 23 19 23 18 13 15 24 21 22 21 21 15 15 13 13 16 15 14 15 14 15 17 17 17 16 16 17 17
13 4 2 4 2 3 5 5 4 18 22 24 29 28 29 23 18 15 18 19 23 23 21 21 18 19 19 22 22 24 22 15 11 9 11 11 11 12 14 13 13 15 16 15 15 17 17 18 17
7 4 6 3 4 3 4 5 9 17 3 10 23 21 21 19 16 14 13 15 16 19 18 17 19 19 21 24 25 25 22 19 19 18 19 18 18 17 17 15 12 13 14 15 17 18 19 19 18
3 8 3 1 4 5 5 12 7 7 7 10 12 18 18 18 15 13 13 13 14 15 17 18 18 21 24 23 20 18 16 14 17 16 15 16 16 13 11 10 12 14 15 16 16 14 16 16 17
1 3 2 2 5 3 3 6 9 8 8 11 12 16 14 15 15 17 18 19 19 19 20 21 22 22 20 20 16 14 13 12 11 11 11 11 10 10 10 12 14 15 15 15 16 16 16 17 19
6 5 4 2 4 4 3 5 8 9 12 17 17 16 16 16 17 18 16 15 16 17 18 19 20 20 19 16 14 13 13 12 11 9 7 8 8 10 12 14 14 15 15 14 15 17 18 20 22